[[[{"header":{"parameterUnit":"kt","parameterCategory":2,"dx":1,"dy":1,"la1":29.285339999999998,"la2":30.599998999999997,"lo1":-89.70041500000002,"lo2":-87.6738589999976,"nx":112,"ny":82,"refTime":"2022-11-01T06:00:00:Z","depth":0,"parameterNumber":1,"parameterNumberName":"U-component_of_WINDS"},"data":[5.5842,5.7862,0.0,5.5601,5.486,0.0,5.021,0.0,4.8965,4.8965,4.8862,4.9184,5.0314,4.9109,4.7546,4.647,4.6306,4.5938,0.0,4.5402,0.0,0.0,0.0,0.0,0.0,0.0,0.0,0.0,0.0,0.0,0.0,0.0,6.0918,6.3061,5.769,5.5832,5.8053,5.2414,5.3044,5.9877,5.9877,6.1616,6.4898,6.4898,6.4898,6.4898,6.4898,6.4898,6.4898,6.4898,6.4898,6.4898,6.4898,6.4898,6.4898,6.4898,6.4898,6.4898,6.4898,6.4898,6.4898,6.4898,6.4898,6.4898,6.4898,6.4898,6.4898,6.4898,6.4898,6.4898,6.4898,6.4898,6.4898,6.4898,6.4898,6.4898,6.4898,6.4898,6.4898,6.4898,6.4898,6.4898,6.4898,6.4898,6.4898,6.4898,6.4898,6.4898,6.4898,6.4898,6.4898,6.4898,6.4898,6.4898,6.4898,6.4898,6.4898,6.4898,6.4898,6.4898,6.4898,6.5263,6.5282,6.4917,6.5794,6.5813,6.4898,6.551,6.5775,6.5775,6.5225,6.5263,0.0,0.0,5.6132,5.2203,0.0,0.0,0.0,4.6451,4.6242,4.6242,4.6888,4.7412,4.7412,4.7412,4.6924,4.5327,4.5742,4.5448,0.0,0.0,0.0,0.0,0.0,0.0,0.0,0.0,0.0,0.0,0.0,0.0,0.0,6.0737,6.2468,6.3203,5.889,5.704,5.8179,5.3639,5.4201,5.9877,5.9877,6.1616,6.4898,6.4898,6.4898,6.4898,6.4898,6.4898,6.4898,6.4898,6.4898,6.4898,6.4898,6.4898,6.4898,6.4898,6.4898,6.4898,6.4898,6.4898,6.4898,6.4898,6.4898,6.4898,6.4898,6.4898,6.4898,6.4898,6.4898,6.4898,6.4898,6.4898,6.4898,6.4898,6.4898,6.4898,6.4898,6.4898,6.4898,6.4898,6.4898,6.4898,6.4898,6.4898,6.4898,6.4898,6.4898,6.4898,6.4898,6.4898,6.4898,6.4898,6.4898,6.4898,6.4898,6.4898,6.4898,6.4898,6.4898,6.4898,6.4898,6.4898,6.5031,6.5396,6.5662,6.5662,6.5396,6.5662,6.5946,6.6294,6.5946,6.6269,4.8303,4.922,5.0788,4.9155,4.7559,4.6546,4.7223,4.6793,4.6248,4.6248,4.6831,4.7336,4.7336,4.7336,4.6357,4.3419,4.4856,0.0,0.0,0.0,0.0,0.0,0.0,0.0,0.0,0.0,0.0,0.0,0.0,0.0,5.8832,5.9219,5.9511,6.0047,5.994,5.8305,5.5018,5.489,5.6532,5.9877,5.9877,6.1616,6.4898,6.4898,6.4898,6.4898,6.4898,6.4898,6.4898,6.4898,6.4898,6.4898,6.4898,6.4898,6.4898,6.4898,6.4898,6.4898,6.4898,6.4898,6.4898,6.4898,6.4898,6.4898,6.4898,6.4898,6.4898,6.4898,6.4898,6.4898,6.4898,6.4898,6.4898,6.4898,6.4898,6.4898,6.4898,6.4898,6.4898,6.4898,6.4898,6.4898,6.4898,6.4898,6.4898,6.4898,6.4898,6.4898,6.4898,6.4898,6.4898,6.4898,6.4898,6.4898,6.4898,6.4898,6.4898,6.4898,6.4898,6.4898,6.4898,6.4917,6.5377,6.6237,6.5472,6.5472,6.6294,6.5453,6.551,6.6389,6.7104,6.7939,4.1285,4.4534,4.781,4.7806,4.836,4.8531,4.6944,4.5938,4.5288,4.5288,4.5459,0.0,0.0,0.0,4.5716,4.6099,0.0,4.6896,0.0,4.4934,0.0,0.0,0.0,0.0,0.0,0.0,0.0,0.0,0.0,0.0,5.9025,6.1759,6.3387,6.3549,6.1162,5.9438,5.8494,5.6023,5.6532,5.9877,5.9877,6.1616,6.4898,6.4898,6.4898,6.4898,6.4898,6.4898,6.4898,6.4898,6.4898,6.4898,6.4898,6.4898,6.4898,6.4898,6.4898,6.4898,6.4898,6.4898,6.4898,6.4898,6.4898,6.4898,6.4898,6.4898,6.4898,6.4898,6.4898,6.4898,6.4898,6.4898,6.4898,6.4898,6.4898,6.4898,6.4898,6.4898,6.4898,6.4898,6.4898,6.4898,6.4898,6.4898,6.4898,6.4898,6.4898,6.4898,6.4898,6.4898,6.4898,6.4898,6.4898,6.4898,6.4898,6.4898,6.4898,6.4898,6.4898,6.4898,6.4898,6.5548,6.57,6.532,6.6914,6.7256,6.6294,6.7256,6.7864,6.8091,6.7655,6.7939,3.7033,4.1186,4.5328,4.4977,4.7187,4.8824,4.6236,4.5838,4.5876,4.5535,0.0,0.0,0.0,0.0,0.0,0.0,4.8074,0.0,0.0,0.0,4.9123,0.0,0.0,0.0,0.0,0.0,0.0,0.0,0.0,6.1275,6.1533,6.3676,6.4898,6.4898,6.3036,6.2007,6.2007,6.0037,6.0037,6.2007,6.2007,6.3036,6.4898,6.4898,6.4898,6.4898,6.4898,6.4898,6.4898,6.4898,6.4898,6.4898,6.4898,6.4898,6.4898,6.4898,6.4898,6.4898,6.4898,6.4898,6.4898,6.4898,6.4898,6.4898,6.4898,6.4898,6.4898,6.4898,6.4898,6.4898,6.4898,6.4898,6.4898,6.4898,6.4898,6.4898,6.4898,6.4898,6.4898,6.4898,6.4898,6.4898,6.4898,6.4898,6.4898,6.4898,6.4898,6.4898,6.4898,6.4898,6.4898,6.4898,6.4898,6.4898,6.4898,6.4898,6.4898,6.4898,6.4898,6.4898,6.4898,6.5775,6.6345,6.6573,6.7655,6.7921,6.7377,6.7921,6.8604,6.9306,6.8775,6.8813,3.4891,3.8572,4.2634,4.1775,4.476,4.7528,4.5827,0.0,4.7514,4.7172,0.0,0.0,4.8159,0.0,0.0,0.0,0.0,0.0,4.5646,0.0,0.0,0.0,0.0,0.0,0.0,0.0,6.3403,6.4864,6.363,6.3441,6.4822,6.4898,6.4898,6.4898,6.4898,6.4898,6.4898,6.4898,6.4898,6.4898,6.4898,6.4898,6.4898,6.4898,6.4898,6.4898,6.4898,6.4898,6.4898,6.4898,6.4898,6.4898,6.4898,6.4898,6.4898,6.4898,6.4898,6.4898,6.4898,6.4898,6.4898,6.4898,6.4898,6.4898,6.4898,6.4898,6.4898,6.4898,6.4898,6.4898,6.4898,6.4898,6.4898,6.4898,6.4898,6.4898,6.4898,6.4898,6.4898,6.4898,6.4898,6.4898,6.4898,6.4898,6.4898,6.4898,6.4898,6.4898,6.4898,6.4898,6.4898,6.4898,6.4898,6.4898,6.4898,6.4898,6.4898,6.4898,6.4898,6.4898,6.4898,6.5775,6.7054,6.8623,6.8053,6.8091,6.8794,6.8091,6.8528,6.9942,6.9942,6.9942,3.4246,3.5276,3.724,4.1457,4.2673,4.3924,0.0,0.0,0.0,5.1853,0.0,5.1747,5.248,0.0,0.0,0.0,0.0,0.0,0.0,0.0,0.0,0.0,0.0,0.0,0.0,6.41,6.4617,6.4879,6.4674,6.4636,6.4879,6.4898,6.4898,6.4898,6.4898,6.4898,6.4898,6.4898,6.4898,6.4898,6.4898,6.4898,6.4898,6.4898,6.4898,6.4898,6.4898,6.4898,6.4898,6.4898,6.4898,6.4898,6.4898,6.4898,6.4898,6.4898,6.4898,6.4898,6.4898,6.4898,6.4898,6.4898,6.4898,6.4898,6.4898,6.4898,6.4898,6.4898,6.4898,6.4898,6.4898,6.4898,6.4898,6.4898,6.4898,6.4898,6.4898,6.4898,6.4898,6.4898,6.4898,6.4898,6.4898,6.4898,6.4898,6.4898,6.4898,6.4898,6.4898,6.4898,6.4898,6.4898,6.4898,6.4898,6.4898,6.4898,6.4898,6.4898,6.4898,6.4898,6.4898,6.5775,6.6769,6.7693,6.8908,6.9287,6.8794,6.9287,6.9686,6.9942,6.9942,6.9942,3.2545,3.374,3.5967,3.992,4.2142,0.0,0.0,4.965,5.0342,5.3753,5.3772,5.3715,5.5368,5.533,5.4973,0.0,0.0,0.0,0.0,0.0,0.0,0.0,0.0,0.0,0.0,6.4898,6.4898,6.4898,6.4898,6.4898,6.4898,6.4898,6.4898,6.4898,6.4898,6.4898,6.4898,6.4898,6.4898,6.4898,6.4898,6.4898,6.4898,6.4898,6.4898,6.4898,6.4898,6.4898,6.4898,6.4898,6.4898,6.4898,6.4898,6.4898,6.4898,6.4898,6.4898,6.4898,6.4898,6.4898,6.4898,6.4898,6.4898,6.4898,6.4898,6.4898,6.4898,6.4898,6.4898,6.4898,6.4898,6.4898,6.4898,6.4898,6.4898,6.4898,6.4898,6.4898,6.4898,6.4898,6.4898,6.4898,6.4898,6.4898,6.4898,6.4898,6.4898,6.4898,6.4898,6.4898,6.4898,6.4898,6.4898,6.4898,6.4898,6.4898,6.4898,6.4898,6.4898,6.5168,6.5586,6.6402,6.7237,6.811,6.9382,6.9753,6.9401,6.9753,6.9942,6.9942,6.9942,6.9942,3.1565,3.3473,3.6294,3.9284,4.2543,0.0,5.0015,5.0959,5.1983,5.5715,5.5995,5.6204,5.837,5.8636,5.7877,0.0,0.0,0.0,0.0,0.0,0.0,0.0,0.0,0.0,6.4638,6.4898,6.4898,6.4898,6.4898,6.4898,6.4898,6.4898,6.4898,6.4898,6.4898,6.4898,6.4898,6.4898,6.4898,6.4898,6.4898,6.4898,6.4898,6.4898,6.4898,6.4898,6.4898,6.4898,6.4898,6.4898,6.4898,6.4898,6.4898,6.4898,6.4898,6.4898,6.4898,6.4898,6.4898,6.4898,6.4898,6.4898,6.4898,6.4898,6.4898,6.4898,6.4898,6.4898,6.4898,6.4898,6.4898,6.4898,6.4898,6.4898,6.4898,6.4898,6.4898,6.4898,6.4898,6.4898,6.4898,6.4898,6.4898,6.4898,6.4898,6.4898,6.4898,6.4898,6.4898,6.4898,6.4898,6.4898,6.4898,6.4898,6.4898,6.4898,6.4898,6.4898,6.4898,6.5339,6.6256,6.7028,6.7883,6.8775,6.9591,6.9942,6.9942,6.9942,6.9942,6.9942,6.9942,6.9942,3.3433,3.4794,3.6831,4.2098,4.3756,0.0,5.2875,5.4443,5.5828,0.0,6.1676,6.1923,6.2871,6.2512,6.2148,0.0,0.0,0.0,0.0,0.0,0.0,0.0,0.0,0.0,6.4898,6.4898,6.4898,6.4898,6.4898,6.4898,6.4898,6.4898,6.4898,6.4898,6.4898,6.4898,6.4898,6.4898,6.4898,6.4898,6.4898,6.4898,6.4898,6.4898,6.4898,6.4898,6.4898,6.4898,6.4898,6.4898,6.4898,6.4898,6.4898,6.4898,6.4898,6.4898,6.4898,6.4898,6.4898,6.4898,6.4898,6.4898,6.4898,6.4898,6.4898,6.4898,6.4898,6.4898,6.4898,6.4898,6.4898,6.4898,6.4898,6.4898,6.4898,6.4898,6.4898,6.4898,6.4898,6.4898,6.4898,6.4898,6.4898,6.4898,6.4898,6.4898,6.4898,6.4898,6.4898,6.4898,6.4898,6.4898,6.4898,6.4898,6.4898,6.4898,6.4898,6.4898,6.4898,6.5339,6.6256,6.7028,6.7883,6.8775,6.9591,6.9942,6.9942,6.9942,6.9942,6.9942,6.9942,6.9942,3.4275,3.5301,3.7029,4.3116,0.0,0.0,5.3646,5.5354,5.7005,0.0,6.2131,6.234,6.4124,6.4181,6.4048,0.0,0.0,0.0,0.0,0.0,0.0,0.0,0.0,0.0,0.0,6.4898,6.4898,6.4898,6.4898,6.4898,6.4898,6.4898,6.4898,6.4898,6.4898,6.4898,6.4898,6.4898,6.4898,6.4898,6.4898,6.4898,6.4898,6.4898,6.4898,6.4898,6.4898,6.4898,6.4898,6.4898,6.4898,6.4898,6.4898,6.4898,6.4898,6.4898,6.4898,6.4898,6.4898,6.4898,6.4898,6.4898,6.4898,6.4898,6.4898,6.4898,6.4898,6.4898,6.4898,6.4898,6.4898,6.4898,6.4898,6.4898,6.4898,6.4898,6.4898,6.4898,6.4898,6.4898,6.4898,6.4898,6.4898,6.4898,6.4898,6.4898,6.4898,6.4898,6.4898,6.4898,6.4898,6.4898,6.4898,6.4898,6.4898,6.4898,6.4898,6.4898,6.4898,6.5339,6.6256,6.7028,6.7883,6.8775,6.9591,6.9942,6.9942,6.9942,6.9942,6.9942,6.9942,6.9942,3.4632,0.0,0.0,0.0,0.0,0.0,5.5846,5.7537,5.8961,6.2531,6.2719,6.2774,6.4575,6.4898,6.4898,6.4898,0.0,0.0,0.0,0.0,0.0,0.0,0.0,0.0,0.0,0.0,0.0,0.0,6.4898,6.4898,6.4898,6.4898,6.4898,6.4898,6.4898,6.4898,6.4898,6.4898,6.4898,6.4898,6.4898,6.4898,6.4898,6.4898,6.4898,6.4898,6.4898,6.4898,6.4898,6.4898,6.4898,6.4898,6.4898,6.4898,6.4898,6.4898,6.4898,6.4898,6.4898,6.4898,6.4898,6.4898,6.4898,6.4898,6.4898,6.4898,6.4898,6.4898,6.4898,6.4898,6.4898,6.4898,6.4898,6.4898,6.4898,6.4898,6.4898,6.4898,6.4898,6.4898,6.4898,6.4898,6.4898,6.4898,6.4898,6.4898,6.4898,6.4898,6.4898,6.4898,6.4898,6.4898,6.4898,6.4898,6.4898,6.4898,6.4898,6.4898,6.4898,6.5339,6.6256,6.7028,6.7883,6.8775,6.9591,6.9942,6.9942,6.9942,6.9942,6.9942,6.9942,6.9942,0.0,0.0,0.0,4.766,5.0735,5.3651,6.0753,6.2379,6.2892,6.4542,6.4822,6.4822,6.4898,6.4898,6.4898,6.4898,0.0,0.0,0.0,0.0,0.0,0.0,0.0,0.0,0.0,0.0,0.0,0.0,6.4898,6.4898,6.4898,6.4898,6.4898,6.4898,6.4898,6.4898,6.4898,6.4898,6.4898,6.4898,6.4898,6.4898,6.4898,6.4898,6.4898,6.4898,6.4898,6.4898,6.4898,6.4898,6.4898,6.4898,6.4898,6.4898,6.4898,6.4898,6.4898,6.4898,6.4898,6.4898,6.4898,6.4898,6.4898,6.4898,6.4898,6.4898,6.4898,6.4898,6.4898,6.4898,6.4898,6.4898,6.4898,6.4898,6.4898,6.4898,6.4898,6.4898,6.4898,6.4898,6.4898,6.4898,6.4898,6.4898,6.4898,6.4898,6.4898,6.4898,6.4898,6.4898,6.4898,6.4898,6.4898,6.4898,6.4898,6.4898,6.4898,6.4898,6.4898,6.5339,6.6256,6.7028,6.7883,6.8775,6.9591,6.9942,6.9942,6.9942,6.9942,6.9942,6.9942,6.9942,3.5694,3.9542,4.3899,4.909,5.4292,5.8717,6.112,6.2966,6.4295,6.4784,6.4898,6.4898,6.4898,6.4898,6.4898,6.4898,0.0,0.0,0.0,0.0,0.0,0.0,0.0,0.0,0.0,0.0,0.0,0.0,0.0,0.0,6.4898,6.4898,6.4898,6.4898,6.4898,6.4898,6.4898,6.4898,6.4898,6.4898,6.4898,6.4898,6.4898,6.4898,6.4898,6.4898,6.4898,6.4898,6.4898,6.4898,6.4898,6.4898,6.4898,6.4898,6.4898,6.4898,6.4898,6.4898,6.4898,6.4898,6.4898,6.4898,6.4898,6.4898,6.4898,6.4898,6.4898,6.4898,6.4898,6.4898,6.4898,6.4898,6.4898,6.4898,6.4898,6.4898,6.4898,6.4898,6.4898,6.4898,6.4898,6.4898,6.4898,6.4898,6.4898,6.4898,6.4898,6.4898,6.4898,6.4898,6.4898,6.4898,6.4898,6.4898,6.4898,6.4898,6.4898,6.4898,6.4898,6.5031,6.5377,6.6725,6.7598,6.7902,6.9287,6.9942,6.9942,6.9942,6.9942,6.9942,6.9942,6.9942,3.713,4.1045,4.5378,5.1574,5.6901,6.108,6.303,6.4712,6.5851,6.5851,6.5624,6.532,6.4955,6.4898,6.4898,6.4898,6.4898,0.0,0.0,0.0,0.0,0.0,0.0,0.0,0.0,0.0,0.0,0.0,0.0,6.4898,6.4898,6.4898,6.4898,6.4898,6.4898,6.4898,6.4898,6.4898,6.4898,6.4898,6.4898,6.4898,6.4898,6.4898,6.4898,6.4898,6.4898,6.4898,6.4898,6.4898,6.4898,6.4898,6.4898,6.4898,6.4898,6.4898,6.4898,6.4898,6.4898,6.4898,6.4898,6.4898,6.4898,6.4898,6.4898,6.4898,6.4898,6.4898,6.4898,6.4898,6.4898,6.4898,6.4898,6.4898,6.4898,6.4898,6.4898,6.4898,6.4898,6.4898,6.4898,6.4898,6.4898,6.4898,6.4898,6.4898,6.4898,6.4898,6.4898,6.4898,6.4898,6.4898,6.4898,6.4898,6.4898,6.4898,6.4898,6.4898,6.5263,6.5415,6.5415,6.7028,6.7939,6.7939,6.9306,6.9942,6.9942,6.9942,6.9942,6.9942,6.9942,6.9942,3.874,4.1378,4.4922,5.4862,5.8622,6.1165,6.6251,6.7408,6.7446,6.7446,6.6864,6.6028,6.513,6.4898,6.4898,6.4898,6.4898,0.0,0.0,0.0,0.0,0.0,0.0,0.0,0.0,0.0,0.0,0.0,6.4898,6.4898,6.4898,6.4898,6.4898,6.4898,6.4898,6.4898,6.4898,6.4898,6.4898,6.4898,6.4898,6.4898,6.4898,6.4898,6.4898,6.4898,6.4898,6.4898,6.4898,6.4898,6.4898,6.4898,6.4898,6.4898,6.4898,6.4898,6.4898,6.4898,6.4898,6.4898,6.4898,6.4898,6.4898,6.4898,6.4898,6.4898,6.4898,6.4898,6.4898,6.4898,6.4898,6.4898,6.4898,6.4898,6.4898,6.4898,6.4898,6.4898,6.4898,6.4898,6.4898,6.4898,6.4898,6.4898,6.4898,6.4898,6.4898,6.4898,6.4898,6.4898,6.4898,6.4898,6.4898,6.4898,6.4898,6.4898,6.4898,6.4898,6.5718,6.6256,6.6294,6.7845,6.8756,6.8794,6.9591,6.9942,6.9942,6.9942,6.9942,6.9942,6.9942,6.9942,3.9733,4.5467,5.0879,5.6501,6.1296,6.491,6.6257,6.7009,6.7446,6.7446,6.6864,6.6028,6.513,6.4898,6.4898,6.4898,6.4898,6.4898,0.0,0.0,0.0,0.0,0.0,0.0,0.0,0.0,0.0,0.0,6.4898,6.4898,6.4898,6.4898,6.4898,6.4898,6.4898,6.4898,6.4898,6.4898,6.4898,6.4898,6.4898,6.4898,6.4898,6.4898,6.4898,6.4898,6.4898,6.4898,6.4898,6.4898,6.4898,6.4898,6.4898,6.4898,6.4898,6.4898,6.4898,6.4898,6.4898,6.4898,6.4898,6.4898,6.4898,6.4898,6.4898,6.4898,6.4898,6.4898,6.4898,6.4898,6.4898,6.4898,6.4898,6.4898,6.4898,6.4898,6.4898,6.4898,6.4898,6.4898,6.4898,6.4898,6.4898,6.4898,6.4898,6.4898,6.4898,6.4898,6.4898,6.4898,6.4898,6.4898,6.4898,6.4898,6.4898,6.4898,6.4898,6.4898,6.5106,6.5567,6.6275,6.7237,6.811,6.8794,6.9591,6.9942,6.9942,6.9942,6.9942,6.9942,6.9942,6.9942,3.7077,4.5015,5.2946,5.7713,6.2316,6.5775,6.6218,6.6655,6.6914,6.6914,6.6617,6.6142,6.5605,6.5225,6.4898,6.4898,6.4898,6.4898,0.0,0.0,0.0,0.0,0.0,0.0,0.0,0.0,0.0,0.0,6.4898,6.4898,6.4898,6.4898,6.4898,6.4898,6.4898,6.4898,6.4898,6.4898,6.4898,6.4898,6.4898,6.4898,6.4898,6.4898,6.4898,6.4898,6.4898,6.4898,6.4898,6.4898,6.4898,6.4898,6.4898,6.4898,6.4898,6.4898,6.4898,6.4898,6.4898,6.4898,6.4898,6.4898,6.4898,6.4898,6.4898,6.4898,6.4898,6.4898,6.4898,6.4898,6.4898,6.4898,6.4898,6.4898,6.4898,6.4898,6.4898,6.4898,6.4898,6.4898,6.4898,6.4898,6.4898,6.4898,6.4898,6.4898,6.4898,6.4898,6.4898,6.4898,6.4898,6.4898,6.4898,6.4898,6.4898,6.4898,6.4898,6.4898,6.532,6.5889,6.6788,6.7598,6.8452,6.9325,6.9781,6.9942,6.9942,6.9942,6.9942,6.9942,6.9942,6.9942,3.3429,4.2291,5.2194,5.8317,6.2398,6.5168,6.5889,6.6218,6.6294,6.6294,6.6123,6.5971,6.5971,6.5301,6.4746,6.4746,6.4841,6.4898,6.4898,0.0,0.0,0.0,0.0,0.0,0.0,0.0,0.0,0.0,6.4898,6.4898,6.4898,6.4898,6.4898,6.4898,6.4898,6.4898,6.4898,6.4898,6.4898,6.4898,6.4898,6.4898,6.4898,6.4898,6.4898,6.4898,6.4898,6.4898,6.4898,6.4898,6.4898,6.4898,6.4898,6.4898,6.4898,6.4898,6.4898,6.4898,6.4898,6.4898,6.4898,6.4898,6.4898,6.4898,6.4898,6.4898,6.4898,6.4898,6.4898,6.4898,6.4898,6.4898,6.4898,6.4898,6.4898,6.4898,6.4898,6.4898,6.4898,6.4898,6.4898,6.4898,6.4898,6.4898,6.4898,6.4898,6.4898,6.4898,6.4898,6.4898,6.4898,6.4898,6.4898,6.4898,6.4898,6.4898,6.4898,6.4898,6.5662,6.6541,6.7408,6.8205,6.9059,6.9924,6.9942,6.9942,6.9942,6.9942,6.9942,6.9942,6.9942,6.9942,3.4432,4.0867,4.9741,5.7877,6.2398,6.4936,6.5149,6.5718,6.6294,6.6294,6.5192,6.4181,6.4181,6.4067,6.3953,6.3953,6.4523,6.4898,6.4898,6.4898,0.0,0.0,0.0,0.0,0.0,0.0,0.0,0.0,0.0,6.4898,6.4898,6.4898,6.4898,6.4898,6.4898,6.4898,6.4898,6.4898,6.4898,6.4898,6.4898,6.4898,6.4898,6.4898,6.4898,6.4898,6.4898,6.4898,6.4898,6.4898,6.4898,6.4898,6.4898,6.4898,6.4898,6.4898,6.4898,6.4898,6.4898,6.4898,6.4898,6.4898,6.4898,6.4898,6.4898,6.4898,6.4898,6.4898,6.4898,6.4898,6.4898,6.4898,6.4898,6.4898,6.4898,6.4898,6.4898,6.4898,6.4898,6.4898,6.4898,6.4898,6.4898,6.4898,6.4898,6.4898,6.4898,6.4898,6.4898,6.4898,6.4898,6.4898,6.4898,6.4898,6.4898,6.4898,6.4898,6.4898,6.5111,6.587,6.7389,6.7598,6.8414,6.9924,6.9942,6.9942,6.9942,6.9942,6.9942,6.9942,6.9942,6.9942,3.4734,3.9437,4.5062,5.1595,5.7744,6.2256,6.2256,6.3989,6.4122,5.9102,6.1403,6.3488,6.0745,6.2161,6.3744,6.3744,6.4086,6.4485,6.4841,6.4898,0.0,0.0,0.0,0.0,0.0,0.0,0.0,0.0,0.0,6.5168,6.5605,6.5206,6.5106,6.5605,6.5206,6.4898,6.4898,6.4898,6.4898,6.4898,6.4898,6.4898,6.4898,6.4898,6.4898,6.4917,6.5434,6.5377,6.4898,6.4898,6.4898,6.4898,6.4898,6.4898,6.4898,6.4898,6.4898,6.4898,6.4898,6.4898,6.4898,6.4898,6.4898,6.4898,6.4898,6.4898,6.4898,6.4898,6.4898,6.4898,6.4898,6.4898,6.4898,6.4898,6.4898,6.4898,6.4898,6.4898,6.4898,6.4898,6.4898,6.4898,6.4898,6.4898,6.4898,6.4898,6.4898,6.4898,6.4898,6.4898,6.4898,6.4898,6.4898,6.4898,6.4898,6.4898,6.4898,6.4898,6.4898,6.5718,6.737,6.7446,6.8262,6.9924,6.9942,6.9942,6.9942,6.9942,6.9942,6.9942,6.9942,6.9942,3.2638,3.6579,4.0409,4.4996,5.1722,5.7446,5.804,6.0368,6.0427,5.3548,5.8093,6.2251,5.8812,6.0958,6.3213,6.3213,6.3516,6.3972,6.4617,6.4864,6.4974,0.0,0.0,0.0,0.0,0.0,0.0,0.0,0.0,0.0,6.599,6.532,6.5282,6.5946,6.532,6.4898,6.4898,6.4898,6.4898,0.0,6.4898,6.4898,6.4898,6.4898,6.4898,6.4955,6.587,6.5851,6.5263,6.5372,6.5239,6.4917,6.5168,6.513,6.4898,6.4898,6.4898,6.4898,6.4898,6.4898,6.4898,6.4898,6.4898,6.4898,6.4898,6.4898,6.4898,6.4898,6.4898,6.4898,6.4898,6.4898,6.4898,6.4898,6.4898,6.4898,6.4898,6.4898,6.4898,6.4898,6.4898,6.4898,6.4898,6.4898,6.4898,6.4898,6.4898,6.4898,6.4898,6.4898,6.4898,6.4898,6.4898,6.4898,6.4898,6.4898,6.4898,6.4898,6.4898,6.5718,6.737,6.7446,6.8262,6.9924,6.9942,6.9942,6.9942,6.9942,6.9933,6.9743,6.9743,6.9743,2.5488,3.0478,3.7429,4.1976,4.6021,4.9623,5.22,5.3487,5.4783,5.699,5.7741,5.8856,6.1588,6.1727,6.1485,6.1485,6.2757,6.3763,6.3839,6.4504,6.5263,6.6085,0.0,0.0,0.0,0.0,0.0,0.0,0.0,0.0,0.0,6.4955,6.4936,6.5012,6.4955,6.4898,6.4898,6.4898,6.4898,6.4898,6.4898,6.4898,6.4898,6.4898,6.4898,6.4955,6.587,6.6256,6.6237,6.6914,6.6326,6.4974,6.5813,6.5643,6.4898,6.4898,6.4898,6.4898,6.4898,6.4898,6.4898,6.4898,6.4898,6.4898,6.4898,6.4898,6.4898,6.4898,6.4898,6.4898,6.4898,6.4898,6.4898,6.4898,6.4898,6.4898,6.4898,6.4898,6.4898,6.4898,6.4898,6.4898,6.4898,6.4898,6.4898,6.4898,6.4898,6.4898,6.4898,6.4898,6.4898,6.4898,6.4898,6.4898,6.4898,6.4898,6.4898,6.4898,6.4898,6.5718,6.737,6.7446,6.8262,6.9924,6.9942,6.9942,6.9942,6.9942,6.9648,6.8908,6.8908,6.8908,2.4455,2.9558,3.502,3.6527,4.0069,4.417,4.7779,4.6919,4.6286,4.9664,5.6162,6.0616,5.872,5.9929,6.137,6.1941,6.215,6.2776,6.4276,6.5206,6.5662,6.5491,6.6838,0.0,0.0,0.0,0.0,0.0,0.0,0.0,0.0,6.6288,6.6212,6.7237,6.6269,6.5718,6.5718,6.5718,6.5472,6.4898,6.4898,6.4898,6.4917,6.5491,6.5718,6.5775,6.6611,6.6971,6.699,6.7313,6.6478,6.5054,6.5971,6.5718,6.4898,6.4898,6.4898,6.4898,6.4898,6.4898,6.4898,6.4898,6.4898,6.4898,6.4898,6.4898,6.4898,6.4898,6.4898,6.4898,6.4898,6.4898,6.4898,6.4898,6.4898,6.4898,6.4898,6.4898,6.4898,6.4898,6.4898,6.4898,6.4898,6.4898,6.4898,6.4898,6.4898,6.4898,6.4898,6.4898,6.4898,6.4898,6.4898,6.4898,6.4898,6.4898,6.4898,6.4898,6.4898,6.5718,6.737,6.7446,6.8262,6.9924,6.9942,6.9942,6.9942,6.9942,6.9591,6.8794,6.8794,6.8794,2.2001,2.7018,3.1559,3.0438,3.43,3.9201,4.2576,4.1202,4.0398,4.4597,5.4012,6.0276,5.6119,5.8143,6.0459,6.0271,6.0851,6.1996,6.4295,6.532,6.5718,6.5377,6.6933,6.756,0.0,0.0,0.0,0.0,0.0,0.0,0.0,6.7256,6.7206,6.8357,6.7282,6.6541,6.6294,6.6294,6.5794,6.4898,6.4898,6.4898,6.4936,6.5914,6.6294,6.6351,6.737,6.7864,6.7864,6.7864,6.6857,6.5396,6.6066,6.5718,6.4898,6.4898,6.4898,6.4898,6.4898,6.4898,6.4898,6.4898,6.4898,6.4898,6.4898,6.4898,6.4898,6.4898,6.4898,6.4898,6.4898,6.4898,6.4898,6.4898,6.4898,6.4898,6.4898,6.4898,6.4898,6.4898,6.4898,6.4898,6.4898,6.4898,6.4898,6.4898,6.4898,6.4898,6.4898,6.4898,6.4898,6.4898,6.4898,6.4898,6.4898,6.4898,6.4898,6.4898,6.4898,6.5718,6.737,6.7446,6.8262,6.9924,6.9942,6.9829,6.9648,6.9829,6.9458,6.8414,6.868,6.8794,1.6522,2.1276,2.6516,2.403,2.8707,3.4328,3.6045,3.6653,3.8505,4.4634,5.1402,5.5958,5.4984,5.6931,5.7861,5.5283,5.8446,6.1846,6.3516,6.4466,6.5282,6.618,6.6294,6.6313,6.6294,0.0,0.0,0.0,0.0,0.0,0.0,6.7446,6.7446,6.7465,6.7446,6.7047,6.6294,6.6294,6.5794,6.4898,6.4898,6.4898,6.4936,6.5914,6.6294,6.6389,6.8034,6.8794,6.8794,6.8794,6.7769,6.6275,6.6294,6.5718,6.4898,6.4898,6.4898,6.4898,6.4898,6.4898,6.4898,6.4898,6.4898,6.4898,6.4898,6.4898,6.4898,6.4898,6.4898,6.4898,6.4898,6.4898,6.4898,6.4898,6.4898,6.4898,6.4898,6.4898,6.4898,6.4898,6.4898,6.4898,6.4898,6.4898,6.4898,6.4898,6.4898,6.4898,6.4898,6.4898,6.4898,6.4898,6.4898,6.4898,6.4898,6.4898,6.4898,6.4898,6.4898,6.5718,6.737,6.7446,6.8262,6.9924,6.9942,6.961,6.8813,6.9629,6.9135,6.7484,6.8376,6.8794,1.5531,1.9352,2.3965,2.5696,2.9135,3.1925,3.1305,3.5572,3.9816,4.0419,4.4924,5.0071,5.4301,5.856,6.1253,6.0978,6.1583,6.27,6.4291,6.5301,6.551,6.4636,6.6022,6.663,6.5472,0.0,0.0,0.0,0.0,0.0,0.0,6.7788,6.7977,6.9173,6.8661,6.8243,6.7996,6.737,6.6649,6.5832,6.5832,6.5832,6.5851,6.6687,6.6763,6.6389,6.8053,6.8452,6.7826,6.7275,6.7047,6.7009,6.6522,6.5718,6.4898,6.4898,6.4898,6.4898,6.4898,6.4898,6.4898,6.4898,6.4898,6.4898,6.4898,6.4898,6.4898,6.4898,6.4898,6.4898,6.4898,6.4898,6.4898,6.4898,6.4898,6.4898,6.4898,6.4898,6.4898,6.4898,6.4898,6.4898,6.4898,6.4898,6.4898,6.4898,6.4898,6.4898,6.4898,6.4898,6.4898,6.4898,6.4898,6.4898,6.4898,6.4898,6.4898,6.4898,6.551,6.6326,6.7408,6.8053,6.8889,6.9924,6.9942,6.9829,6.9629,6.9829,6.9458,6.8376,6.8661,6.8794,1.5471,1.8427,2.239,2.4752,2.6401,2.7974,2.9929,3.3967,3.7424,3.7632,4.1122,4.6272,5.3021,5.8283,6.1535,6.1359,6.2032,6.3158,6.4731,6.5415,6.5358,6.4333,6.5567,6.6098,6.5012,6.6193,0.0,0.0,0.0,0.0,6.8262,6.775,6.7939,6.9003,6.8566,6.83,6.83,6.7731,6.7199,6.6769,6.6769,6.6598,6.6332,6.7427,6.7503,6.6845,6.8509,6.8946,6.8357,6.7541,6.7294,6.737,6.6617,6.5718,6.4898,6.4898,6.4898,6.4898,6.4898,6.4898,6.4898,6.4898,6.4898,6.4898,6.4898,6.4898,6.4898,6.4898,6.4898,6.4898,6.4898,6.4898,6.4898,6.4898,6.4898,6.4898,6.4898,6.4898,6.4898,6.4898,6.4898,6.4898,6.4898,6.4898,6.4898,6.4898,6.4898,6.4898,6.4898,6.4898,6.4898,6.4898,6.4898,6.4898,6.4898,6.4898,6.4898,6.4898,6.5453,6.6117,6.6952,6.7522,6.8224,6.904,6.904,6.904,6.904,6.904,6.8965,6.8794,6.8452,6.8471,1.6107,1.8109,2.1323,2.2079,2.205,2.3775,3.1137,3.2197,3.2533,3.5636,3.9176,4.3773,5.0558,5.5532,5.8323,5.74,6.0317,6.3156,6.4613,6.4879,6.4879,6.4822,6.4879,6.4879,6.4822,6.5643,6.6199,0.0,0.0,0.0,6.737,6.737,6.7389,6.7446,6.7446,6.7446,6.7446,6.7446,6.7446,6.7446,6.7389,6.6971,6.6351,6.7958,6.8243,6.7541,6.9211,6.9829,6.9781,6.8946,6.8072,6.7199,6.6503,6.5662,6.4898,6.4898,6.4898,6.4898,6.4898,6.4898,6.4898,6.4898,6.4898,6.4898,6.4898,6.4898,6.4898,6.4898,6.4898,6.4898,6.4898,6.4898,6.4898,6.4898,6.4898,6.4898,6.4898,6.4898,6.4898,6.4898,6.4898,6.4898,6.4898,6.4898,6.4898,6.4898,6.4898,6.4898,6.4898,6.4898,6.4898,6.4898,6.4898,6.4898,6.4898,6.4898,6.4898,6.4898,6.4955,6.5415,6.6256,6.6408,6.6845,6.7522,6.7598,6.7598,6.7541,6.7541,6.7939,6.868,6.7845,6.7939,1.5643,1.6203,1.8358,2.4116,2.6753,2.8361,3.0249,3.2858,3.3993,3.0889,3.3051,3.7105,4.2213,4.4124,4.7416,5.503,6.0351,6.3592,6.3972,6.458,6.4731,6.4105,6.4519,6.467,6.4086,6.4769,6.5263,6.5263,0.0,0.0,6.6541,6.6579,6.6801,6.7427,6.7446,6.7446,6.7446,6.7446,6.7446,6.7446,6.682,6.6484,6.6332,6.7294,6.7655,6.7503,6.8604,6.8699,6.7977,6.7161,6.6326,6.5529,6.5339,6.5149,6.4898,6.4898,6.4898,6.4898,6.4898,6.4898,6.4898,6.4898,6.4898,6.4898,6.4898,6.4898,6.4898,6.4898,6.4898,6.4898,6.4898,6.4898,6.4898,6.4898,6.4898,6.4898,6.4898,6.4898,6.4898,6.4898,6.4898,6.4898,6.4898,6.4898,6.4898,6.4898,6.4898,6.4898,6.4898,6.4898,6.4898,6.4898,6.4898,6.4898,6.4898,6.4898,6.4898,6.4898,6.5586,6.6085,6.6294,6.7567,6.8281,6.849,6.9097,6.9097,6.849,6.849,6.8243,6.7769,6.7541,6.7939,1.8995,1.9164,2.0585,2.5856,2.6951,2.7183,2.8632,3.0466,3.1066,2.823,3.0509,3.4349,3.8783,4.1682,4.5259,5.1115,5.5773,5.9182,6.0687,6.1922,6.2681,6.2624,0.0,6.4371,6.4314,6.4651,6.4898,6.4898,6.4898,0.0,6.5624,6.5643,6.5851,6.6307,6.6307,6.6497,6.6876,6.6876,6.6876,6.6876,6.682,6.6655,6.6332,6.7085,6.7256,6.6933,0.0,6.8129,6.7977,6.6744,6.6174,6.6022,6.5263,6.4898,6.4898,6.4898,6.4898,6.4898,6.4898,6.4898,6.4898,6.4898,6.4898,6.4898,6.4898,6.4898,6.4898,6.4898,6.4898,6.4822,6.4504,6.4409,6.4314,6.3934,6.3839,6.3839,6.3839,6.3839,6.3839,6.3839,6.3839,6.3839,6.3839,6.3839,6.3839,6.3839,6.3839,6.3839,6.3839,6.3839,6.3839,6.3839,6.3839,6.3991,6.4371,6.4409,6.4561,6.4879,6.5054,6.5092,6.5092,6.5984,6.6649,6.7028,6.7401,6.7674,6.7617,6.7237,6.718,6.7427,6.6668,6.6971,2.3803,2.4504,2.5897,2.8202,2.6518,2.5022,2.7645,2.7898,2.7583,2.7583,3.0081,3.3315,3.6974,4.1504,4.5184,4.6852,4.9453,5.2706,5.6776,5.8885,6.0308,6.0992,6.2662,6.4029,6.4651,6.4822,6.4898,6.4898,6.4898,6.4898,6.4898,6.4898,6.4898,6.4898,6.4898,6.532,6.6104,6.6104,6.6104,6.6104,6.6744,6.6706,6.6142,6.6876,6.6876,6.6332,0.0,6.7807,6.8281,6.6769,6.6364,6.6744,6.5339,6.4788,6.4788,6.486,6.4898,6.4898,6.4898,6.4898,6.4898,6.4898,6.4898,6.4898,6.4898,6.4898,6.4841,6.4613,6.4599,6.4428,6.3744,6.3554,6.3384,6.2759,6.2588,6.2588,6.2588,6.2588,6.2588,6.2588,6.2588,6.2588,6.2588,6.2588,6.2588,6.2588,6.2588,6.2588,6.2588,6.2588,6.2588,6.2588,6.2588,6.2873,6.3498,6.3668,6.3991,6.4561,6.3953,6.3554,6.3554,6.3554,6.3953,6.4708,6.4841,6.532,6.6104,6.532,6.5681,6.7028,6.5562,6.5794,2.6783,2.9435,3.2882,3.3321,3.1478,2.9699,3.0171,3.0212,3.0149,3.0149,3.058,3.1166,3.185,3.3089,3.657,4.4336,4.5307,4.7762,5.5326,5.8505,6.01,6.0213,6.2321,6.3801,6.3934,6.4561,6.4898,6.4898,6.4898,6.4898,6.4898,6.4898,6.4898,6.4898,6.4898,6.4955,6.5168,6.5168,6.5168,6.5168,6.5282,6.5282,6.5187,6.6022,6.6408,6.6332,0.0,0.0,6.6617,6.5567,6.4826,6.4295,6.4029,6.3934,6.401,6.4651,6.4898,6.4898,6.4898,6.4898,6.4898,6.4898,6.4898,6.4898,6.4898,6.4898,6.4674,6.3348,6.2968,6.293,6.2816,6.2778,6.274,6.2626,6.2588,6.2588,6.2588,6.2588,6.2588,6.2588,6.2588,6.2588,6.2588,6.2588,6.2588,6.2588,6.2588,6.2588,6.2588,6.2588,6.2588,6.2588,6.2588,6.2645,6.2759,6.3346,6.3498,6.3006,6.2854,6.2778,6.2778,6.2778,6.3158,6.3915,6.4617,6.4974,6.5168,6.4955,6.5031,6.5339,6.5012,6.5491,3.3137,3.6333,3.9079,3.5339,3.3528,3.2356,3.1038,3.0728,3.0728,3.0728,3.0728,3.0819,3.1177,3.3043,3.5363,3.7945,4.2196,4.6218,4.9051,5.4757,5.8883,5.9264,6.1144,6.2586,0.0,6.382,6.4314,6.4314,6.4712,6.4898,6.4898,6.4898,6.4898,6.4898,6.4898,6.4898,6.4898,6.4898,6.4689,6.4314,6.475,6.4731,6.4333,6.5168,6.5548,0.0,0.0,0.0,6.6161,6.4352,6.3953,6.4314,6.3441,6.3139,6.3196,6.3498,6.3934,6.4238,6.3801,6.3934,6.4238,6.3801,6.3649,6.3649,6.3649,6.3649,6.3498,6.2797,6.2588,6.2493,6.196,6.1846,6.1732,6.1353,6.1239,6.1239,6.1239,6.1239,6.1239,6.1239,6.1239,6.1239,6.1239,6.1239,6.1239,6.1239,6.1239,6.1239,6.1239,6.1239,6.1239,6.1239,6.1239,6.1371,6.1808,6.2188,6.2055,6.1239,6.1599,6.1656,6.1277,6.1618,6.2017,6.2397,6.3213,6.3649,6.3649,6.3649,6.3649,6.3649,6.3649,6.4086,4.0827,0.0,4.3842,3.7734,3.5582,3.4335,0.0,3.091,3.0728,3.0728,3.0728,3.0858,3.1393,3.3644,3.5119,3.3991,3.9956,4.4828,4.522,5.151,5.6527,5.7689,5.934,6.0707,6.16,6.2738,6.346,6.346,6.4029,6.4485,6.4613,6.4674,6.4708,6.4898,6.4788,6.4708,6.4898,6.4898,6.4655,6.4029,6.4466,6.4352,6.3763,6.439,6.458,0.0,0.0,0.0,6.5268,6.3158,6.2966,6.3912,6.2719,6.2284,6.2322,6.2512,6.2987,6.3365,6.2816,6.3006,6.3365,6.2797,6.2588,6.2588,6.2588,6.2322,6.1999,6.1999,6.1999,6.1847,6.1144,6.0973,6.0821,6.0194,6.0043,6.0043,6.0043,6.0043,6.0043,6.0043,6.0043,6.0043,6.0043,6.0043,6.0043,6.0043,6.0043,6.0043,6.0043,6.0043,6.0043,6.0043,6.0043,6.0308,6.0916,6.0973,6.0707,6.01,6.0631,6.0707,6.0062,6.065,6.0973,6.0973,6.1618,6.1999,6.1999,6.2208,6.2398,6.2588,6.2588,6.2911,0.0,4.8449,4.6176,4.2523,3.9155,3.6005,3.301,3.148,0.0,3.0728,3.0728,3.0741,3.0767,3.0991,3.2604,3.6991,3.878,4.1946,4.8733,5.0888,5.2651,5.4974,5.6774,5.8123,5.8885,6.1239,6.2683,6.2683,6.274,6.3101,6.3801,6.3839,6.4181,6.4879,6.4238,6.42,6.4898,6.4898,6.4879,6.4803,6.4162,6.3801,6.3744,6.3801,6.3422,0.0,0.0,6.3384,0.0,6.1751,6.137,6.1446,6.1351,6.1352,6.1447,6.2303,6.2626,6.2664,6.2607,6.2626,6.2664,6.2607,6.2588,6.2588,6.2588,6.1505,6.0232,6.0232,6.0232,6.0213,6.0157,6.0138,6.0119,6.0062,6.0043,6.0043,6.0043,6.0043,6.0043,6.0043,6.0043,6.0043,6.0043,6.0043,6.0043,6.0043,6.0043,6.0043,6.0043,6.0043,6.0043,6.0043,6.0043,6.0062,6.0119,6.0138,6.0119,6.0043,6.01,6.01,6.0043,6.01,6.0138,6.0138,6.0194,6.0232,6.0232,6.0992,6.1751,6.2588,6.2588,6.2626,5.2522,5.1827,4.9557,4.3666,4.1197,3.8819,3.3629,3.209,3.1584,3.0871,3.0728,3.0728,3.0728,3.0728,3.1458,3.3749,3.6889,4.0899,4.6161,5.0361,5.4,5.6948,5.6948,5.7442,5.9359,5.951,6.0099,6.1618,6.2284,6.2721,6.3025,6.3063,6.289,6.2603,6.2359,6.234,6.2662,6.3687,6.3953,6.3441,6.3649,6.3479,6.3063,6.3063,6.2873,0.0,0.0,6.2321,0.0,6.1068,6.0802,6.122,6.0707,6.0517,6.0555,6.0935,6.1314,6.1675,6.122,6.1314,6.1656,6.1144,6.1049,6.1049,6.1049,6.0536,6.0043,6.0043,6.0043,6.0043,6.0043,6.0043,6.0043,6.0043,6.0043,6.0043,6.0043,6.0043,6.0043,6.0043,6.0043,6.0043,6.0043,6.0043,6.0043,6.0043,6.0043,6.0043,6.0043,6.0043,6.0043,6.0043,6.0043,6.0043,6.0043,6.0043,6.027,6.0783,6.0802,6.0802,6.0802,6.0802,6.0574,6.0062,6.0043,6.0043,6.0043,6.0365,6.0669,6.1049,6.1049,6.1049,5.4349,5.4287,5.2342,4.5237,4.3181,4.1197,3.4533,3.2735,3.2151,3.0962,3.0728,3.0728,3.0728,3.0728,3.1123,3.2357,3.5981,4.0335,4.5087,4.9957,5.4076,5.6869,5.6588,5.6797,5.8296,5.8408,5.8999,6.0745,6.1428,6.1923,6.2112,6.1942,6.1599,6.1277,6.12,6.139,6.1675,6.2529,6.2681,6.2189,6.215,6.1846,6.1391,6.1676,6.1638,0.0,0.0,6.1447,0.0,6.0517,6.0384,6.0821,6.027,6.0043,6.0043,6.0043,6.0403,6.0802,6.0232,6.0403,6.0783,6.0232,6.0043,6.0043,6.0043,6.0043,6.0043,6.0043,6.0043,6.0043,6.0043,6.0043,6.0043,6.0043,6.0043,5.9967,5.9682,5.9625,5.9549,5.9283,5.9282,5.9282,5.9282,5.9282,5.9282,5.9282,5.9282,5.9282,5.9282,5.9473,5.9625,5.9625,5.9872,5.9834,5.9339,5.9282,5.9587,6.0403,6.0726,6.0878,6.0878,6.1067,6.0878,6.0062,6.0043,6.0043,6.0043,6.0043,6.0043,6.0043,6.0043,6.0043,5.545,5.5798,5.4251,4.7899,4.5422,4.2719,3.585,3.3343,3.2164,3.0962,3.0728,3.0728,3.0728,3.0728,3.1498,3.3982,3.6371,4.0183,4.6663,4.9739,5.1986,5.3658,5.524,5.5904,5.5069,5.8049,6.0043,6.0043,6.0043,0.0,6.1143,6.0479,6.0403,6.1201,6.1181,6.1637,6.2512,6.1656,6.1181,6.1162,5.9511,5.8695,5.8733,5.9625,5.953,5.8771,0.0,6.0764,0.0,6.0043,6.0043,6.0043,6.0043,6.0043,6.0043,6.0043,6.0043,6.0043,6.0043,6.0043,6.0043,6.0043,6.0043,6.0043,6.0043,6.0043,6.0043,6.0043,6.0043,6.0043,6.0043,6.0024,6.0024,6.0024,6.0024,5.9777,5.8885,5.8676,5.8448,5.7686,5.7534,5.7534,5.7534,5.7534,5.7534,5.7534,5.7534,5.7534,5.7534,5.8237,5.8676,5.8676,5.9492,5.9396,5.7686,5.7534,5.7876,5.8638,5.9549,6.0043,6.0043,6.0821,6.0859,6.0043,6.0024,6.0043,6.0043,6.0043,6.0043,6.0043,6.0043,6.0043,5.6028,5.5737,5.4291,5.0382,4.7555,4.4262,3.8545,3.5396,3.3125,3.113,3.0728,3.0728,3.0728,3.0728,3.0946,3.1668,3.6224,4.0782,4.3868,4.9406,5.3715,5.5297,5.6455,5.6375,5.438,5.7138,5.9359,6.0005,6.0043,6.0157,6.0384,5.9568,5.8942,5.8674,5.915,5.9018,5.8087,5.9625,6.0081,5.9454,5.8942,5.8695,5.8695,5.8427,5.8142,5.7914,5.8427,5.879,0.0,5.9093,5.9473,6.0043,6.0043,6.0043,6.0043,6.0043,6.0043,6.0043,6.0043,6.0043,6.0043,6.0043,6.0043,6.0043,6.0043,6.0043,6.0043,6.0043,6.0043,5.9891,5.9264,5.8731,5.8294,5.8294,5.8294,5.8218,5.7952,5.7895,5.7819,5.7572,5.7534,5.7534,5.7534,5.7534,5.7534,5.7534,5.7534,5.7534,5.7534,5.7743,5.7895,5.7895,5.8142,5.8085,5.7572,5.7534,5.7876,5.8638,5.9549,5.9758,5.9131,5.9948,5.972,5.8332,5.8809,5.9093,5.9093,5.9739,6.0043,6.0043,6.0043,6.0043,5.56,5.5464,5.4331,5.144,4.8461,4.4927,3.9686,3.6263,3.3527,3.1195,3.0728,3.0858,3.1312,3.1027,3.1195,3.2564,3.5738,3.9529,4.3761,4.812,5.207,5.5344,5.6455,5.6398,5.4898,5.6854,5.8484,5.9035,5.9321,5.9359,5.9092,5.8505,5.8047,5.7553,5.8277,5.822,5.7214,5.841,5.8807,5.8201,5.7537,5.7233,5.7214,5.7043,5.6967,5.6986,5.7382,5.7819,0.0,5.8201,5.8598,5.9073,5.9073,5.9073,5.9111,5.9378,5.9511,5.9568,5.9929,6.0043,6.0043,6.0043,5.9643,5.9073,5.9073,5.9073,5.9073,5.9073,5.9073,5.8959,5.8353,5.7895,5.7534,5.7534,5.7534,5.7439,5.7043,5.6967,5.6873,5.6603,5.6546,5.6546,5.6546,5.6546,5.6546,5.6546,5.6546,5.6546,5.6546,5.6778,5.6967,5.6967,5.6736,5.6546,5.6546,5.6546,5.704,5.8144,5.9037,5.9435,5.9245,5.9758,5.9453,5.8047,5.818,5.8201,5.8201,5.8752,5.9073,5.9092,5.9359,5.9511,5.4264,5.486,5.4402,5.1775,4.8675,4.4981,4.0041,3.6466,3.3527,3.1195,3.0728,3.1065,3.2255,3.1584,3.1936,3.5278,3.5347,3.7507,4.4831,4.6223,4.837,5.3612,5.5093,5.5545,5.5279,5.6585,5.7312,5.7022,5.8016,5.8239,5.7458,5.7496,5.7496,5.742,5.8144,5.8505,5.8353,5.7667,5.7306,5.7287,5.5691,5.4917,5.5012,5.5753,5.6041,5.6098,5.6983,5.7344,0.0,5.742,5.7458,5.7534,5.7534,5.7534,5.7629,5.8315,5.8581,5.8695,5.953,5.9815,5.9815,5.9815,5.8807,5.7534,5.7534,5.7534,5.7534,5.7534,5.7534,5.7515,5.7439,5.742,5.7401,5.7325,5.7306,5.7097,5.6265,5.6041,5.5885,5.5145,5.4993,5.4974,5.4898,5.4879,5.4879,5.4879,5.4879,5.4936,5.5088,5.5696,5.6041,5.6041,5.5449,5.4993,5.4993,5.4993,5.5653,5.7116,5.8104,5.8847,5.9435,5.9682,5.9359,5.8372,5.7708,5.742,5.742,5.7496,5.7534,5.7553,5.8239,5.8581,5.1932,5.3549,5.487,5.4227,5.015,4.5514,4.2626,3.7966,3.3527,3.1195,3.0728,3.1065,3.2255,3.2219,3.2621,3.4309,3.7067,3.9589,4.1311,4.4283,4.675,4.7965,5.0343,5.098,4.8588,5.3279,5.5546,5.3298,5.604,5.742,5.6531,5.7173,5.723,5.6493,5.7309,5.7173,5.5809,5.562,5.5577,5.5506,5.457,5.4418,5.5012,5.5183,5.5259,5.5259,5.5449,5.5885,5.6493,5.6493,5.6873,5.7534,5.7534,5.7534,5.7553,5.7743,5.78,5.7819,5.8009,5.8085,5.8085,5.8085,5.7838,5.7534,5.7534,5.7534,5.7534,5.7534,5.7534,5.7382,5.6664,5.6493,5.6322,5.5677,5.5577,5.5487,5.5297,5.5259,5.5202,5.5031,5.4993,5.4803,5.4209,5.4095,5.4095,5.4095,5.4095,5.4551,5.579,5.5544,5.5259,5.5259,5.5088,5.4993,5.4993,5.4993,5.4879,5.4646,5.6622,5.7002,5.5235,5.7059,5.7382,5.5809,5.6246,5.6493,5.6493,5.7211,5.7534,5.7534,5.7705,5.78,4.8848,4.9857,5.0805,5.0805,4.7494,4.3755,4.2023,3.7788,3.3683,3.1895,3.1104,3.1065,3.2255,3.2476,3.2852,3.4046,3.599,3.8021,3.9969,4.2047,4.4108,4.6009,4.7655,4.8515,4.8407,5.153,5.3538,5.3397,5.5204,5.6094,5.5658,5.6056,5.5473,5.3644,5.5704,5.5795,5.352,5.486,5.5392,5.4993,5.4209,5.3848,5.3797,5.3797,5.4025,5.4456,5.4456,5.4879,5.562,5.562,5.5885,5.6337,5.6337,5.6337,5.6394,5.6721,5.6873,5.6929,5.7401,5.7534,5.7401,5.6603,5.6337,5.6337,5.6337,5.6337,5.6337,5.6337,5.6337,5.6189,5.5753,5.562,5.5525,5.5088,5.4993,5.4993,5.4993,5.4741,5.4456,5.4456,5.4082,5.3664,5.3247,5.3171,5.3171,5.3171,5.3563,5.4133,5.4936,5.5012,5.5145,5.5544,5.524,5.4993,5.4993,5.4993,5.4974,5.4955,5.617,5.6303,5.4993,5.5862,5.5938,5.5012,5.5031,5.524,5.562,5.6075,5.6337,5.6356,5.6683,5.6873,4.5451,4.5872,4.6252,4.6252,4.4128,4.168,4.0506,3.726,3.4151,3.3008,3.2021,3.1662,3.2865,3.3073,3.3449,3.4644,3.4826,3.5978,3.9303,3.9765,4.1051,4.4388,4.522,4.6306,4.83,4.9814,5.1493,5.3372,5.4454,5.4993,5.4993,5.4558,5.3196,5.084,5.3166,5.3583,5.1736,5.3882,5.4751,5.426,5.3454,5.2728,5.2204,5.2674,5.3247,5.3829,5.3829,0.0,5.4557,5.4557,5.4652,5.4836,5.4836,5.4879,5.5069,5.5753,5.5999,5.6113,5.6869,5.7097,5.685,5.5278,5.4879,5.4993,5.4993,5.4993,5.4993,5.4993,5.4993,5.4993,5.4993,5.4993,5.4955,5.4822,5.4836,5.4746,5.4595,5.4025,5.362,5.362,5.3,5.2468,5.2317,5.2298,5.2355,5.2438,5.3114,5.3772,5.419,5.4722,5.5259,5.5923,5.5392,5.4993,5.4993,5.4993,5.5221,5.5753,5.6003,5.6041,5.5809,5.5278,5.4936,5.4836,5.4019,5.3943,5.4557,5.4708,5.4836,5.4855,5.562,5.5999,4.2149,4.4402,4.6252,4.6252,4.4128,4.168,4.0506,3.7935,3.5371,3.419,3.3877,3.4137,3.5267,3.5488,3.5865,3.7063,3.7245,3.7451,3.7943,3.8013,3.8233,3.8772,4.1061,4.1753,3.9654,4.6306,4.9814,4.7602,5.2109,5.4993,5.4993,5.2635,5.1105,5.0734,4.8669,4.8612,5.0892,5.0487,5.0643,5.1317,5.0431,5.0308,5.1032,5.3527,5.4399,5.3829,5.3829,5.3468,5.2798,5.2798,5.3285,5.4,5.4,5.4418,5.5012,5.5126,5.5164,5.5183,5.5297,5.5316,5.5216,5.4304,5.4475,5.4993,5.4993,5.4993,5.4993,5.4993,5.4993,5.4993,5.4993,5.4993,5.4822,5.4152,5.4,5.3791,5.3,5.2753,5.2677,5.2677,5.2533,5.2298,5.1576,5.1462,5.169,5.2412,5.2601,5.3456,5.562,5.5373,5.5031,5.5145,5.5069,5.4993,5.4993,5.4993,5.4746,5.419,5.543,5.5582,5.4209,5.4671,5.4722,5.4,5.3114,5.2734,5.2798,5.362,5.4,5.4,5.4765,5.5164,3.5822,3.7564,3.901,4.1003,4.0519,3.9448,3.8914,3.735,3.58,3.532,3.4683,3.4384,3.4904,3.5501,3.6165,3.666,3.7284,3.77,3.77,3.77,3.77,3.77,3.8842,3.9752,4.0073,4.5056,4.8354,4.8729,4.9601,5.0097,5.0097,5.0522,4.9973,4.83,4.6955,4.7726,5.0716,5.0348,4.9279,4.7539,4.7152,4.69,4.6869,4.8086,4.8554,4.8499,0.0,5.0546,5.0419,5.1891,5.2734,5.3076,5.3076,5.3285,5.3607,5.3607,5.3607,5.3607,5.3607,5.3607,5.3551,5.319,5.3304,5.3607,5.3607,5.3607,5.3607,5.3607,5.3607,5.3607,5.3607,5.3607,5.3513,5.3152,5.3076,5.2962,5.2533,5.2457,5.2324,5.1918,5.1395,5.0959,5.0598,5.0541,5.0874,5.1709,5.2222,5.3761,5.7235,5.7382,5.662,5.5149,5.4993,5.4993,5.4993,5.4993,5.4841,5.4532,5.5126,5.5012,5.3867,5.3664,5.3437,5.3076,5.226,5.2051,5.2457,5.2886,5.3076,5.3076,5.3437,5.3854,2.9896,3.0885,3.1733,3.5264,3.6273,3.6542,3.7311,3.6946,3.6426,3.6426,3.5736,3.5112,3.5112,3.584,3.6426,3.6426,3.7154,3.77,3.77,3.77,3.77,3.77,3.77,3.8561,4.0658,4.3486,4.5983,4.7924,4.6848,4.6049,4.6049,4.761,4.7494,4.5274,4.4472,4.5523,4.8458,4.8478,4.7124,4.4323,4.4323,4.3935,4.3331,4.4068,4.4296,4.4272,4.6278,4.7447,4.8103,5.0064,5.1385,5.2203,5.2203,5.2317,5.2457,5.2457,5.2457,5.24,5.1983,5.2013,5.2203,5.2203,5.2355,5.2457,5.2457,5.2457,5.2457,5.2457,5.2457,5.2457,5.2457,5.2457,5.24,5.2241,5.2203,5.2097,5.1869,5.1831,5.166,5.1102,5.0913,5.0876,5.0876,5.1419,5.2193,5.3392,5.4034,5.573,5.9439,5.913,5.7872,5.5918,5.4873,5.4462,5.4722,5.4741,5.4765,5.4974,5.4993,5.4779,5.4171,5.3285,5.2734,5.2457,5.1709,5.1481,5.1831,5.2108,5.2203,5.2203,5.2362,5.2848,2.5897,2.6546,2.7436,3.1071,3.2339,3.3433,3.6192,3.7215,3.7622,3.7622,3.757,3.7531,3.7531,3.757,3.7622,3.7622,3.7674,3.77,3.77,3.77,3.77,3.77,3.77,3.7756,3.7925,4.0505,4.1832,4.0865,0.0,4.5539,4.5539,4.3575,4.2331,4.2235,3.9543,3.9543,4.2386,4.2441,4.2316,4.2122,4.2122,4.2107,4.2173,4.4908,4.5418,4.4116,4.4272,4.5036,4.6206,4.6369,4.8351,5.1367,5.1367,5.1823,5.2457,5.2457,5.2457,5.2229,5.0655,5.0636,5.1367,5.1367,5.188,5.2457,5.2457,5.2457,5.2457,5.2457,5.2457,5.2457,5.2457,5.2457,5.2317,5.1538,5.1367,5.114,5.0276,5.0105,5.0086,5.0048,5.1858,5.3445,5.3445,5.5299,5.7433,5.9316,5.9666,6.0381,6.2314,5.9763,5.7738,5.761,5.4603,5.2962,5.3829,5.3886,5.4209,5.4955,5.4993,5.4974,5.4936,5.4209,5.3373,5.2525,5.1709,5.0912,5.0105,5.0969,5.1367,5.1367,5.2146,5.2476,1.9895,2.1939,2.3929,2.7915,2.91,2.9503,3.0517,3.0936,3.1624,3.3472,3.387,3.4378,3.6266,3.6608,3.6608,3.6608,3.6608,3.6608,3.6608,3.6608,3.6608,3.6608,3.6608,3.6608,3.6608,3.7497,3.7947,3.7526,3.8694,3.9341,3.9341,4.0316,4.0001,3.8178,3.8909,3.9854,4.0831,3.9018,3.9212,4.1334,3.9935,3.9276,3.9263,4.031,4.0236,3.946,4.0812,4.1466,4.1707,4.3019,4.4327,4.5463,4.5463,4.5617,4.6055,4.7728,4.838,4.8241,4.7681,4.7681,4.8224,4.9883,5.0636,5.0864,5.0864,5.0864,5.0864,5.0864,5.0864,5.0864,5.0864,5.0864,5.0788,5.0503,5.0428,5.0352,5.0048,5.1204,5.233,5.233,5.4229,5.593,5.593,5.6582,5.7816,5.98,6.2787,6.4685,6.4326,6.264,6.0233,5.6972,5.5494,5.4272,5.3074,5.2962,5.3095,5.338,5.3962,5.4266,5.4266,5.3981,5.343,5.2525,5.1709,5.0874,4.9944,5.0276,5.0428,5.0447,5.0731,5.1167,1.3505,1.551,1.7728,2.2754,2.4148,2.4773,2.6726,2.7282,2.7932,2.9871,3.0253,3.081,3.2706,3.3869,3.4543,3.4543,3.5324,3.5943,3.5943,3.5943,3.5943,3.5943,3.5943,3.5943,3.5943,3.5632,3.5398,3.5398,3.554,3.5657,3.5657,3.763,3.7952,3.605,3.7806,3.8776,3.8776,3.6924,3.7111,3.9326,3.7844,3.7128,3.7141,3.7323,3.7046,3.6584,3.797,3.8726,3.9171,4.0347,4.1346,4.2184,4.2184,4.2184,4.2381,4.411,4.4176,4.3622,4.5456,4.6053,4.6487,4.9082,4.9944,4.9944,4.9944,4.9944,4.9944,4.9944,4.9944,4.9944,4.9944,4.9944,4.9944,4.9944,4.9944,4.9944,4.9944,5.1885,5.3629,5.3629,5.62,5.8358,5.8358,5.931,6.0517,6.1855,6.5438,6.7368,6.5615,6.408,6.1901,5.849,5.7111,5.5533,5.3412,5.3256,5.3049,5.2556,5.3038,5.3392,5.3392,5.3392,5.3095,5.2525,5.1709,5.1026,5.0409,5.0124,4.9944,4.9944,4.9944,5.0276,0.7094,0.733,0.8932,1.5427,1.7443,1.9269,2.4912,2.6609,2.7012,2.7187,2.7242,2.7242,2.7352,2.9598,3.1527,3.1527,3.382,3.5675,3.577,3.5783,3.5783,3.5891,3.5891,3.5878,3.5865,3.4891,3.4215,3.4176,3.4631,3.4916,3.4903,3.554,3.5839,3.5839,3.5839,3.5839,3.5865,3.5865,3.5878,3.5917,3.5917,3.593,3.5968,3.6514,3.6462,3.5943,3.5917,3.708,3.8885,3.8212,3.951,4.1906,4.1922,4.1938,4.1922,4.1906,4.0225,3.8725,4.4013,4.586,4.6246,4.8873,4.9783,4.9831,4.9831,4.9878,4.9944,4.9944,4.9944,4.9944,4.9944,4.9944,4.9944,4.9944,4.9944,4.9972,5.0067,5.2005,5.3812,5.3858,5.7607,6.0778,6.0778,6.3588,6.5842,6.5842,6.7628,6.8193,6.6159,6.3892,6.2485,6.2373,5.927,5.6566,5.4999,5.4738,5.4053,5.2583,5.2431,5.2381,5.2282,5.2339,5.2289,5.222,5.1525,5.1138,5.1119,5.0266,4.9916,4.9935,4.9935,4.9953,0.3947,0.6231,0.8001,1.0468,1.1231,1.2266,1.5966,1.6876,1.8173,2.235,2.3218,2.3798,2.5872,2.6935,2.7465,2.7465,2.8111,2.9337,3.1307,3.1621,3.2366,3.4449,3.4722,3.4553,3.415,3.4176,3.389,3.3008,3.3539,3.3631,3.3166,3.3346,3.3436,3.3436,3.3436,3.3631,3.4149,3.4162,3.4475,3.5266,3.5266,3.5487,3.5955,3.6111,3.6085,3.5917,3.5448,3.5388,3.5502,3.5341,3.5511,3.5891,3.6235,3.6415,3.636,3.5966,3.5366,3.5248,3.8976,4.0271,4.0718,4.3427,4.5601,4.7147,4.7147,4.8445,4.9944,4.9944,4.9944,4.9944,4.9944,4.9944,4.9944,4.9944,4.9944,5.0425,5.2238,5.4502,5.6672,5.8403,6.1189,6.335,6.335,6.4121,6.4785,6.4785,6.653,6.7408,6.6061,6.5351,6.3955,6.1418,5.9583,5.7996,5.6614,5.3652,5.1976,5.2335,5.1271,4.9801,4.7938,4.9036,4.8507,4.5925,4.6919,4.7183,4.6514,4.7619,4.8436,4.9136,4.9136,4.9431,0.1594,0.3384,0.4705,0.6459,0.6875,0.7645,1.0563,1.2151,1.3946,1.734,1.8931,2.0273,2.1958,2.3265,2.4057,2.4057,2.5049,2.6413,2.8034,2.8242,2.9294,3.2071,3.1159,3.0209,2.9914,3.1117,3.1644,3.0962,3.2221,3.2875,3.2488,3.2476,3.2476,3.2476,3.2476,3.2631,3.3018,3.3031,3.332,3.3944,3.3944,3.4112,3.4501,3.48,3.5034,3.5202,3.5072,3.4683,3.4202,3.3981,3.3539,3.3057,3.3333,3.3462,3.3423,3.3148,3.3031,3.3453,3.6353,3.7354,3.784,4.081,4.2802,4.4285,4.5641,4.7129,4.8588,4.9641,4.9944,4.9944,4.9944,4.9944,4.9944,4.9944,4.9944,5.0331,5.1792,5.4755,5.7563,5.893,6.1587,6.3596,6.3596,6.4028,6.4175,6.3711,6.5061,6.5939,6.5347,6.5274,6.4575,6.2836,6.1423,5.9656,5.7501,5.5441,5.3624,5.2221,5.1384,4.9393,4.5913,4.6518,4.5692,4.306,4.3953,4.4352,4.4136,4.4597,4.5618,4.7082,4.6844,4.7526,-0.0081,0.0,0.0608,0.3162,0.381,0.4584,0.0,1.021,1.2197,1.2739,1.4888,1.6764,1.6976,1.9168,2.0876,2.0876,2.3079,2.4915,2.5271,2.5281,2.621,2.865,2.6277,2.4537,2.4786,2.6948,2.8268,2.8155,3.0253,3.1605,3.1832,3.1832,3.1977,3.2232,3.2281,3.2307,3.2372,3.208,3.196,3.2073,3.1768,3.1622,3.1647,3.219,3.2734,3.3178,3.3646,3.3738,3.3574,3.3399,3.2953,3.2385,3.245,3.219,3.1845,3.1909,3.2129,3.2711,3.5101,3.5915,3.6384,3.9272,4.042,4.1219,4.4107,4.5196,4.5951,4.8327,4.9188,4.9415,4.9509,4.9736,4.9944,4.9944,4.9944,5.002,5.0303,5.3644,5.6743,5.7254,5.991,6.2141,6.2384,6.3352,6.3735,6.2449,6.3328,6.4185,6.4245,6.4287,6.4647,6.5519,6.4102,6.1792,5.8624,5.8709,5.7124,5.298,5.2329,5.0063,4.5519,4.4697,4.3542,4.1844,4.1616,4.1837,4.2523,4.1444,4.2167,4.455,4.403,4.4927,0.0,0.0,0.0,0.0,0.0,0.0,0.0,0.56,0.7105,1.1081,1.2353,1.3258,1.4944,1.6086,1.6743,1.6743,1.7649,1.9141,2.1454,2.1809,2.1962,2.2511,2.1973,2.232,2.4074,2.5091,2.5255,2.4289,2.5142,2.64,2.8004,2.8075,2.8991,3.1006,3.1052,3.1273,3.1848,2.9766,2.8946,2.9468,2.7338,2.6347,2.6347,2.6492,2.6577,2.6722,2.6818,2.7961,2.9961,3.1873,3.2307,3.1887,3.2294,3.0681,2.8122,2.8545,3.0017,3.1961,3.2874,3.324,3.3288,3.3978,3.5573,3.7396,3.8056,3.9786,4.1694,4.2654,4.4426,4.618,4.668,4.8379,4.9944,4.9944,4.9944,5.0472,5.2496,5.3083,5.4315,5.7997,5.8783,5.9362,6.1047,6.223,6.2303,6.036,6.1717,6.3164,6.382,6.3888,6.4559,6.6256,6.6117,6.5245,6.362,5.9915,5.7703,5.7715,5.35,4.935,4.5615,4.318,4.0452,3.7301,3.719,3.7249,3.7382,3.8593,4.0757,4.3765,4.3258,4.3131,0.0,0.0,0.0,0.0,0.0,0.0,0.0,0.0,0.0,0.0,0.0,1.0506,1.157,0.0,1.4106,1.4106,1.5452,1.7042,1.8444,1.8639,1.7591,1.4656,1.5437,1.6673,1.778,2.047,2.1902,2.1312,2.2604,2.3873,2.48,2.4749,2.5258,2.6507,2.6553,2.6668,2.7026,2.5714,2.5267,2.5552,2.4378,2.3821,2.3841,2.4279,2.4488,2.4497,2.4766,2.5602,2.6899,2.7743,2.773,2.7222,2.735,2.6288,2.4733,2.497,2.6007,2.7443,2.9003,2.9649,3.0002,3.156,3.2944,3.4307,3.5876,3.7282,3.8748,4.0354,4.1725,4.2829,4.3154,4.5101,4.6933,4.6933,4.7852,4.9051,5.0272,5.1157,5.269,5.6008,5.6874,5.7754,5.9876,6.0677,6.0677,5.9629,6.0775,6.2288,6.3562,6.3779,6.3463,6.2674,6.2819,6.2437,6.1079,5.884,5.8814,6.1807,5.7541,5.2122,4.5929,4.42,4.1741,3.8253,3.6735,3.5977,3.5977,3.5679,3.7,3.9734,3.9696,4.0877,0.0,0.0,0.0,0.0,0.0,0.0,0.0,0.0,0.0,0.0,0.0,0.0,0.0,0.0,0.0,1.0987,1.3155,1.4809,1.4815,1.4842,1.3094,0.833,0.9645,1.0919,1.0931,1.4713,1.7376,1.7847,1.9521,2.096,2.1885,2.1694,2.1813,2.2348,2.2358,2.2358,2.2358,2.1858,2.159,2.16,0.0,0.0,2.1235,2.1951,2.2343,2.2388,2.2812,2.3295,2.3749,2.3072,2.2782,2.2613,2.1369,2.0885,2.0974,2.1421,2.2039,2.2991,2.5058,2.6292,2.7374,2.9909,3.109,3.1966,3.4528,3.5271,0.0,3.8062,3.9123,3.9544,3.9625,4.1769,4.394,4.394,4.5707,4.7412,4.7412,4.8885,5.0803,5.2906,5.4376,5.5981,5.814,5.8715,5.8558,5.7732,5.89,6.0414,6.1805,6.2843,6.2513,6.0064,6.0387,6.0382,5.9371,5.8522,5.9953,6.451,6.0897,5.4937,4.6788,4.5294,4.2926,3.9321,3.6706,3.55,3.5757,3.3544,3.4034,3.6927,3.5784,3.8006,0.0,0.0,0.0,0.0,0.0,0.0,0.0,0.0,0.0,0.0,0.0,0.0,0.0,0.0,0.0,0.0,0.7071,0.8763,0.8775,0.8767,0.8523,0.7868,0.8022,0.8195,0.8212,0.8764,0.997,1.2022,1.2433,1.4422,1.8744,0.0,0.0,0.0,0.0,2.2358,2.2358,2.0069,1.8902,1.8865,1.6689,1.5677,1.5684,1.5799,1.5967,1.6165,1.6254,1.7694,2.0004,1.9724,2.081,2.2292,1.7502,1.5628,1.5894,1.8115,2.0366,2.2428,2.2741,0.0,0.0,2.7057,2.8835,3.0878,3.1255,3.1373,3.1512,3.2403,3.4313,3.6238,3.6706,4.0327,4.394,4.394,4.5707,4.7412,4.7412,4.7109,4.7427,4.9499,5.1076,5.2689,5.4838,5.5956,5.5243,5.1442,5.3731,5.5797,5.5681,5.9691,6.3005,6.4256,0.0,0.0,6.7557,6.2415,6.0626,6.4201,5.9653,5.4368,4.8857,4.4033,3.9495,3.5147,3.397,3.3943,3.5085,3.3416,3.5335,4.0307,3.3721,3.3989,0.0,0.0,0.0,0.0,0.0,0.0,0.0,0.0,0.0,0.0,0.0,0.0,0.0,0.0,0.0,0.0,0.4595,0.5158,0.1894,0.2471,0.3241,0.3266,0.4614,0.5518,0.5523,0.6872,0.8191,0.9183,0.9122,0.9908,1.1914,1.1867,1.2312,1.3391,1.4774,1.4818,1.3435,1.4984,1.5092,1.3849,1.4322,1.4555,1.4562,1.4695,1.4833,1.4946,1.4946,1.5608,1.6736,1.6597,1.7175,0.0,0.0,0.0,0.0,0.0,1.6792,1.7948,1.9348,2.0756,2.2368,2.5142,2.6825,2.8048,2.9373,2.9845,2.9949,3.0476,3.1443,3.2433,3.2929,3.5746,3.8751,4.0091,4.2211,4.4323,4.5647,4.5705,4.6126,4.8272,5.0239,0.0,5.1176,5.3449,5.5245,5.5169,5.6482,5.8398,6.0958,6.2603,6.2875,6.1146,6.1287,6.1488,6.1463,5.9493,0.0,0.0,0.0,5.8298,5.683,5.1439,0.0,0.0,0.0,0.0,0.0,0.0,0.0,0.0,3.5398,3.4525,0.0,0.0,0.0,0.0,0.0,0.0,0.0,0.0,0.0,0.0,0.0,0.0,0.0,0.0,0.0,0.0,0.1132,0.1293,-0.3888,-0.3312,-0.218,-0.1706,0.0412,0.2118,0.2735,0.4522,0.5893,0.6541,0.6404,0.6614,0.7234,0.7086,0.6982,0.6982,0.8632,0.8737,0.7011,1.0286,1.1113,0.9557,1.1467,1.2335,1.2341,1.253,1.2656,1.2719,1.2719,1.2759,1.2914,1.3488,1.369,1.3666,1.3513,1.3265,1.3098,1.3935,1.4207,1.4464,1.6281,1.7537,1.8936,2.2409,2.4499,2.5957,2.7694,2.8637,2.9221,2.9624,2.9741,2.9788,3.0203,3.2075,3.4534,3.7077,3.9474,4.1893,4.4342,4.4715,4.505,4.6682,4.901,5.0063,4.805,5.1065,5.4487,5.6549,5.7441,0.0,6.3218,6.4222,6.3356,6.028,5.9464,5.9283,5.9601,5.7661,5.8963,6.4741,6.1405,5.9925,6.1354,5.6138,5.2053,4.9588,4.3658,4.0202,0.0,0.0,0.0,0.0,0.0,0.0,0.0,0.0,0.0,0.0,0.0,0.0,0.0,0.0,0.0,0.0,0.0,0.0,0.0,0.0,0.0,0.0,0.0,0.0,-0.7794,-0.8315,-0.7695,-0.6032,-0.4312,-0.2371,-0.0088,0.0178,0.1204,0.3447,0.3615,0.4611,0.6902,0.6985,0.6982,0.6982,0.7069,0.709,0.6996,0.713,0.7172,0.7122,0.7183,0.7248,0.7248,0.7255,0.7382,0.7614,0.7614,0.7747,0.8153,1.0169,1.1026,1.1026,1.1021,1.0971,1.1202,1.3123,1.3805,1.3848,1.3891,1.5763,1.813,1.827,2.1632,2.5692,2.5736,2.7343,2.9143,2.92,2.9156,2.9156,2.9182,3.0939,3.3446,3.6469,3.8945,4.1402,4.4272,4.4321,4.3793,4.3876,4.6461,4.7985,4.5776,4.8858,5.1492,5.1231,5.3338,0.0,5.7552,6.2068,6.5082,6.507,6.3951,6.4701,6.8444,5.9565,5.7003,6.4634,5.9229,5.6724,5.8927,5.4247,5.0774,4.9048,4.4703,4.2528,4.261,0.0,0.0,0.0,0.0,0.0,0.0,0.0,0.0,0.0,0.0,0.0,0.0,0.0,0.0,0.0,0.0,0.0,0.0,0.0,0.0,0.0,0.0,0.0,0.0,-0.8853,-0.6633,-0.7692,-0.4866,-0.2089,-0.0167,-0.0996,-0.0865,0.1022,0.116,0.1545,0.2336,0.2378,0.2378,0.2378,0.3875,0.3944,0.2396,0.5437,0.6221,0.4697,0.6262,0.699,0.699,0.699,0.7034,0.7137,0.7137,0.7176,0.7315,0.8212,0.848,0.8473,1.0197,1.1587,1.2651,1.3502,1.3598,1.3269,1.3269,1.4766,1.7184,2.0403,2.2597,2.4346,2.6254,2.7357,2.8155,2.8965,2.8857,2.8684,2.945,3.0999,3.307,3.562,3.7899,4.0164,4.2789,4.3148,4.2958,4.2958,4.4949,4.6007,4.383,4.7951,5.2293,5.4556,5.6902,6.0046,6.4539,6.5967,6.6549,6.6576,6.4655,6.4239,6.6451,6.261,6.118,6.3794,6.1929,6.064,6.0457,5.6765,5.4458,5.3888,5.0314,4.6385,4.2097,0.0,0.0,0.0,0.0,0.0,0.0,0.0,0.0,0.0,0.0,0.0,0.0,0.0,0.0,0.0,0.0,0.0,0.0,0.0,0.0,0.0,0.0,0.0,0.0,0.0,0.0,-0.6797,-0.338,0.0,0.0078,-0.0934,-0.1392,-0.08,-0.0856,-0.0631,-0.0039,0.0,0.0,0.0,0.1464,0.1545,0.0,0.3009,0.3736,0.2257,0.3777,0.4485,0.4485,0.4485,0.4519,0.4501,0.4493,0.4499,0.464,0.6129,0.6666,0.6759,0.9286,1.091,1.2112,1.3913,1.4282,1.4076,1.5098,1.6754,1.8917,2.1931,2.3586,2.4574,2.5658,2.6009,2.6256,2.7062,2.6847,2.6924,2.9245,3.0739,3.2499,3.5801,3.7632,3.9323,4.2004,4.2313,4.2188,4.2589,4.4266,4.5095,4.3311,4.7443,5.1946,5.4613,5.7708,6.1693,6.6997,6.7821,6.7954,6.7975,6.5637,6.4579,6.585,6.4357,6.3337,6.3311,6.3335,6.2458,6.0486,5.783,5.5885,5.4931,5.154,4.7521,0.0,0.0,0.0,0.0,0.0,0.0,0.0,0.0,0.0,0.0,0.0,0.0,0.0,0.0,0.0,0.0,0.0,0.0,0.0,0.0,0.0,0.0,0.0,0.0,0.0,0.0,0.0,-0.3852,-0.0364,0.0,0.0,0.0,0.0,-0.1938,-0.2339,-0.179,-0.0183,-0.0112,-0.0115,-0.0118,-0.004,0.0,0.0,0.0,0.0,0.0,0.0,0.0,0.0,0.0,0.0,0.0,0.0125,0.0126,0.042,0.4167,0.5853,0.6284,0.8457,0.9352,0.9894,1.4162,1.5594,1.5821,1.8579,2.0994,2.2856,2.259,2.4383,2.6298,2.4064,2.3494,0.0,0.0,2.3522,2.4131,2.8478,3.0072,3.1791,3.6734,3.8029,3.893,4.1743,4.1762,4.1429,0.0,4.4121,4.5007,4.3514,0.0,5.0073,5.1093,5.5517,6.0307,6.4668,6.7592,6.922,6.9156,6.6961,6.5941,6.7062,6.486,6.3363,6.3191,6.3215,6.1949,5.8934,5.7218,5.4984,5.2207,4.8551,0.0,0.0,0.0,0.0,0.0,0.0,0.0,0.0,0.0,0.0,0.0,0.0,0.0,0.0,0.0,0.0,0.0,0.0,0.0,0.0,0.0,0.0,0.0,0.0,0.0,0.0,-0.9659,-0.6848,-0.3828,-0.0979,0.1075,0.0,0.0,0.0,0.0,0.0,0.0,-0.1619,-0.1595,-0.16,-0.16,-0.055,0.0,0.0,0.0,0.0,0.0,0.0,0.0,0.0,0.0,0.0,0.008,0.1644,0.217,0.2127,0.5236,0.8774,1.228,1.1975,1.2299,1.2884,1.2791,1.3162,1.3839,1.4955,1.8349,2.2176,2.1922,2.441,2.7091,2.4985,0.0,0.0,0.0,0.0,2.3896,2.7292,2.9408,3.1459,3.4607,3.6971,3.8755,3.9524,4.0016,4.0042,0.0,4.1138,4.1669,3.725,0.0,0.0,4.7373,5.2721,5.8239,6.3242,6.7671,6.9912,6.8746,6.8111,6.7877,6.8051,6.5872,6.4183,6.3363,6.237,6.0602,5.797,5.6262,5.3747,5.0324,0.0,0.0,0.0,0.0,0.0,0.0,0.0,0.0,0.0,0.0,0.0,0.0,0.0,0.0,0.0,0.0,0.0,0.0,0.0,0.0,0.0,0.0,0.0,0.0,0.0,0.0,0.0,-0.6698,-0.3581,-0.023,0.2105,0.3476,0.0,0.0,0.0,0.0,0.0,0.0,0.0,0.0,0.0,-0.1208,-0.0408,0.0349,0.1089,0.109,0.1497,0.2286,0.2286,0.2286,0.2286,0.2286,0.2304,0.2335,0.2674,0.4417,0.716,0.999,1.3597,1.7111,0.0,0.0,0.0,0.0,1.5096,1.5451,1.6951,2.0546,2.4395,2.3736,0.0,0.0,0.0,0.0,0.0,0.0,0.0,0.0,0.0,0.0,3.2902,3.5221,3.7561,3.9264,3.9264,3.7941,3.6839,0.0,3.8762,3.8976,3.5833,0.0,0.0,0.0,0.0,5.5623,5.9919,6.5364,6.8844,6.8996,6.8478,6.8089,6.8105,6.6502,6.4517,6.2165,6.1506,5.9538,5.5728,5.3692,5.0827,0.0,0.0,0.0,0.0,0.0,0.0,0.0,0.0,0.0,0.0,0.0,0.0,0.0,0.0,0.0,0.0,0.0,0.0,0.0,0.0,0.0,0.0,0.0,0.0,0.0,0.0,0.0,0.0,0.0,0.0143,0.4669,0.0,0.0,0.0,0.0,0.0,0.0,0.0,0.0,0.0,0.0,0.0,0.0,0.0,0.1219,0.2593,0.2508,0.3278,0.4854,0.4854,0.4854,0.4854,0.4854,0.4752,0.454,0.4221,0.0,1.3926,1.5869,0.0,0.0,0.0,0.0,0.0,0.0,0.0,0.0,0.0,0.0,0.0,0.0,0.0,0.0,0.0,0.0,0.0,0.0,0.0,0.0,0.0,0.0,3.3976,3.6202,3.7979,3.92,0.0,3.575,3.3475,3.574,3.6445,0.0,0.0,0.0,0.0,0.0,0.0,0.0,5.6074,6.2341,6.7232,6.916,6.8181,6.7406,6.7508,6.6406,6.4095,6.0304,6.0002,5.7643,5.2368,5.0379,0.0,0.0,0.0,0.0,0.0,0.0,0.0,0.0,0.0,0.0,0.0,0.0,0.0,0.0,0.0,0.0,0.0,0.0,0.0,0.0,0.0,0.0,0.0,0.0,0.0,0.0,0.0,0.0,0.0,0.0,0.0,0.0,0.0,0.0,0.0,0.0,0.0,0.0,0.0,0.0,0.0,0.0,0.0,0.0,0.0,0.0,0.0,0.0,0.0,0.0,0.2683,0.2683,0.2683,0.2683,0.2022,0.1356,0.8995,1.5126,1.9504,1.7317,0.0,0.0,0.0,0.0,0.0,0.0,0.0,0.0,0.0,0.0,0.0,0.0,0.0,0.0,0.0,0.0,0.0,0.0,0.0,0.0,0.0,0.0,0.0,0.0,3.3754,3.4718,3.3947,0.0,0.0,0.0,0.0,0.0,0.0,0.0,0.0,0.0,0.0,0.0,5.4646,6.2308,6.7371,6.7225,6.7068,6.6925,6.6847,6.4237,6.1567,5.9117,5.5422,5.1599,0.0,0.0,0.0,0.0,0.0,0.0,0.0,0.0,0.0,0.0,0.0,0.0,0.0,0.0,0.0,0.0,0.0,0.0,0.0,0.0,0.0,0.0,0.0,0.0,0.0,0.0,0.0,0.0,0.0,0.0,0.0,0.0,0.0,0.0,0.0,0.0,0.0,0.0,0.0,0.0,0.0,0.0,0.0,0.0,0.0,0.0,0.0,0.0,0.0,0.0,0.0,0.0,0.0,0.0,0.0,0.0,0.0,0.0,0.0,1.6687,0.0,0.0,0.0,0.0,0.0,0.0,0.0,0.0,0.0,0.0,0.0,0.0,0.0,0.0,0.0,0.0,0.0,0.0,0.0,0.0,0.0,0.0,0.0,0.0,0.0,0.0,0.0,0.0,0.0,0.0,0.0,0.0,0.0,0.0,0.0,0.0,0.0,0.0,0.0,0.0,5.2877,6.0382,6.585,6.7234,6.6721,6.6558,6.7314,6.3727,6.0213,5.7359,5.355,0.0,0.0,0.0,0.0,0.0,0.0,0.0,0.0,0.0,0.0,0.0,0.0,0.0,0.0,0.0,0.0,0.0,0.0,0.0,0.0,0.0,0.0,0.0,0.0,0.0,0.0,0.0,0.0,0.0,0.0,0.0,0.0,0.0,0.0,0.0,0.0,0.0,0.0,0.0,0.0,0.0,0.0,0.0,0.0,0.0,0.0,0.0,0.0,0.0,0.0,0.0,0.0,0.0,0.0,0.0,0.0,0.0,0.0,0.0,1.7663,0.0,0.0,0.0,0.0,0.0,0.0,0.0,0.0,0.0,0.0,0.0,0.0,0.0,0.0,0.0,0.0,0.0,0.0,0.0,0.0,0.0,0.0,0.0,0.0,0.0,0.0,0.0,0.0,0.0,0.0,0.0,0.0,0.0,0.0,0.0,0.0,0.0,0.0,0.0,0.0,0.0,5.1605,5.8601,6.4288,6.7216,6.6547,6.6335,6.745,6.3798,5.9795,5.5903,5.2247,0.0,0.0,0.0,0.0,0.0,0.0,0.0,0.0,0.0,0.0,0.0,0.0,0.0,0.0,0.0,0.0,0.0,0.0,0.0,0.0,0.0,0.0,0.0,0.0,0.0,0.0,0.0,0.0,0.0,0.0,0.0,0.0,0.0,0.0,0.0,0.0,0.0,0.0,0.0,0.0,0.0,0.0,0.0,0.0,0.0,0.0,0.0,0.0,0.0,0.0,0.0,0.0,0.0,0.0,0.0,0.0,0.0,0.0,0.0,0.0,0.0,0.0,0.0,0.0,0.0,0.0,0.0,0.0,0.0,0.0,0.0,0.0,0.0,0.0,0.0,0.0,0.0,0.0,0.0,0.0,0.0,0.0,0.0,0.0,0.0,0.0,0.0,0.0,0.0,0.0,0.0,0.0,0.0,0.0,0.0,0.0,0.0,0.0,0.0,0.0,0.0,5.1605,5.8601,6.3856,6.57,6.6222,6.6259,6.5946,6.3994,6.0628,5.5578,0.0,0.0,0.0,0.0,0.0,0.0,0.0,0.0,0.0,0.0,0.0,0.0,0.0,0.0,0.0,0.0,0.0,0.0,0.0,0.0,0.0,0.0,0.0,0.0,0.0,0.0,0.0,0.0,0.0,0.0,0.0,0.0,0.0,0.0,0.0,0.0,0.0,0.0,0.0,0.0,0.0,0.0,0.0,0.0,0.0,0.0,0.0,0.0,0.0,0.0,0.0,0.0,0.0,0.0,0.0,0.0,0.0,0.0,0.0,0.0,0.0,0.0,0.0,0.0,0.0,0.0,0.0,0.0,0.0,0.0,0.0,0.0,0.0,0.0,0.0,0.0,0.0,0.0,0.0,0.0,0.0,0.0,0.0,0.0,0.0,0.0,0.0,0.0,0.0,0.0,0.0,0.0,0.0,0.0,0.0,0.0,0.0,0.0,0.0,0.0,0.0,0.0,5.0204,5.6444,6.1231,6.3155,6.3549,6.3691,6.372,6.1562,5.817,5.3387,0.0,0.0,0.0,0.0,0.0,0.0,0.0,0.0,0.0,0.0,0.0,0.0,0.0,0.0,0.0,0.0,0.0,0.0,0.0,0.0,0.0,0.0,0.0,0.0,0.0,0.0,0.0,0.0,0.0,0.0,0.0,0.0,0.0,0.0,0.0,0.0,0.0,0.0,0.0,0.0,0.0,0.0,0.0,0.0,0.0,0.0,0.0,0.0,0.0,0.0,0.0,0.0,0.0,0.0,0.0,0.0,0.0,0.0,0.0,0.0,0.0,0.0,0.0,0.0,0.0,0.0,0.0,0.0,0.0,0.0,0.0,0.0,0.0,0.0,0.0,0.0,0.0,0.0,0.0,0.0,0.0,0.0,0.0,0.0,0.0,0.0,0.0,0.0,0.0,0.0,0.0,0.0,0.0,0.0,0.0,0.0,0.0,0.0,0.0,0.0,0.0,0.0,4.9286,5.497,5.9495,6.1617,6.196,6.2159,6.2369,5.981,5.6432,5.2304,0.0,0.0,0.0,0.0,0.0,0.0,0.0,0.0,0.0,0.0,0.0,0.0,0.0,0.0,0.0,0.0,0.0,0.0,0.0,0.0,0.0,0.0,0.0,0.0,0.0,0.0,0.0,0.0,0.0,0.0,0.0,0.0,0.0,0.0,0.0,0.0,0.0,0.0,0.0,0.0,0.0,0.0,0.0,0.0,0.0,0.0,0.0,0.0,0.0,0.0,0.0,0.0,0.0,0.0,0.0,0.0,0.0,0.0,0.0,0.0,0.0,0.0,0.0,0.0,0.0,0.0,0.0,0.0,0.0,0.0,0.0,0.0,0.0,0.0,0.0,0.0,0.0,0.0,0.0,0.0,0.0,0.0,0.0,0.0,0.0,0.0,0.0,0.0,0.0,0.0,0.0,0.0,0.0,0.0,0.0,0.0,0.0,0.0,0.0,0.0,0.0,0.0,4.9286,5.497,5.9495,6.1617,6.2287,6.2535,6.2433,5.9663,5.6496,0.0,0.0,0.0,0.0,0.0,0.0,0.0,0.0,0.0,0.0,0.0,0.0,0.0,0.0,0.0,0.0,0.0,0.0,0.0,0.0,0.0,0.0,0.0,0.0,0.0,0.0,0.0,0.0,0.0,0.0,0.0,0.0,0.0,0.0,0.0,0.0,0.0,0.0,0.0,0.0,0.0,0.0,0.0,0.0,0.0,0.0,0.0,0.0,0.0,0.0,0.0,0.0,0.0,0.0,0.0,0.0,0.0,0.0,0.0,0.0,0.0,0.0,0.0,0.0,0.0,0.0,0.0,0.0,0.0,0.0,0.0,0.0,0.0,0.0,0.0,0.0,0.0,0.0,0.0,0.0,0.0,0.0,0.0,0.0,0.0,0.0,0.0,0.0,0.0,0.0,0.0,0.0,0.0,0.0,0.0,0.0,0.0,0.0,0.0,0.0,0.0,0.0,0.0,4.6544,5.0729,5.4728,5.8596,5.9184,5.9489,6.0086,5.8688,5.6022,5.1939,0.0,0.0,0.0,0.0,0.0,0.0,0.0,0.0,0.0,0.0,0.0,0.0,0.0,0.0,0.0,0.0,0.0,0.0,0.0,0.0,0.0,0.0,0.0,0.0,0.0,0.0,0.0,0.0,0.0,0.0,0.0,0.0,0.0,0.0,0.0,0.0,0.0,0.0,0.0,0.0,0.0,0.0,0.0,0.0,0.0,0.0,0.0,0.0,0.0,0.0,0.0,0.0,0.0,0.0,0.0,0.0,0.0,0.0,0.0,0.0,0.0,0.0,0.0,0.0,0.0,0.0,0.0,0.0,0.0,0.0,0.0,0.0,0.0,0.0,0.0,0.0,0.0,0.0,0.0,0.0,0.0,0.0,0.0,0.0,0.0,0.0,0.0,0.0,0.0,0.0,0.0,0.0,0.0,0.0,0.0,0.0,0.0,0.0,0.0,0.0,0.0,0.0,0.0,4.9321,5.3396,5.6905,5.7565,5.8028,5.8759,5.7605,5.5157,5.1164,0.0,0.0,0.0,0.0,0.0,0.0,0.0,0.0,0.0,0.0,0.0,0.0,0.0,0.0,0.0,0.0,0.0,0.0,0.0,0.0,0.0,0.0,0.0,0.0,0.0,0.0,0.0,0.0,0.0,0.0,0.0,0.0,0.0,0.0,0.0,0.0,0.0,0.0,0.0,0.0,0.0,0.0,0.0,0.0,0.0,0.0,0.0,0.0,0.0,0.0,0.0,0.0,0.0,0.0,0.0,0.0,0.0,0.0,0.0,0.0,0.0,0.0,0.0,0.0,0.0,0.0,0.0,0.0,0.0,0.0,0.0,0.0,0.0,0.0,0.0,0.0,0.0,0.0,0.0,0.0,0.0,0.0,0.0,0.0,0.0,0.0,0.0,0.0,0.0,0.0,0.0,0.0,0.0,0.0,0.0,0.0,0.0,0.0,0.0,0.0,0.0,0.0,0.0,5.0031,5.4565,5.637,5.7279,5.7879,5.8292,5.6606,5.4096,5.0635,4.7988,0.0,0.0,0.0,0.0,0.0,0.0,0.0,0.0,0.0,0.0,0.0,0.0,0.0,0.0,0.0,0.0,0.0,0.0,0.0,0.0,0.0,0.0,0.0,0.0,0.0,0.0,0.0,0.0,0.0,0.0,0.0,0.0,0.0,0.0,0.0,0.0,0.0,0.0,0.0,0.0,0.0,0.0,0.0,0.0,0.0,0.0,0.0,0.0,0.0,0.0,0.0,0.0,0.0,0.0,0.0,0.0,0.0,0.0,0.0,0.0,0.0,0.0,0.0,0.0,0.0,0.0,0.0,0.0,0.0,0.0,0.0,0.0,0.0,0.0,0.0,0.0,0.0,0.0,0.0,0.0,0.0,0.0,0.0,0.0,0.0,0.0,0.0,0.0,0.0,0.0,0.0,0.0,0.0,0.0,0.0,0.0,0.0,0.0,0.0,0.0,0.0,0.0,4.7536,5.1963,5.6119,5.7279,5.7879,5.8292,5.7599,5.4994,4.9824,4.9136,0.0,0.0,0.0,0.0,0.0,0.0,0.0,0.0,0.0,0.0,0.0,0.0,0.0,0.0,0.0,0.0,0.0,0.0,0.0,0.0,0.0,0.0,0.0,0.0,0.0,0.0,0.0,0.0,0.0,0.0,0.0,0.0,0.0,0.0,0.0,0.0,0.0,0.0,0.0,0.0,0.0,0.0,0.0,0.0,0.0,0.0,0.0,0.0,0.0,0.0,0.0,0.0,0.0,0.0,0.0,0.0,0.0,0.0,0.0,0.0,0.0,0.0,0.0,0.0,0.0,0.0,0.0,0.0,0.0,0.0,0.0,0.0,0.0,0.0,0.0,0.0,0.0,0.0,0.0,0.0,0.0,0.0,0.0,0.0,0.0,0.0,0.0,0.0,0.0,0.0,0.0,0.0,0.0,0.0,0.0,0.0,0.0,0.0,0.0,0.0,0.0,0.0,4.3899,4.8403,5.5054,5.6762,5.7561,5.7775,5.7261,5.4789,4.9748,4.9391,0.0,0.0,0.0,0.0,0.0,0.0,0.0,0.0,0.0,0.0,0.0,0.0,0.0,0.0,0.0,0.0,0.0,0.0,0.0,0.0,0.0,0.0,0.0,0.0,0.0,0.0,0.0,0.0,0.0,0.0,0.0,0.0,0.0,0.0,0.0,0.0,0.0,0.0,0.0,0.0,0.0,0.0,0.0,0.0,0.0,0.0,0.0,0.0,0.0,0.0,0.0,0.0,0.0,0.0,0.0,0.0,0.0,0.0,0.0,0.0,0.0,0.0,0.0,0.0,0.0,0.0,0.0,0.0,0.0,0.0,0.0,0.0,0.0,0.0,0.0,0.0,0.0,0.0,0.0,0.0,0.0,0.0,0.0,0.0,0.0,0.0,0.0,0.0,0.0,0.0,0.0,0.0,0.0,0.0,0.0,0.0,0.0,0.0,0.0,0.0,0.0,0.0,0.0,4.5495,5.3278,5.6019,5.7271,5.7144,5.6445,5.4139,4.9859,0.0,0.0,0.0,0.0,0.0,0.0,0.0,0.0,0.0,0.0,0.0,0.0,0.0,0.0,0.0,0.0,0.0,0.0,0.0,0.0,0.0,0.0,0.0,0.0,0.0,0.0,0.0,0.0,0.0,0.0,0.0,0.0,0.0,0.0,0.0,0.0,0.0,0.0,0.0,0.0,0.0,0.0,0.0,0.0,0.0,0.0,0.0,0.0,0.0,0.0,0.0,0.0,0.0,0.0,0.0,0.0,0.0,0.0,0.0,0.0,0.0,0.0,0.0,0.0,0.0,0.0,0.0,0.0,0.0,0.0,0.0,0.0,0.0,0.0,0.0,0.0,0.0,0.0,0.0,0.0,0.0,0.0,0.0,0.0,0.0,0.0,0.0,0.0,0.0,0.0,0.0,0.0,0.0,0.0,0.0,0.0,0.0,0.0,0.0,0.0,0.0,0.0,0.0,0.0,4.6517,5.0588,5.521,5.7757,5.7186,5.6445,5.3917,4.9085,0.0,0.0,0.0,0.0,0.0,0.0,0.0,0.0,0.0,0.0,0.0,0.0,0.0,0.0]}],[{"header":{"parameterUnit":"kt","parameterCategory":2,"dx":1,"dy":1,"la1":29.285339999999998,"la2":30.599998999999997,"lo1":-89.70041500000002,"lo2":-87.6738589999976,"nx":112,"ny":82,"refTime":"2022-11-01T06:00:00:Z","depth":0,"parameterNumber":2,"parameterNumberName":"V-component_of_WINDS"},"data":[10.1787,10.2793,0.0,9.6303,9.5021,0.0,8.6965,0.0,8.4703,8.4703,8.4631,8.519,8.7256,8.5058,8.2979,8.2978,8.1326,7.9568,0.0,7.8738,0.0,0.0,0.0,0.0,0.0,0.0,0.0,0.0,0.0,0.0,0.0,0.0,11.1906,11.3327,11.6026,11.6889,11.5802,11.8419,11.8097,11.487,11.487,11.4076,11.2548,11.2548,11.2548,11.2548,11.2548,11.2548,11.2548,11.2548,11.2548,11.2548,11.2548,11.2548,11.2548,11.2548,11.2548,11.2548,11.2548,11.2548,11.2548,11.2548,11.2548,11.2548,11.2548,11.2548,11.2548,11.2548,11.2548,11.2548,11.2548,11.2548,11.2548,11.2548,11.2548,11.2548,11.2548,11.2548,11.2548,11.2548,11.2548,11.2548,11.2548,11.2548,11.2548,11.2548,11.2548,11.2548,11.2548,11.2548,11.2548,11.2548,11.2548,11.2548,11.2548,11.2548,11.2548,11.2548,11.2548,11.2548,11.2548,11.3039,11.3072,11.2581,11.3959,11.3992,11.2548,11.3466,11.3926,11.3926,11.2973,11.3039,0.0,0.0,9.7224,9.0418,0.0,0.0,0.0,8.0455,8.0094,8.0094,8.1212,8.2224,8.2224,8.2224,8.1892,8.0833,8.0337,8.0023,0.0,0.0,0.0,0.0,0.0,0.0,0.0,0.0,0.0,0.0,0.0,0.0,0.0,11.114,11.1831,11.3291,11.5422,11.6304,11.5739,11.787,11.7571,11.487,11.487,11.4076,11.2548,11.2548,11.2548,11.2548,11.2548,11.2548,11.2548,11.2548,11.2548,11.2548,11.2548,11.2548,11.2548,11.2548,11.2548,11.2548,11.2548,11.2548,11.2548,11.2548,11.2548,11.2548,11.2548,11.2548,11.2548,11.2548,11.2548,11.2548,11.2548,11.2548,11.2548,11.2548,11.2548,11.2548,11.2548,11.2548,11.2548,11.2548,11.2548,11.2548,11.2548,11.2548,11.2548,11.2548,11.2548,11.2548,11.2548,11.2548,11.2548,11.2548,11.2548,11.2548,11.2548,11.2548,11.2548,11.2548,11.2548,11.2548,11.2548,11.2548,11.2778,11.3269,11.3729,11.3729,11.3269,11.3729,11.4222,11.4679,11.4222,11.4781,9.2174,8.9484,8.8078,8.5032,8.2271,8.062,8.1895,8.1047,8.0003,8.0003,8.1113,8.2092,8.2092,8.2092,8.2039,8.1874,8.0922,0.0,0.0,0.0,0.0,0.0,0.0,0.0,0.0,0.0,0.0,0.0,0.0,0.0,11.2117,11.2557,11.3261,11.4738,11.4837,11.5675,11.7317,11.7377,11.6552,11.487,11.487,11.4076,11.2548,11.2548,11.2548,11.2548,11.2548,11.2548,11.2548,11.2548,11.2548,11.2548,11.2548,11.2548,11.2548,11.2548,11.2548,11.2548,11.2548,11.2548,11.2548,11.2548,11.2548,11.2548,11.2548,11.2548,11.2548,11.2548,11.2548,11.2548,11.2548,11.2548,11.2548,11.2548,11.2548,11.2548,11.2548,11.2548,11.2548,11.2548,11.2548,11.2548,11.2548,11.2548,11.2548,11.2548,11.2548,11.2548,11.2548,11.2548,11.2548,11.2548,11.2548,11.2548,11.2548,11.2548,11.2548,11.2548,11.2548,11.2548,11.2548,11.2581,11.3236,11.4581,11.34,11.34,11.4679,11.3367,11.3466,11.4844,11.6228,11.7675,8.6434,8.6816,8.7486,8.3749,8.3868,8.4164,8.131,7.9568,7.854,7.854,7.8836,0.0,0.0,0.0,7.9783,8.1792,0.0,8.374,0.0,8.8189,0.0,0.0,0.0,0.0,0.0,0.0,0.0,0.0,0.0,0.0,11.2187,11.2571,11.2753,11.3185,11.4277,11.5097,11.558,11.6798,11.6552,11.487,11.487,11.4076,11.2548,11.2548,11.2548,11.2548,11.2548,11.2548,11.2548,11.2548,11.2548,11.2548,11.2548,11.2548,11.2548,11.2548,11.2548,11.2548,11.2548,11.2548,11.2548,11.2548,11.2548,11.2548,11.2548,11.2548,11.2548,11.2548,11.2548,11.2548,11.2548,11.2548,11.2548,11.2548,11.2548,11.2548,11.2548,11.2548,11.2548,11.2548,11.2548,11.2548,11.2548,11.2548,11.2548,11.2548,11.2548,11.2548,11.2548,11.2548,11.2548,11.2548,11.2548,11.2548,11.2548,11.2548,11.2548,11.2548,11.2548,11.2548,11.2548,11.3532,11.3795,11.3137,11.5899,11.6491,11.4679,11.6491,11.7543,11.7938,11.7181,11.7675,8.4414,8.4796,8.5588,8.1982,8.3402,8.4565,8.0185,7.9494,7.956,7.8968,0.0,0.0,0.0,0.0,0.0,0.0,8.4863,0.0,0.0,0.0,9.7855,0.0,0.0,0.0,0.0,0.0,0.0,0.0,0.0,10.7754,11.2305,11.2547,11.2548,11.2548,11.3428,11.3907,11.3907,11.4872,11.4872,11.3907,11.3907,11.3428,11.2548,11.2548,11.2548,11.2548,11.2548,11.2548,11.2548,11.2548,11.2548,11.2548,11.2548,11.2548,11.2548,11.2548,11.2548,11.2548,11.2548,11.2548,11.2548,11.2548,11.2548,11.2548,11.2548,11.2548,11.2548,11.2548,11.2548,11.2548,11.2548,11.2548,11.2548,11.2548,11.2548,11.2548,11.2548,11.2548,11.2548,11.2548,11.2548,11.2548,11.2548,11.2548,11.2548,11.2548,11.2548,11.2548,11.2548,11.2548,11.2548,11.2548,11.2548,11.2548,11.2548,11.2548,11.2548,11.2548,11.2548,11.2548,11.2548,11.3926,11.4913,11.5307,11.7181,11.7642,11.6553,11.7642,11.8825,12.0042,11.9121,11.9187,8.4625,8.343,8.3225,8.0464,8.1798,8.2946,7.9676,0.0,8.2297,8.1705,0.0,0.0,8.3415,0.0,0.0,0.0,0.0,0.0,9.5163,0.0,0.0,0.0,0.0,0.0,0.0,0.0,10.9817,11.2348,11.0211,10.9882,11.2416,11.2548,11.2548,11.2548,11.2548,11.2548,11.2548,11.2548,11.2548,11.2548,11.2548,11.2548,11.2548,11.2548,11.2548,11.2548,11.2548,11.2548,11.2548,11.2548,11.2548,11.2548,11.2548,11.2548,11.2548,11.2548,11.2548,11.2548,11.2548,11.2548,11.2548,11.2548,11.2548,11.2548,11.2548,11.2548,11.2548,11.2548,11.2548,11.2548,11.2548,11.2548,11.2548,11.2548,11.2548,11.2548,11.2548,11.2548,11.2548,11.2548,11.2548,11.2548,11.2548,11.2548,11.2548,11.2548,11.2548,11.2548,11.2548,11.2548,11.2548,11.2548,11.2548,11.2548,11.2548,11.2548,11.2548,11.2548,11.2548,11.2548,11.2548,11.3926,11.5994,11.8858,11.7872,11.7938,11.9154,11.7938,11.8694,12.1297,12.1297,12.1297,8.4232,8.3105,8.291,8.1694,8.0894,8.1215,0.0,0.0,0.0,8.9699,0.0,8.9629,9.0784,0.0,0.0,0.0,0.0,0.0,0.0,0.0,0.0,0.0,0.0,0.0,0.0,11.1868,11.1921,11.2515,11.2019,11.1954,11.2515,11.2548,11.2548,11.2548,11.2548,11.2548,11.2548,11.2548,11.2548,11.2548,11.2548,11.2548,11.2548,11.2548,11.2548,11.2548,11.2548,11.2548,11.2548,11.2548,11.2548,11.2548,11.2548,11.2548,11.2548,11.2548,11.2548,11.2548,11.2548,11.2548,11.2548,11.2548,11.2548,11.2548,11.2548,11.2548,11.2548,11.2548,11.2548,11.2548,11.2548,11.2548,11.2548,11.2548,11.2548,11.2548,11.2548,11.2548,11.2548,11.2548,11.2548,11.2548,11.2548,11.2548,11.2548,11.2548,11.2548,11.2548,11.2548,11.2548,11.2548,11.2548,11.2548,11.2548,11.2548,11.2548,11.2548,11.2548,11.2548,11.2548,11.2548,11.3926,11.5501,11.7247,11.9351,12.0009,11.9154,12.0009,12.07,12.1297,12.1297,12.1297,8.4782,8.3904,8.3842,8.2878,8.2709,0.0,0.0,8.6105,8.7196,9.2986,9.3019,9.292,9.578,9.5714,9.6182,0.0,0.0,0.0,0.0,0.0,0.0,0.0,0.0,0.0,0.0,11.2548,11.2548,11.2548,11.2548,11.2548,11.2548,11.2548,11.2548,11.2548,11.2548,11.2548,11.2548,11.2548,11.2548,11.2548,11.2548,11.2548,11.2548,11.2548,11.2548,11.2548,11.2548,11.2548,11.2548,11.2548,11.2548,11.2548,11.2548,11.2548,11.2548,11.2548,11.2548,11.2548,11.2548,11.2548,11.2548,11.2548,11.2548,11.2548,11.2548,11.2548,11.2548,11.2548,11.2548,11.2548,11.2548,11.2548,11.2548,11.2548,11.2548,11.2548,11.2548,11.2548,11.2548,11.2548,11.2548,11.2548,11.2548,11.2548,11.2548,11.2548,11.2548,11.2548,11.2548,11.2548,11.2548,11.2548,11.2548,11.2548,11.2548,11.2548,11.2548,11.2548,11.2548,11.2874,11.3598,11.5011,11.6458,11.7971,12.0173,12.0968,12.0206,12.0968,12.1297,12.1297,12.1297,12.1297,8.499,8.4706,8.4859,8.3768,8.4633,0.0,8.7952,8.8374,9.015,9.65,9.6864,9.7226,10.0973,10.1433,10.165,0.0,0.0,0.0,0.0,0.0,0.0,0.0,0.0,0.0,11.2522,11.2548,11.2548,11.2548,11.2548,11.2548,11.2548,11.2548,11.2548,11.2548,11.2548,11.2548,11.2548,11.2548,11.2548,11.2548,11.2548,11.2548,11.2548,11.2548,11.2548,11.2548,11.2548,11.2548,11.2548,11.2548,11.2548,11.2548,11.2548,11.2548,11.2548,11.2548,11.2548,11.2548,11.2548,11.2548,11.2548,11.2548,11.2548,11.2548,11.2548,11.2548,11.2548,11.2548,11.2548,11.2548,11.2548,11.2548,11.2548,11.2548,11.2548,11.2548,11.2548,11.2548,11.2548,11.2548,11.2548,11.2548,11.2548,11.2548,11.2548,11.2548,11.2548,11.2548,11.2548,11.2548,11.2548,11.2548,11.2548,11.2548,11.2548,11.2548,11.2548,11.2548,11.2548,11.317,11.4614,11.6096,11.7576,11.9121,12.0535,12.1297,12.1297,12.1297,12.1297,12.1297,12.1297,12.1297,8.3537,8.413,8.4958,8.4092,8.4055,0.0,9.2746,9.4298,9.6698,0.0,10.6692,10.712,10.8896,10.8138,10.7779,0.0,0.0,0.0,0.0,0.0,0.0,0.0,0.0,0.0,11.2548,11.2548,11.2548,11.2548,11.2548,11.2548,11.2548,11.2548,11.2548,11.2548,11.2548,11.2548,11.2548,11.2548,11.2548,11.2548,11.2548,11.2548,11.2548,11.2548,11.2548,11.2548,11.2548,11.2548,11.2548,11.2548,11.2548,11.2548,11.2548,11.2548,11.2548,11.2548,11.2548,11.2548,11.2548,11.2548,11.2548,11.2548,11.2548,11.2548,11.2548,11.2548,11.2548,11.2548,11.2548,11.2548,11.2548,11.2548,11.2548,11.2548,11.2548,11.2548,11.2548,11.2548,11.2548,11.2548,11.2548,11.2548,11.2548,11.2548,11.2548,11.2548,11.2548,11.2548,11.2548,11.2548,11.2548,11.2548,11.2548,11.2548,11.2548,11.2548,11.2548,11.2548,11.2548,11.317,11.4614,11.6096,11.7576,11.9121,12.0535,12.1297,12.1297,12.1297,12.1297,12.1297,12.1297,12.1297,8.4302,8.4701,8.5162,8.5194,0.0,0.0,9.4098,9.5876,9.8736,0.0,10.7614,10.7975,11.1066,11.1165,11.0934,0.0,0.0,0.0,0.0,0.0,0.0,0.0,0.0,0.0,0.0,11.2548,11.2548,11.2548,11.2548,11.2548,11.2548,11.2548,11.2548,11.2548,11.2548,11.2548,11.2548,11.2548,11.2548,11.2548,11.2548,11.2548,11.2548,11.2548,11.2548,11.2548,11.2548,11.2548,11.2548,11.2548,11.2548,11.2548,11.2548,11.2548,11.2548,11.2548,11.2548,11.2548,11.2548,11.2548,11.2548,11.2548,11.2548,11.2548,11.2548,11.2548,11.2548,11.2548,11.2548,11.2548,11.2548,11.2548,11.2548,11.2548,11.2548,11.2548,11.2548,11.2548,11.2548,11.2548,11.2548,11.2548,11.2548,11.2548,11.2548,11.2548,11.2548,11.2548,11.2548,11.2548,11.2548,11.2548,11.2548,11.2548,11.2548,11.2548,11.2548,11.2548,11.2548,11.317,11.4614,11.6096,11.7576,11.9121,12.0535,12.1297,12.1297,12.1297,12.1297,12.1297,12.1297,12.1297,8.5182,0.0,0.0,0.0,0.0,0.0,9.7957,9.9657,10.2123,10.8171,10.8633,10.8864,11.1989,11.2548,11.2548,11.2548,0.0,0.0,0.0,0.0,0.0,0.0,0.0,0.0,0.0,0.0,0.0,0.0,11.2548,11.2548,11.2548,11.2548,11.2548,11.2548,11.2548,11.2548,11.2548,11.2548,11.2548,11.2548,11.2548,11.2548,11.2548,11.2548,11.2548,11.2548,11.2548,11.2548,11.2548,11.2548,11.2548,11.2548,11.2548,11.2548,11.2548,11.2548,11.2548,11.2548,11.2548,11.2548,11.2548,11.2548,11.2548,11.2548,11.2548,11.2548,11.2548,11.2548,11.2548,11.2548,11.2548,11.2548,11.2548,11.2548,11.2548,11.2548,11.2548,11.2548,11.2548,11.2548,11.2548,11.2548,11.2548,11.2548,11.2548,11.2548,11.2548,11.2548,11.2548,11.2548,11.2548,11.2548,11.2548,11.2548,11.2548,11.2548,11.2548,11.2548,11.2548,11.317,11.4614,11.6096,11.7576,11.9121,12.0535,12.1297,12.1297,12.1297,12.1297,12.1297,12.1297,12.1297,0.0,0.0,0.0,9.4171,9.6944,10.077,10.6566,10.7908,10.8796,11.1789,11.2416,11.2416,11.2548,11.2548,11.2548,11.2548,0.0,0.0,0.0,0.0,0.0,0.0,0.0,0.0,0.0,0.0,0.0,0.0,11.2548,11.2548,11.2548,11.2548,11.2548,11.2548,11.2548,11.2548,11.2548,11.2548,11.2548,11.2548,11.2548,11.2548,11.2548,11.2548,11.2548,11.2548,11.2548,11.2548,11.2548,11.2548,11.2548,11.2548,11.2548,11.2548,11.2548,11.2548,11.2548,11.2548,11.2548,11.2548,11.2548,11.2548,11.2548,11.2548,11.2548,11.2548,11.2548,11.2548,11.2548,11.2548,11.2548,11.2548,11.2548,11.2548,11.2548,11.2548,11.2548,11.2548,11.2548,11.2548,11.2548,11.2548,11.2548,11.2548,11.2548,11.2548,11.2548,11.2548,11.2548,11.2548,11.2548,11.2548,11.2548,11.2548,11.2548,11.2548,11.2548,11.2548,11.2548,11.317,11.4614,11.6096,11.7576,11.9121,12.0535,12.1297,12.1297,12.1297,12.1297,12.1297,12.1297,12.1297,8.807,9.0941,9.4142,9.6085,10.0254,10.4446,10.6399,10.906,11.1362,11.2351,11.2548,11.2548,11.2548,11.2548,11.2548,11.2548,0.0,0.0,0.0,0.0,0.0,0.0,0.0,0.0,0.0,0.0,0.0,0.0,0.0,0.0,11.2548,11.2548,11.2548,11.2548,11.2548,11.2548,11.2548,11.2548,11.2548,11.2548,11.2548,11.2548,11.2548,11.2548,11.2548,11.2548,11.2548,11.2548,11.2548,11.2548,11.2548,11.2548,11.2548,11.2548,11.2548,11.2548,11.2548,11.2548,11.2548,11.2548,11.2548,11.2548,11.2548,11.2548,11.2548,11.2548,11.2548,11.2548,11.2548,11.2548,11.2548,11.2548,11.2548,11.2548,11.2548,11.2548,11.2548,11.2548,11.2548,11.2548,11.2548,11.2548,11.2548,11.2548,11.2548,11.2548,11.2548,11.2548,11.2548,11.2548,11.2548,11.2548,11.2548,11.2548,11.2548,11.2548,11.2548,11.2548,11.2548,11.2778,11.3236,11.557,11.7083,11.7609,12.0009,12.1297,12.1297,12.1297,12.1297,12.1297,12.1297,12.1297,9.0477,9.3558,9.6761,10.0272,10.4799,10.8649,10.9724,11.2085,11.4058,11.4058,11.3663,11.3137,11.2647,11.2548,11.2548,11.2548,11.2548,0.0,0.0,0.0,0.0,0.0,0.0,0.0,0.0,0.0,0.0,0.0,0.0,11.2548,11.2548,11.2548,11.2548,11.2548,11.2548,11.2548,11.2548,11.2548,11.2548,11.2548,11.2548,11.2548,11.2548,11.2548,11.2548,11.2548,11.2548,11.2548,11.2548,11.2548,11.2548,11.2548,11.2548,11.2548,11.2548,11.2548,11.2548,11.2548,11.2548,11.2548,11.2548,11.2548,11.2548,11.2548,11.2548,11.2548,11.2548,11.2548,11.2548,11.2548,11.2548,11.2548,11.2548,11.2548,11.2548,11.2548,11.2548,11.2548,11.2548,11.2548,11.2548,11.2548,11.2548,11.2548,11.2548,11.2548,11.2548,11.2548,11.2548,11.2548,11.2548,11.2548,11.2548,11.2548,11.2548,11.2548,11.2548,11.2548,11.3039,11.3302,11.3302,11.6096,11.7675,11.7675,12.0042,12.1297,12.1297,12.1297,12.1297,12.1297,12.1297,12.1297,9.281,9.66,10.0602,10.6522,11.0253,11.3241,11.6061,11.6754,11.682,11.682,11.5665,11.4219,11.2809,11.2548,11.2548,11.2548,11.2548,0.0,0.0,0.0,0.0,0.0,0.0,0.0,0.0,0.0,0.0,0.0,11.2548,11.2548,11.2548,11.2548,11.2548,11.2548,11.2548,11.2548,11.2548,11.2548,11.2548,11.2548,11.2548,11.2548,11.2548,11.2548,11.2548,11.2548,11.2548,11.2548,11.2548,11.2548,11.2548,11.2548,11.2548,11.2548,11.2548,11.2548,11.2548,11.2548,11.2548,11.2548,11.2548,11.2548,11.2548,11.2548,11.2548,11.2548,11.2548,11.2548,11.2548,11.2548,11.2548,11.2548,11.2548,11.2548,11.2548,11.2548,11.2548,11.2548,11.2548,11.2548,11.2548,11.2548,11.2548,11.2548,11.2548,11.2548,11.2548,11.2548,11.2548,11.2548,11.2548,11.2548,11.2548,11.2548,11.2548,11.2548,11.2548,11.2548,11.3828,11.4614,11.4679,11.751,11.9088,11.9154,12.0535,12.1297,12.1297,12.1297,12.1297,12.1297,12.1297,12.1297,9.5481,10.2271,10.7726,10.9264,11.1873,11.4291,11.5051,11.6064,11.682,11.682,11.5665,11.4219,11.2809,11.2548,11.2548,11.2548,11.2548,11.2548,0.0,0.0,0.0,0.0,0.0,0.0,0.0,0.0,0.0,0.0,11.2548,11.2548,11.2548,11.2548,11.2548,11.2548,11.2548,11.2548,11.2548,11.2548,11.2548,11.2548,11.2548,11.2548,11.2548,11.2548,11.2548,11.2548,11.2548,11.2548,11.2548,11.2548,11.2548,11.2548,11.2548,11.2548,11.2548,11.2548,11.2548,11.2548,11.2548,11.2548,11.2548,11.2548,11.2548,11.2548,11.2548,11.2548,11.2548,11.2548,11.2548,11.2548,11.2548,11.2548,11.2548,11.2548,11.2548,11.2548,11.2548,11.2548,11.2548,11.2548,11.2548,11.2548,11.2548,11.2548,11.2548,11.2548,11.2548,11.2548,11.2548,11.2548,11.2548,11.2548,11.2548,11.2548,11.2548,11.2548,11.2548,11.2548,11.291,11.3565,11.4647,11.6458,11.7971,11.9154,12.0535,12.1297,12.1297,12.1297,12.1297,12.1297,12.1297,12.1297,9.5037,10.2761,10.9768,11.1758,11.3002,11.3926,11.4548,11.5304,11.5899,11.5899,11.5238,11.4416,11.3631,11.2973,11.2548,11.2548,11.2548,11.2548,0.0,0.0,0.0,0.0,0.0,0.0,0.0,0.0,0.0,0.0,11.2548,11.2548,11.2548,11.2548,11.2548,11.2548,11.2548,11.2548,11.2548,11.2548,11.2548,11.2548,11.2548,11.2548,11.2548,11.2548,11.2548,11.2548,11.2548,11.2548,11.2548,11.2548,11.2548,11.2548,11.2548,11.2548,11.2548,11.2548,11.2548,11.2548,11.2548,11.2548,11.2548,11.2548,11.2548,11.2548,11.2548,11.2548,11.2548,11.2548,11.2548,11.2548,11.2548,11.2548,11.2548,11.2548,11.2548,11.2548,11.2548,11.2548,11.2548,11.2548,11.2548,11.2548,11.2548,11.2548,11.2548,11.2548,11.2548,11.2548,11.2548,11.2548,11.2548,11.2548,11.2548,11.2548,11.2548,11.2548,11.2548,11.2548,11.3137,11.4124,11.5534,11.7083,11.8562,12.0075,12.0864,12.1297,12.1297,12.1297,12.1297,12.1297,12.1297,12.1297,9.4893,10.1942,10.9581,11.3838,11.3736,11.2874,11.4124,11.4548,11.4679,11.4679,11.4384,11.4121,11.4121,11.3104,11.2285,11.2285,11.2449,11.2548,11.2548,0.0,0.0,0.0,0.0,0.0,0.0,0.0,0.0,0.0,11.2548,11.2548,11.2548,11.2548,11.2548,11.2548,11.2548,11.2548,11.2548,11.2548,11.2548,11.2548,11.2548,11.2548,11.2548,11.2548,11.2548,11.2548,11.2548,11.2548,11.2548,11.2548,11.2548,11.2548,11.2548,11.2548,11.2548,11.2548,11.2548,11.2548,11.2548,11.2548,11.2548,11.2548,11.2548,11.2548,11.2548,11.2548,11.2548,11.2548,11.2548,11.2548,11.2548,11.2548,11.2548,11.2548,11.2548,11.2548,11.2548,11.2548,11.2548,11.2548,11.2548,11.2548,11.2548,11.2548,11.2548,11.2548,11.2548,11.2548,11.2548,11.2548,11.2548,11.2548,11.2548,11.2548,11.2548,11.2548,11.2548,11.2548,11.3729,11.5107,11.6754,11.8135,11.9615,12.1264,12.1297,12.1297,12.1297,12.1297,12.1297,12.1297,12.1297,12.1297,10.3658,10.8222,11.2379,11.436,11.3736,11.2614,11.2841,11.3828,11.4679,11.4679,11.2773,11.1165,11.1165,11.0967,11.077,11.077,11.1756,11.2548,11.2548,11.2548,0.0,0.0,0.0,0.0,0.0,0.0,0.0,0.0,0.0,11.2548,11.2548,11.2548,11.2548,11.2548,11.2548,11.2548,11.2548,11.2548,11.2548,11.2548,11.2548,11.2548,11.2548,11.2548,11.2548,11.2548,11.2548,11.2548,11.2548,11.2548,11.2548,11.2548,11.2548,11.2548,11.2548,11.2548,11.2548,11.2548,11.2548,11.2548,11.2548,11.2548,11.2548,11.2548,11.2548,11.2548,11.2548,11.2548,11.2548,11.2548,11.2548,11.2548,11.2548,11.2548,11.2548,11.2548,11.2548,11.2548,11.2548,11.2548,11.2548,11.2548,11.2548,11.2548,11.2548,11.2548,11.2548,11.2548,11.2548,11.2548,11.2548,11.2548,11.2548,11.2548,11.2548,11.2548,11.2548,11.2548,11.2776,11.4091,11.6721,11.7083,11.8497,12.1264,12.1297,12.1297,12.1297,12.1297,12.1297,12.1297,12.1297,12.1297,10.2876,10.762,11.1883,11.3378,11.3789,11.3771,11.3771,11.3678,11.2904,11.0427,11.0773,11.1081,10.9445,10.987,11.0408,11.0408,11.1,11.1691,11.2449,11.2548,0.0,0.0,0.0,0.0,0.0,0.0,0.0,0.0,0.0,11.2874,11.3631,11.294,11.291,11.3631,11.294,11.2548,11.2548,11.2548,11.2548,11.2548,11.2548,11.2548,11.2548,11.2548,11.2548,11.2581,11.3335,11.3236,11.2548,11.2548,11.2548,11.2548,11.2548,11.2548,11.2548,11.2548,11.2548,11.2548,11.2548,11.2548,11.2548,11.2548,11.2548,11.2548,11.2548,11.2548,11.2548,11.2548,11.2548,11.2548,11.2548,11.2548,11.2548,11.2548,11.2548,11.2548,11.2548,11.2548,11.2548,11.2548,11.2548,11.2548,11.2548,11.2548,11.2548,11.2548,11.2548,11.2548,11.2548,11.2548,11.2548,11.2548,11.2548,11.2548,11.2548,11.2548,11.2548,11.2548,11.2548,11.3828,11.6688,11.682,11.8234,12.1264,12.1297,12.1297,12.1297,12.1297,12.1297,12.1297,12.1297,12.1297,10.0451,10.5857,11.1024,11.2605,11.3987,11.4748,11.4065,11.3237,11.1438,10.74,10.9545,11.13,10.86,10.8848,10.9488,10.9488,11.0014,11.0803,11.1921,11.2348,11.268,0.0,0.0,0.0,0.0,0.0,0.0,0.0,0.0,0.0,11.4153,11.3137,11.3072,11.4222,11.3137,11.2548,11.2548,11.2548,11.2548,0.0,11.2548,11.2548,11.2548,11.2548,11.2548,11.2647,11.4091,11.4058,11.3039,11.337,11.314,11.2581,11.2874,11.2809,11.2548,11.2548,11.2548,11.2548,11.2548,11.2548,11.2548,11.2548,11.2548,11.2548,11.2548,11.2548,11.2548,11.2548,11.2548,11.2548,11.2548,11.2548,11.2548,11.2548,11.2548,11.2548,11.2548,11.2548,11.2548,11.2548,11.2548,11.2548,11.2548,11.2548,11.2548,11.2548,11.2548,11.2548,11.2548,11.2548,11.2548,11.2548,11.2548,11.2548,11.2548,11.2548,11.2548,11.2548,11.2548,11.3828,11.6688,11.682,11.8234,12.1264,12.1297,12.1297,12.1297,12.1297,12.1127,12.0798,12.0798,12.0798,10.152,10.6509,11.1863,11.3401,11.4444,11.4296,11.1467,11.1824,11.2167,11.0209,11.0331,11.0257,10.858,10.732,10.6496,10.6496,10.8699,11.0441,11.0573,11.1724,11.3039,11.4318,0.0,0.0,0.0,0.0,0.0,0.0,0.0,0.0,0.0,11.2647,11.2614,11.2745,11.2647,11.2548,11.2548,11.2548,11.2548,11.2548,11.2548,11.2548,11.2548,11.2548,11.2548,11.2647,11.4091,11.4614,11.4581,11.5899,11.488,11.268,11.3992,11.3696,11.2548,11.2548,11.2548,11.2548,11.2548,11.2548,11.2548,11.2548,11.2548,11.2548,11.2548,11.2548,11.2548,11.2548,11.2548,11.2548,11.2548,11.2548,11.2548,11.2548,11.2548,11.2548,11.2548,11.2548,11.2548,11.2548,11.2548,11.2548,11.2548,11.2548,11.2548,11.2548,11.2548,11.2548,11.2548,11.2548,11.2548,11.2548,11.2548,11.2548,11.2548,11.2548,11.2548,11.2548,11.2548,11.3828,11.6688,11.682,11.8234,12.1264,12.1297,12.1297,12.1297,12.1297,12.0634,11.9351,11.9351,11.9351,9.5202,10.1202,10.7182,10.6838,10.9531,11.1953,11.0709,11.087,11.0889,10.9293,10.978,10.9777,10.731,10.6465,10.6431,10.7285,10.7646,10.8731,11.1329,11.294,11.3729,11.3433,11.5768,0.0,0.0,0.0,0.0,0.0,0.0,0.0,0.0,11.4814,11.4683,11.6458,11.4781,11.3828,11.3828,11.3828,11.34,11.2548,11.2548,11.2548,11.2581,11.3433,11.3828,11.3926,11.5373,11.5998,11.6031,11.659,11.5143,11.2677,11.4121,11.3828,11.2548,11.2548,11.2548,11.2548,11.2548,11.2548,11.2548,11.2548,11.2548,11.2548,11.2548,11.2548,11.2548,11.2548,11.2548,11.2548,11.2548,11.2548,11.2548,11.2548,11.2548,11.2548,11.2548,11.2548,11.2548,11.2548,11.2548,11.2548,11.2548,11.2548,11.2548,11.2548,11.2548,11.2548,11.2548,11.2548,11.2548,11.2548,11.2548,11.2548,11.2548,11.2548,11.2548,11.2548,11.2548,11.3828,11.6688,11.682,11.8234,12.1264,12.1297,12.1297,12.1297,12.1297,12.0535,11.9154,11.9154,11.9154,9.0337,9.6401,10.2425,10.1536,10.4981,10.8998,11.0374,10.911,10.7871,10.8671,10.9374,10.888,10.5822,10.5027,10.5247,10.6665,10.6466,10.7516,11.1362,11.3137,11.3828,11.3236,11.5932,11.7017,0.0,0.0,0.0,0.0,0.0,0.0,0.0,11.6491,11.6257,11.8398,11.6389,11.5107,11.4679,11.4679,11.3959,11.2548,11.2548,11.2548,11.2614,11.4022,11.4679,11.4778,11.6688,11.7543,11.7543,11.7543,11.5801,11.3269,11.4285,11.3828,11.2548,11.2548,11.2548,11.2548,11.2548,11.2548,11.2548,11.2548,11.2548,11.2548,11.2548,11.2548,11.2548,11.2548,11.2548,11.2548,11.2548,11.2548,11.2548,11.2548,11.2548,11.2548,11.2548,11.2548,11.2548,11.2548,11.2548,11.2548,11.2548,11.2548,11.2548,11.2548,11.2548,11.2548,11.2548,11.2548,11.2548,11.2548,11.2548,11.2548,11.2548,11.2548,11.2548,11.2548,11.2548,11.3828,11.6688,11.682,11.8234,12.1264,12.1297,12.1099,12.0634,12.1099,12.0305,11.8497,11.8957,11.9154,8.8873,9.355,9.8743,9.9377,10.1999,10.565,11.0322,10.6072,10.2986,10.9271,10.9451,10.7494,10.4232,10.2574,10.2139,10.3428,10.5033,10.712,11.0014,11.1658,11.3072,11.4482,11.4679,11.4712,11.4679,0.0,0.0,0.0,0.0,0.0,0.0,11.682,11.682,11.6853,11.682,11.6129,11.4679,11.4679,11.3959,11.2548,11.2548,11.2548,11.2614,11.4022,11.4679,11.4844,11.7839,11.9154,11.9154,11.9154,11.7379,11.4647,11.4679,11.3828,11.2548,11.2548,11.2548,11.2548,11.2548,11.2548,11.2548,11.2548,11.2548,11.2548,11.2548,11.2548,11.2548,11.2548,11.2548,11.2548,11.2548,11.2548,11.2548,11.2548,11.2548,11.2548,11.2548,11.2548,11.2548,11.2548,11.2548,11.2548,11.2548,11.2548,11.2548,11.2548,11.2548,11.2548,11.2548,11.2548,11.2548,11.2548,11.2548,11.2548,11.2548,11.2548,11.2548,11.2548,11.2548,11.3828,11.6688,11.682,11.8234,12.1264,12.1297,12.0568,11.9187,12.0601,11.9746,11.6886,11.8431,11.9154,8.67,9.1291,9.6344,9.8253,9.9151,10.068,10.4843,10.748,10.829,10.5468,10.6643,10.7224,10.4033,10.4969,10.663,10.8053,10.7884,10.86,11.1496,11.3104,11.3466,11.1954,11.4354,11.5406,11.34,0.0,0.0,0.0,0.0,0.0,0.0,11.7412,11.774,11.9812,11.8924,11.8201,11.7773,11.6688,11.5439,11.4025,11.4025,11.4025,11.4058,11.5505,11.5636,11.4844,11.7872,11.8562,11.7477,11.6524,11.6129,11.6064,11.5074,11.3828,11.2548,11.2548,11.2548,11.2548,11.2548,11.2548,11.2548,11.2548,11.2548,11.2548,11.2548,11.2548,11.2548,11.2548,11.2548,11.2548,11.2548,11.2548,11.2548,11.2548,11.2548,11.2548,11.2548,11.2548,11.2548,11.2548,11.2548,11.2548,11.2548,11.2548,11.2548,11.2548,11.2548,11.2548,11.2548,11.2548,11.2548,11.2548,11.2548,11.2548,11.2548,11.2548,11.2548,11.2548,11.3466,11.488,11.6754,11.7872,11.9319,12.1264,12.1297,12.1099,12.0601,12.1099,12.0305,11.8431,11.8924,11.9154,8.6094,9.032,9.5085,9.6576,9.6217,9.676,10.1648,10.4929,10.5682,10.1325,10.3073,10.4697,10.226,10.4472,10.7256,10.9146,10.8808,10.9256,11.2118,11.3302,11.3203,11.1428,11.3565,11.4485,11.2745,11.465,0.0,0.0,0.0,0.0,11.8234,11.7346,11.7675,11.9516,11.876,11.8299,11.8299,11.7313,11.6392,11.5501,11.5501,11.5205,11.4745,11.6787,11.6918,11.5633,11.8661,11.9417,11.8398,11.6984,11.6557,11.6688,11.5238,11.3828,11.2548,11.2548,11.2548,11.2548,11.2548,11.2548,11.2548,11.2548,11.2548,11.2548,11.2548,11.2548,11.2548,11.2548,11.2548,11.2548,11.2548,11.2548,11.2548,11.2548,11.2548,11.2548,11.2548,11.2548,11.2548,11.2548,11.2548,11.2548,11.2548,11.2548,11.2548,11.2548,11.2548,11.2548,11.2548,11.2548,11.2548,11.2548,11.2548,11.2548,11.2548,11.2548,11.2548,11.2548,11.3367,11.4518,11.5965,11.6951,11.8168,11.9582,11.9582,11.9582,11.9582,11.9582,11.945,11.9154,11.8562,11.8595,8.6904,9.0268,9.4474,9.469,9.3644,9.4043,9.9893,9.9277,9.7408,9.7085,9.8822,10.0073,9.8958,10.1221,10.4276,10.7247,10.8119,10.9389,11.2055,11.2515,11.2515,11.2416,11.2515,11.2515,11.2416,11.3696,11.4515,0.0,0.0,0.0,11.6688,11.6688,11.6721,11.682,11.682,11.682,11.682,11.682,11.682,11.682,11.6721,11.5998,11.4778,11.7708,11.8201,11.6984,11.9878,12.1099,12.0864,11.9417,11.7905,11.6392,11.5041,11.3729,11.2548,11.2548,11.2548,11.2548,11.2548,11.2548,11.2548,11.2548,11.2548,11.2548,11.2548,11.2548,11.2548,11.2548,11.2548,11.2548,11.2548,11.2548,11.2548,11.2548,11.2548,11.2548,11.2548,11.2548,11.2548,11.2548,11.2548,11.2548,11.2548,11.2548,11.2548,11.2548,11.2548,11.2548,11.2548,11.2548,11.2548,11.2548,11.2548,11.2548,11.2548,11.2548,11.2548,11.2548,11.2647,11.3302,11.4614,11.4877,11.5633,11.6951,11.7083,11.7083,11.6984,11.6984,11.7675,11.8957,11.751,11.7675,8.7876,8.9048,9.0993,9.474,9.5056,9.4232,9.3443,9.5935,9.7511,9.4193,9.3657,9.4047,9.4951,9.5712,9.8441,10.5151,10.8318,11.0145,11.0803,11.1855,11.2118,11.1033,11.189,11.2153,11.1,11.2184,11.3039,11.3039,0.0,0.0,11.5107,11.5172,11.5702,11.6787,11.682,11.682,11.682,11.682,11.682,11.682,11.5735,11.5008,11.4745,11.6557,11.7181,11.6918,11.8825,11.899,11.774,11.6327,11.488,11.3499,11.317,11.2841,11.2548,11.2548,11.2548,11.2548,11.2548,11.2548,11.2548,11.2548,11.2548,11.2548,11.2548,11.2548,11.2548,11.2548,11.2548,11.2548,11.2548,11.2548,11.2548,11.2548,11.2548,11.2548,11.2548,11.2548,11.2548,11.2548,11.2548,11.2548,11.2548,11.2548,11.2548,11.2548,11.2548,11.2548,11.2548,11.2548,11.2548,11.2548,11.2548,11.2548,11.2548,11.2548,11.2548,11.2548,11.3598,11.4318,11.4679,11.6882,11.8266,11.8628,11.968,11.968,11.8628,11.8628,11.8201,11.7379,11.6984,11.7675,8.7485,8.8264,8.9385,9.1679,9.172,9.0859,8.9616,9.1053,9.2013,8.9704,8.9877,9.0961,9.2628,9.473,9.7613,10.1825,10.407,10.5273,10.5378,10.7252,10.8567,10.8468,0.0,11.1493,11.1395,11.212,11.2548,11.2548,11.2548,0.0,11.3663,11.3696,11.4058,11.4847,11.4847,11.5176,11.5833,11.5833,11.5833,11.5833,11.5735,11.5304,11.4745,11.6195,11.6491,11.5932,0.0,11.8003,11.774,11.5603,11.4617,11.4354,11.3039,11.2548,11.2548,11.2548,11.2548,11.2548,11.2548,11.2548,11.2548,11.2548,11.2548,11.2548,11.2548,11.2548,11.2548,11.2548,11.2548,11.2416,11.1724,11.1559,11.1395,11.0737,11.0573,11.0573,11.0573,11.0573,11.0573,11.0573,11.0573,11.0573,11.0573,11.0573,11.0573,11.0573,11.0573,11.0573,11.0573,11.0573,11.0573,11.0573,11.0573,11.0836,11.1493,11.1559,11.1822,11.2515,11.2677,11.2743,11.2743,11.4288,11.5439,11.6096,11.6889,11.7214,11.7116,11.6458,11.6359,11.6787,11.5472,11.5998,8.6379,8.7248,8.7954,8.7282,8.6737,8.6548,8.7181,8.6343,8.5367,8.5367,8.7054,8.8956,9.0377,9.4186,9.7313,9.7953,9.8114,9.8348,9.9087,10.1991,10.4457,10.5641,10.8534,11.0902,11.212,11.2416,11.2548,11.2548,11.2548,11.2548,11.2548,11.2548,11.2548,11.2548,11.2548,11.3137,11.4351,11.4351,11.4351,11.4351,11.5603,11.5537,11.4416,11.5833,11.5833,11.4745,0.0,11.7444,11.8266,11.5501,11.4946,11.5603,11.317,11.2217,11.2217,11.2482,11.2548,11.2548,11.2548,11.2548,11.2548,11.2548,11.2548,11.2548,11.2548,11.2548,11.2449,11.2055,11.1888,11.1592,11.0408,11.008,10.9784,10.8566,10.827,10.827,10.827,10.827,10.827,10.827,10.827,10.827,10.827,10.827,10.827,10.827,10.827,10.827,10.827,10.827,10.827,10.827,10.827,10.8763,10.9981,11.0277,11.0836,11.1822,11.077,11.008,11.008,11.008,11.077,11.2219,11.2449,11.3137,11.4351,11.3137,11.3762,11.6096,11.3699,11.3959,8.4945,8.4586,8.3877,8.3786,8.4333,8.4896,8.5052,8.4876,8.4697,8.4697,8.5026,8.5339,8.5613,8.7337,9.009,9.4272,9.4063,9.4374,9.7292,10.1334,10.4096,10.4293,10.7942,11.0507,11.0737,11.1822,11.2548,11.2548,11.2548,11.2548,11.2548,11.2548,11.2548,11.2548,11.2548,11.2647,11.2874,11.2874,11.2874,11.2874,11.3072,11.3072,11.2907,11.4354,11.4877,11.4745,0.0,0.0,11.5238,11.3565,11.2282,11.1362,11.0902,11.0737,11.0869,11.212,11.2548,11.2548,11.2548,11.2548,11.2548,11.2548,11.2548,11.2548,11.2548,11.2548,11.2019,10.9585,10.8927,10.8862,10.8664,10.8599,10.8533,10.8336,10.827,10.827,10.827,10.827,10.827,10.827,10.827,10.827,10.827,10.827,10.827,10.827,10.827,10.827,10.827,10.827,10.827,10.827,10.827,10.8369,10.8566,10.9718,10.9981,10.8993,10.873,10.8599,10.8599,10.8599,10.9256,11.0704,11.1921,11.268,11.2874,11.2647,11.2778,11.317,11.2745,11.3433,8.2796,8.1486,8.0458,8.2501,8.3376,8.3878,8.4415,8.4569,8.4569,8.4569,8.4569,8.4819,8.5658,8.6502,8.808,9.1044,9.0747,9.1199,9.4225,9.8657,10.1861,10.2649,10.5904,10.8403,0.0,11.054,11.1395,11.1395,11.2085,11.2548,11.2548,11.2548,11.2548,11.2548,11.2548,11.2548,11.2548,11.2548,11.2186,11.1395,11.2151,11.2118,11.1428,11.2874,11.3532,0.0,0.0,0.0,11.4449,11.146,11.077,11.1395,10.9882,10.9223,10.9322,10.9981,11.0737,11.1263,11.0507,11.0737,11.1263,11.0507,11.0244,11.0244,11.0244,11.0244,10.9981,10.8632,10.827,10.8106,10.7318,10.712,10.6923,10.6133,10.5936,10.5936,10.5936,10.5936,10.5936,10.5936,10.5936,10.5936,10.5936,10.5936,10.5936,10.5936,10.5936,10.5936,10.5936,10.5936,10.5936,10.5936,10.5936,10.6298,10.7055,10.7712,10.7482,10.6068,10.6693,10.6792,10.6002,10.6726,10.7416,10.8074,10.9488,11.0244,11.0244,11.0244,11.0244,11.0244,11.0244,11.1,8.0779,0.0,7.94,8.3645,8.4336,8.4319,0.0,8.5069,8.4569,8.4569,8.4569,8.4926,8.6105,8.6515,8.7196,8.8985,8.8057,8.8456,9.2332,9.5241,9.7785,9.992,10.278,10.5148,10.6561,10.8666,10.9915,10.9915,11.0902,11.1691,11.2055,11.2019,11.2219,11.2548,11.2217,11.2219,11.2548,11.2548,11.1987,11.0902,11.1658,11.146,11.0441,11.1526,11.1855,0.0,0.0,0.0,11.2904,10.9256,10.906,11.0838,10.8633,10.7744,10.781,10.8138,10.896,10.9751,10.8664,10.8993,10.9751,10.8632,10.827,10.827,10.827,10.781,10.7251,10.7251,10.7251,10.6988,10.5904,10.5608,10.5345,10.426,10.3997,10.3997,10.3997,10.3997,10.3997,10.3997,10.3997,10.3997,10.3997,10.3997,10.3997,10.3997,10.3997,10.3997,10.3997,10.3997,10.3997,10.3997,10.3997,10.4457,10.5509,10.5608,10.5148,10.4096,10.5016,10.5148,10.403,10.5049,10.5608,10.5608,10.6726,10.7251,10.7251,10.7613,10.7941,10.827,10.827,10.8829,0.0,8.0733,8.2664,8.8282,8.8333,8.7327,8.8584,8.6639,0.0,8.4569,8.4569,8.4605,8.4676,8.4716,8.5775,8.8891,8.6214,8.6241,9.3491,9.1686,9.108,9.5218,9.8212,10.0546,10.1991,10.5936,10.8434,10.8434,10.8533,10.9157,11.0507,11.0573,11.1165,11.2515,11.1263,11.1197,11.2548,11.2548,11.2515,11.2384,11.1132,11.0507,11.0408,11.0507,10.9849,0.0,0.0,10.9784,0.0,10.6956,10.6431,10.6562,10.6398,10.6266,10.643,10.7777,10.8336,10.8401,10.8303,10.8336,10.8401,10.8303,10.827,10.827,10.827,10.6396,10.4326,10.4326,10.4326,10.4293,10.4194,10.4161,10.4128,10.403,10.3997,10.3997,10.3997,10.3997,10.3997,10.3997,10.3997,10.3997,10.3997,10.3997,10.3997,10.3997,10.3997,10.3997,10.3997,10.3997,10.3997,10.3997,10.3997,10.403,10.4128,10.4161,10.4128,10.3997,10.4096,10.4096,10.3997,10.4096,10.4161,10.4161,10.426,10.4326,10.4326,10.5641,10.6956,10.827,10.827,10.8336,7.8327,8.0961,8.4446,8.9035,8.9619,8.9145,8.9203,8.8316,8.6924,8.4961,8.4569,8.4569,8.4569,8.4569,8.5272,8.7491,8.5347,8.5987,9.3477,9.2754,9.3413,9.8638,9.8638,9.9492,10.2813,10.2945,10.3964,10.6726,10.7744,10.85,10.9026,10.9092,10.8929,10.8568,10.8008,10.7975,10.8534,11.031,11.077,10.9882,11.0244,10.9948,10.9092,10.9092,10.8763,0.0,0.0,10.7942,0.0,10.5772,10.5312,10.6035,10.5148,10.4819,10.4885,10.541,10.62,10.6825,10.5903,10.62,10.6792,10.5904,10.5608,10.5608,10.5608,10.4852,10.3997,10.3997,10.3997,10.3997,10.3997,10.3997,10.3997,10.3997,10.3997,10.3997,10.3997,10.3997,10.3997,10.3997,10.3997,10.3997,10.3997,10.3997,10.3997,10.3997,10.3997,10.3997,10.3997,10.3997,10.3997,10.3997,10.3997,10.3997,10.3997,10.3997,10.4391,10.5279,10.5312,10.5312,10.5312,10.5312,10.4918,10.403,10.3997,10.3997,10.3997,10.4556,10.5082,10.5608,10.5608,10.5608,8.0576,8.3395,8.6898,9.1858,9.234,9.1454,9.085,8.9939,8.8334,8.5211,8.4569,8.4569,8.4569,8.4569,8.4789,8.5544,8.4001,8.5162,9.2186,9.2369,9.3545,9.8376,9.8013,9.8375,10.0972,10.1039,10.2189,10.5213,10.6397,10.712,10.7581,10.7152,10.6693,10.6134,10.6135,10.6331,10.6825,10.8304,10.8567,10.758,10.7646,10.712,10.6199,10.6692,10.6627,0.0,0.0,10.643,0.0,10.4819,10.4589,10.5345,10.4391,10.3997,10.3997,10.3997,10.4622,10.5312,10.4326,10.4622,10.5279,10.4326,10.3997,10.3997,10.3997,10.3997,10.3997,10.3997,10.3997,10.3997,10.3997,10.3997,10.3997,10.3997,10.3997,10.3865,10.3372,10.3274,10.3142,10.2682,10.2551,10.2551,10.2551,10.2551,10.2551,10.2551,10.2551,10.2551,10.2551,10.3011,10.3274,10.3274,10.3701,10.3635,10.2649,10.2551,10.3208,10.4622,10.5181,10.5444,10.5444,10.5904,10.5444,10.403,10.3997,10.3997,10.3997,10.3997,10.3997,10.3997,10.3997,10.3997,8.6621,8.8649,9.0401,9.7531,9.6992,9.4558,9.4005,9.1455,8.8369,8.5211,8.4569,8.4569,8.4569,8.4569,8.4245,8.3192,8.2051,8.3425,8.9519,8.9501,8.9929,9.2822,9.5678,9.6829,9.5383,10.0545,10.3997,10.3997,10.3997,0.0,10.6036,10.4753,10.4622,10.6003,10.6102,10.6759,10.8138,10.6792,10.6102,10.6069,10.3076,10.1662,10.1728,10.3274,10.3109,10.1794,0.0,10.5246,0.0,10.3997,10.3997,10.3997,10.3997,10.3997,10.3997,10.3997,10.3997,10.3997,10.3997,10.3997,10.3997,10.3997,10.3997,10.3997,10.3997,10.3997,10.3997,10.3997,10.3997,10.3997,10.3997,10.3964,10.3964,10.3964,10.3964,10.3537,10.1991,10.163,10.1235,9.979,9.9527,9.9527,9.9527,9.9527,9.9527,9.9527,9.9527,9.9527,9.9527,10.0743,10.163,10.163,10.3043,10.2748,9.979,9.9527,10.0118,10.1564,10.3142,10.3997,10.3997,10.5345,10.5411,10.3997,10.3964,10.3997,10.3997,10.3997,10.3997,10.3997,10.3997,10.3997,8.4249,8.8552,9.4035,9.7042,9.7909,9.6985,9.3343,9.2512,9.101,8.5675,8.4569,8.4569,8.4569,8.4569,8.4449,8.414,8.4187,8.5622,8.957,9.1113,9.292,9.5777,9.7783,9.7522,9.4071,9.8966,10.2813,10.3931,10.3997,10.4194,10.4589,10.3175,10.209,10.1499,10.2452,10.2221,10.061,10.3274,10.4063,10.2978,10.209,10.1662,10.1662,10.1072,10.0579,10.0184,10.1072,10.1827,0.0,10.2353,10.3011,10.3997,10.3997,10.3997,10.3997,10.3997,10.3997,10.3997,10.3997,10.3997,10.3997,10.3997,10.3997,10.3997,10.3997,10.3997,10.3997,10.3997,10.3997,10.3734,10.2649,10.1598,10.0842,10.0842,10.0842,10.071,10.025,10.0151,10.002,9.9593,9.9527,9.9527,9.9527,9.9527,9.9527,9.9527,9.9527,9.9527,9.9527,9.9888,10.0151,10.0151,10.0579,10.048,9.9593,9.9527,10.0118,10.1564,10.3142,10.3504,10.2419,10.3832,10.3438,10.0907,10.186,10.2353,10.2353,10.3471,10.3997,10.3997,10.3997,10.3997,8.7696,9.1177,9.5543,9.6872,9.8269,9.8016,9.307,9.295,9.2115,8.5854,8.4569,8.4926,8.6175,8.539,8.4843,8.5669,8.5095,8.5622,8.8861,9.0382,9.2504,9.6101,9.7783,9.7684,9.5087,9.8473,10.117,10.2123,10.2747,10.2813,10.2222,10.1334,10.0414,9.956,10.0939,10.084,9.9098,10.1169,10.1729,10.0808,9.9657,9.9131,9.9098,9.8802,9.867,9.8703,9.9264,10.002,0.0,10.0808,10.1368,10.2189,10.2189,10.2189,10.2255,10.2846,10.3076,10.3175,10.38,10.3997,10.3997,10.3997,10.3175,10.2189,10.2189,10.2189,10.2189,10.2189,10.2189,10.1992,10.1071,10.0151,9.9527,9.9527,9.9527,9.9362,9.8802,9.867,9.8506,9.7916,9.7818,9.7818,9.7818,9.7818,9.7818,9.7818,9.7818,9.7818,9.7818,9.8342,9.867,9.867,9.8146,9.7818,9.7818,9.7818,9.8672,10.0709,10.2254,10.2945,10.2616,10.3504,10.2847,10.0414,10.0644,10.0808,10.0808,10.1761,10.2189,10.2222,10.2813,10.3076,9.4225,9.5021,9.5546,9.6737,9.8163,9.7992,9.2918,9.2871,9.2115,8.5854,8.4569,8.5497,8.8619,8.6924,8.5702,8.7869,8.5997,8.5367,8.8582,8.9149,9.0851,9.5121,9.6638,9.743,9.7581,9.8628,9.9392,9.9515,10.0739,10.0873,9.9395,9.9461,9.9461,9.933,10.0709,10.1334,10.1071,9.9757,9.9132,9.91,9.6339,9.512,9.5284,9.6566,9.7189,9.7287,9.8574,9.9198,0.0,9.933,9.9395,9.9527,9.9527,9.9527,9.9691,10.1005,10.1465,10.1662,10.3109,10.3602,10.3602,10.3602,10.1729,9.9527,9.9527,9.9527,9.9527,9.9527,9.9527,9.9494,9.9362,9.933,9.9297,9.9165,9.9132,9.8771,9.7454,9.7189,9.6796,9.5514,9.5251,9.5218,9.5087,9.5054,9.5054,9.5054,9.5054,9.5152,9.5415,9.6468,9.7189,9.7189,9.604,9.5251,9.5251,9.5251,9.6273,9.8804,10.0513,10.1925,10.2945,10.3372,10.2813,10.1104,9.9953,9.933,9.933,9.9461,9.9527,9.956,10.0873,10.1465,9.2494,9.3454,9.5278,9.5602,9.7503,9.7745,9.1803,9.2227,9.2115,8.5854,8.4569,8.5497,8.8619,8.8672,8.9172,9.207,9.3205,9.3977,9.4726,9.6056,9.7329,9.8343,9.7746,9.7672,9.8799,9.8255,9.8302,9.9452,9.981,9.933,9.7914,9.8902,9.9001,9.7848,9.9262,9.8902,9.6665,9.6336,9.6141,9.6139,9.4399,9.4136,9.5284,9.558,9.5711,9.5711,9.604,9.6796,9.7848,9.7848,9.8506,9.9527,9.9527,9.9527,9.956,9.9888,9.9987,10.002,10.0349,10.048,10.048,10.048,10.0053,9.9527,9.9527,9.9527,9.9527,9.9527,9.9527,9.9264,9.8144,9.7848,9.7553,9.6435,9.6141,9.6106,9.5777,9.5711,9.5613,9.5317,9.5251,9.4922,9.3775,9.3578,9.3578,9.3578,9.3578,9.4366,9.6632,9.6205,9.5711,9.5711,9.5415,9.5251,9.5251,9.5251,9.5054,9.4531,9.7949,9.8607,9.555,9.8705,9.9264,9.6665,9.7421,9.7848,9.7848,9.8968,9.9527,9.9527,9.9823,9.9987,9.5483,9.6031,9.7207,9.7207,9.874,9.9002,9.4246,9.3529,9.2544,8.778,8.5604,8.5497,8.8619,8.9226,9.026,9.3381,9.4683,9.5604,9.6493,9.7428,9.8346,9.9232,9.8662,9.8243,9.8296,9.7684,9.7335,9.7456,9.7449,9.7158,9.6402,9.7092,9.7427,9.7277,9.8082,9.8117,9.7302,9.6596,9.5941,9.5251,9.3775,9.315,9.318,9.318,9.3574,9.4202,9.4202,9.5054,9.6336,9.6336,9.6796,9.7456,9.7456,9.7456,9.7555,9.8243,9.8506,9.8605,9.9297,9.9527,9.9297,9.7916,9.7456,9.7456,9.7456,9.7456,9.7456,9.7456,9.7456,9.7322,9.6566,9.6336,9.6172,9.5415,9.5251,9.5251,9.5251,9.4695,9.4202,9.4202,9.3673,9.2949,9.2226,9.2095,9.2095,9.2095,9.2657,9.3643,9.5152,9.5284,9.5514,9.6205,9.5678,9.5251,9.5251,9.5251,9.5218,9.5185,9.729,9.752,9.5251,9.6634,9.6766,9.5284,9.5317,9.5678,9.6336,9.7125,9.7456,9.7489,9.8177,9.8506,9.9447,9.9504,9.9328,9.9328,10.029,10.0469,9.7339,9.5659,9.3828,9.0688,8.7977,8.7138,9.0296,9.0867,9.1901,9.5022,9.5521,9.6067,9.7585,9.7808,9.8346,9.9843,9.9802,9.9303,9.8348,9.7633,9.6844,9.6039,9.5517,9.5251,9.5251,9.5457,9.6093,9.7145,9.7539,9.8176,9.9119,9.7709,9.6527,9.554,9.412,9.296,9.2036,9.1811,9.2226,9.3117,9.3117,0.0,9.4495,9.4495,9.4659,9.4859,9.4859,9.5054,9.5383,9.6566,9.6994,9.7191,9.8376,9.8771,9.8344,9.5744,9.5054,9.5251,9.5251,9.5251,9.5251,9.5251,9.5251,9.5251,9.5251,9.5251,9.5185,9.4955,9.4859,9.4824,9.4561,9.3574,9.2756,9.2756,9.1799,9.0878,9.0615,9.0582,9.0681,9.094,9.1996,9.3019,9.3742,9.4662,9.5711,9.6862,9.5941,9.5251,9.5251,9.5251,9.5646,9.6566,9.7123,9.7189,9.6665,9.5744,9.5152,9.4859,9.3446,9.3315,9.4495,9.4758,9.4859,9.4892,9.6336,9.6994,9.9902,10.0169,9.9328,9.9328,10.029,10.0469,9.7339,9.7392,9.7181,9.3935,9.2918,9.3631,9.6896,9.7503,9.8537,10.1656,10.2156,10.2202,10.2506,10.2521,10.2601,10.2845,10.1789,10.1425,10.2467,9.9303,9.7633,9.8688,9.66,9.5251,9.5251,9.6315,9.7006,9.7201,9.8421,9.8576,9.7504,9.6087,9.5876,9.6895,9.5473,9.5367,9.6358,9.5213,9.4103,9.3117,9.3117,9.2493,9.1564,9.1564,9.2292,9.3413,9.3413,9.4136,9.5284,9.5481,9.5547,9.558,9.5777,9.581,9.5517,9.3939,9.4235,9.5251,9.5251,9.5251,9.5251,9.5251,9.5251,9.5251,9.5251,9.5251,9.4955,9.3676,9.3413,9.3052,9.1799,9.1371,9.124,9.124,9.1104,9.0582,8.9333,8.9135,8.953,9.0779,9.1108,9.2588,9.6336,9.5909,9.5317,9.5514,9.5383,9.5251,9.5251,9.5251,9.4824,9.3742,9.6007,9.627,9.3775,9.4692,9.4662,9.3413,9.1996,9.1338,9.1564,9.2756,9.3413,9.3413,9.4856,9.5547,10.0288,10.131,10.0966,10.1485,10.2047,10.2099,10.0718,9.9567,9.8359,9.6877,9.5129,9.4309,9.5735,9.7538,9.9195,10.0551,10.2263,10.3404,10.3404,10.3404,10.3404,10.3404,10.2859,10.2388,10.2222,9.9876,9.8322,9.8137,9.7742,9.7531,9.7531,9.7311,9.7552,9.8348,9.8998,9.8671,9.7296,9.6589,9.6585,9.72,9.6543,9.6159,9.5963,9.5402,9.4781,9.4041,0.0,9.2611,9.1901,9.1253,9.1338,9.193,9.193,9.2292,9.2851,9.2851,9.2851,9.2851,9.2851,9.2851,9.2752,9.2128,9.2325,9.2851,9.2851,9.2851,9.2851,9.2851,9.2851,9.2851,9.2851,9.2851,9.2686,9.2062,9.193,9.1733,9.1104,9.0972,9.0742,8.9925,8.9131,8.8374,8.7749,8.7651,8.8116,8.9563,9.0451,9.1839,9.4321,9.4098,9.4116,9.5161,9.5251,9.5251,9.5251,9.5251,9.4988,9.4334,9.5481,9.5284,9.3183,9.2949,9.2555,9.193,9.0516,9.0155,9.0972,9.1601,9.193,9.193,9.2555,9.3278,9.817,9.9852,10.0263,10.2053,10.2787,10.3014,10.2859,10.1335,9.9909,9.9909,9.8018,9.6306,9.6306,9.8304,9.9909,9.9909,10.1906,10.3404,10.3404,10.3404,10.3404,10.3404,10.3404,10.2965,10.191,10.0611,9.9034,9.718,9.8082,9.8753,9.8753,9.8431,9.874,9.9778,10.0179,9.9748,9.8398,9.8303,9.8244,9.825,9.825,9.7675,9.6614,9.628,9.5674,9.4806,9.3843,9.2745,9.155,9.0667,9.0361,9.0418,9.0418,9.0615,9.0972,9.0972,9.0972,9.0874,9.015,9.0089,9.0418,9.0418,9.0681,9.0972,9.0972,9.0972,9.0972,9.0972,9.0972,9.0972,9.0972,9.0972,9.0874,9.0484,9.0418,9.0348,8.9953,8.9887,8.9591,8.8511,8.7084,8.6048,8.6048,8.5681,8.6012,8.7771,8.8936,9.0168,9.1638,9.1928,9.2502,9.3873,9.4092,9.433,9.4662,9.4695,9.4856,9.5218,9.5251,9.4761,9.3709,9.2292,9.1338,9.0972,8.9563,8.9168,8.9887,9.0253,9.0418,9.0418,9.0808,9.1536,9.1826,9.393,9.49,9.8919,10.1026,10.1949,10.1325,10.2247,10.319,10.319,10.3048,10.2941,10.2941,10.3048,10.319,10.319,10.3333,10.3404,10.3404,10.3404,10.3404,10.3404,10.3404,10.3384,10.3322,10.2011,9.9912,9.6859,0.0,9.7105,9.7105,9.962,10.1103,10.1184,10.251,10.251,10.1079,10.1056,10.1068,10.1067,10.1067,10.1032,10.088,9.9693,9.7539,9.4878,9.4806,9.2465,8.8644,8.8601,8.8705,8.8971,8.8971,8.976,9.0972,9.0972,9.0972,9.0578,8.7848,8.7815,8.8971,8.8971,8.9859,9.0972,9.0972,9.0972,9.0972,9.0972,9.0972,9.0972,9.0972,9.0972,9.0615,8.9267,8.8971,8.8577,8.719,8.6894,8.6861,8.6796,8.546,8.4297,8.4297,8.2956,8.279,8.5504,8.5908,8.6937,8.9616,9.0291,9.0521,9.0647,9.0987,9.1733,9.3117,9.3216,9.3775,9.5185,9.5251,9.5218,9.5152,9.3775,9.2329,9.0977,8.9563,8.8182,8.6894,8.8281,8.8971,8.8971,9.0319,9.1005,9.1873,9.3631,9.4004,9.9185,10.0861,10.1219,10.0997,10.1385,10.165,10.1136,10.1044,10.0912,10.0492,10.0408,10.0408,10.0408,10.0408,10.0408,10.0408,10.0408,10.0408,10.0408,10.0408,10.0408,10.0408,9.9958,9.9178,9.8079,9.8073,9.8143,9.8143,9.8239,9.8696,9.9618,9.9253,9.8796,9.8273,9.9211,9.9705,9.979,10.1706,10.2653,10.2618,10.217,10.0852,9.875,9.6881,9.4658,9.2182,9.0318,8.964,8.9709,8.9709,9.0014,9.0387,8.9644,8.9337,8.9197,8.8161,8.8161,8.8471,8.7721,8.7815,8.821,8.821,8.821,8.821,8.821,8.821,8.821,8.821,8.821,8.8078,8.7585,8.7453,8.7322,8.6796,8.5853,8.5083,8.5083,8.3705,8.2531,8.2531,8.204,8.2569,8.5305,8.3796,8.3448,8.6438,8.6217,8.6623,8.8892,8.9242,8.999,9.158,9.1733,9.1963,9.2456,9.3347,9.3873,9.3873,9.338,9.2427,9.0977,8.9563,8.8116,8.6724,8.719,8.7453,8.7486,8.798,8.8736,8.8383,9.0558,9.1736,9.6871,9.9388,10.0525,10.018,10.0502,10.0718,10.0239,10.0125,9.9994,9.955,9.9241,9.9089,9.9089,9.8894,9.8751,9.8751,9.8751,9.8751,9.8751,9.8751,9.8751,9.8751,9.7733,9.7091,9.7091,9.7645,9.7966,9.7966,9.7551,9.7752,9.8712,9.7849,9.7347,9.7347,9.8267,9.8764,9.8885,10.0882,10.1835,10.187,10.237,10.1784,10.0174,9.8274,9.6303,9.4276,9.1833,9.0595,9.0208,9.0208,9.0208,9.0115,8.9324,8.9334,8.9563,8.8732,8.8467,8.824,8.7084,8.6724,8.6724,8.6724,8.6724,8.6724,8.6724,8.6724,8.6724,8.6724,8.6724,8.6724,8.6724,8.6724,8.6724,8.6724,8.5399,8.418,8.418,8.2348,8.0786,8.0786,8.0703,8.1227,8.3023,8.2083,8.1543,8.2767,8.2667,8.3368,8.5703,8.6082,8.7064,8.9222,8.9404,8.9836,9.0915,9.1864,9.2361,9.2361,9.2361,9.1963,9.0977,8.9563,8.8379,8.742,8.6927,8.6724,8.6724,8.6724,8.719,8.1089,8.4307,8.7741,9.1882,9.6463,9.9713,9.8768,9.974,10.0811,10.0804,10.0789,10.0789,10.0759,10.0122,9.9611,9.9611,9.9097,9.8687,9.8612,9.8648,9.8648,9.8609,9.8609,9.8573,9.8537,9.57,9.3845,9.3738,9.531,9.6256,9.6221,9.7645,9.8466,9.8466,9.8466,9.8466,9.8537,9.8537,9.8573,9.868,9.868,9.8716,9.8823,10.0321,10.0178,9.8751,9.868,9.7071,9.4312,9.2824,9.1411,9.0253,9.0288,9.0322,9.0288,9.0253,9.1015,9.1787,8.9372,8.8567,8.8366,8.7158,8.6773,8.6746,8.6746,8.6718,8.6724,8.6724,8.6724,8.6724,8.6724,8.6724,8.6724,8.6724,8.6724,8.6664,8.6609,8.5282,8.4063,8.4034,8.1324,7.9029,7.9029,7.87,7.8467,7.8467,8.0685,8.145,7.8845,7.9965,8.0974,8.1012,8.1297,8.2787,8.5918,8.6129,8.7455,9.0505,9.0812,9.0841,9.0898,9.0997,9.1025,9.1021,8.9582,8.8797,8.8764,8.7283,8.6565,8.6598,8.6598,8.6631,8.4077,8.4472,8.5543,9.5099,9.6694,9.6415,9.8373,9.9183,9.9263,9.8523,9.8361,9.8183,9.7618,9.733,9.7182,9.7182,9.7037,9.6713,9.6173,9.607,9.5862,9.5295,9.5236,9.4772,9.3667,9.3738,9.2953,9.0688,9.199,9.2401,9.1277,9.1616,9.1866,9.1866,9.1866,9.2401,9.3505,9.3541,9.472,9.7058,9.7058,9.7665,9.8787,9.9215,9.9144,9.868,9.7558,9.5922,9.4015,9.3589,9.2509,9.1261,9.2431,9.2891,9.2749,9.1599,9.1385,9.1674,9.1268,9.1119,9.092,8.9658,8.8658,8.7975,8.7975,8.7397,8.6724,8.6724,8.6724,8.6724,8.6724,8.6724,8.6724,8.6724,8.6724,8.6357,8.514,8.3527,8.1978,8.0754,7.876,7.7278,7.7278,7.7183,7.7123,7.7123,7.9376,8.0423,7.8729,7.8925,7.9331,7.9591,7.889,7.9642,8.2663,8.2223,8.2576,8.4366,8.6609,8.8248,8.9101,9.114,9.2196,9.2111,8.9771,8.8042,8.7022,8.4597,8.4,8.4999,8.4999,8.5617,8.1193,8.1594,8.2859,9.0241,9.1162,9.1406,9.5967,9.6353,9.6186,9.7716,9.7961,9.7731,9.7288,9.6906,9.6713,9.6713,9.6421,9.6056,9.5596,9.5535,9.5257,9.4479,9.3464,9.2458,9.1556,9.1996,9.1575,8.9762,9.0206,9.0171,8.9261,8.9226,8.9226,8.9226,8.9226,8.9654,9.0563,9.0599,9.1545,9.3418,9.3418,9.3882,9.4791,9.545,9.6092,9.6718,9.6523,9.5452,9.3809,9.3203,9.199,9.067,9.158,9.1937,9.183,9.092,9.0599,9.0525,9.026,9.018,9.01,8.9421,8.8738,8.8219,8.8381,8.7941,8.7317,8.6854,8.6724,8.6724,8.6724,8.6724,8.6724,8.6724,8.6724,8.6412,8.5456,8.3316,8.1355,8.037,7.7773,7.5791,7.5791,7.6222,7.6396,7.5844,7.7536,7.8583,7.7791,7.7704,7.7299,7.6226,7.6105,7.6874,7.8781,7.8902,7.9782,8.1971,8.3748,8.5552,8.7383,8.9123,9.0529,9.1558,8.9993,8.9077,8.8888,8.6014,8.4788,8.5157,8.4508,8.4431,7.4678,7.6653,7.9688,8.1603,8.3095,8.568,0.0,9.1843,9.1868,9.6354,9.7082,9.693,9.6893,9.6638,9.64,9.64,9.6131,9.5907,9.5774,9.5811,9.5522,9.4818,9.2784,9.1373,9.1109,9.0612,9.0169,8.9807,8.9443,8.9095,8.8812,8.8812,8.876,8.8708,8.8691,8.8762,8.894,8.9046,8.917,8.9331,8.94,8.9451,8.9523,9.0901,9.2279,9.3693,9.5179,9.4945,9.335,9.192,9.0385,8.8976,8.9154,8.9046,8.8848,8.9027,8.9028,8.8816,8.7981,8.7652,8.7704,8.7949,8.7929,8.7893,8.8224,8.8226,8.792,8.7072,8.6719,8.6677,8.6842,8.68,8.6724,8.6724,8.6724,8.6637,8.6473,8.39,8.1605,8.1201,7.7637,7.4633,7.4429,7.55,7.5873,7.4424,7.5471,7.6239,7.589,7.5855,7.4696,7.1737,7.2854,7.3886,7.4114,7.5398,7.7551,8.0712,8.1452,8.2908,8.5272,8.6091,8.7572,8.9864,8.9886,9.062,9.1976,8.8877,8.6936,8.6038,8.4469,8.3177,0.0,0.0,0.0,0.0,0.0,0.0,0.0,8.6152,8.6079,8.673,8.6865,8.6769,8.6688,8.8683,9.0338,9.0338,9.2409,9.3817,9.3159,9.3076,9.3041,9.287,9.2414,9.1432,8.965,9.0474,9.0113,8.7584,8.8409,8.824,8.6348,8.6245,8.6022,8.5478,8.5461,8.6068,8.7353,8.7844,8.8757,9.0024,9.0654,9.0947,9.0947,9.1261,9.1552,9.1866,9.2194,9.1814,9.0861,9.0007,8.8762,8.746,8.8726,8.8011,8.639,8.7689,8.7798,8.7514,8.8513,8.8903,8.8885,8.8949,8.8323,8.7567,8.7655,8.6925,8.6321,8.7332,8.6956,8.6511,8.7793,8.739,8.6724,8.6724,8.6724,8.633,8.4936,8.3223,8.1193,7.8558,7.6349,7.4545,7.332,7.4163,7.425,7.2014,7.3552,7.4119,7.1583,7.1267,7.0454,6.8386,6.8467,6.8305,6.7335,6.9001,7.0861,7.2557,7.7571,8.0631,8.0932,8.5205,8.7747,8.8143,8.8149,8.8289,8.8604,8.5799,8.4497,8.4521,8.2988,8.2197,0.0,0.0,0.0,0.0,0.0,0.0,0.0,0.0,0.0,0.0,0.0,8.4047,8.3984,0.0,8.8751,8.8751,9.1415,9.3372,9.2989,9.2911,9.2381,9.0931,9.0725,9.0235,8.9134,8.9334,8.8876,8.7301,8.6818,8.6084,8.4912,8.4057,8.3429,8.3121,8.3106,8.3468,8.427,8.4601,8.5131,8.5918,8.7165,8.7752,8.7825,8.9437,9.0207,9.0243,9.1036,9.1159,9.0627,8.8663,8.6955,8.5523,8.5442,8.4662,8.3666,8.4467,8.5067,8.5572,8.6058,8.6721,8.7442,8.7902,8.7676,8.7233,8.7421,8.7038,8.652,8.6663,8.6264,8.6019,8.679,8.618,8.5326,8.5326,8.4901,8.4214,8.3358,8.1968,8.0175,7.78,7.556,7.359,7.2073,7.2392,7.2392,7.1141,7.2509,7.2769,7.0284,6.9984,6.8055,6.3017,6.3301,6.2985,6.0747,6.2344,6.4749,6.7672,7.2501,7.5661,7.6533,8.1195,8.3719,8.3576,8.628,8.7667,8.7667,8.6805,8.625,8.582,8.2185,7.9902,0.0,0.0,0.0,0.0,0.0,0.0,0.0,0.0,0.0,0.0,0.0,0.0,0.0,0.0,0.0,8.6742,8.9357,9.156,9.2559,9.2401,9.1361,8.9058,8.8964,8.8931,8.8624,8.7921,8.7356,8.699,8.5189,8.4064,8.3867,8.2583,8.1766,8.1621,8.1658,8.1658,8.1658,8.1754,8.1825,8.1862,0.0,0.0,8.4191,8.6829,8.8179,8.8559,8.9823,9.0483,9.0404,8.7441,8.5397,8.4028,8.2628,8.2047,8.2024,8.1909,8.2609,8.361,8.3093,8.3866,8.5195,8.5948,8.6295,8.6501,8.682,8.6889,0.0,8.5994,8.56,8.5532,8.5829,8.4933,8.3959,8.3959,8.3097,8.2224,8.2224,8.0958,7.9363,7.7885,7.5186,7.2709,7.1239,7.0519,6.971,6.8271,6.9422,6.9422,6.6641,6.7023,6.4875,5.7876,5.8634,5.8694,5.6403,5.6576,5.8916,6.381,6.5878,6.8069,7.0606,7.501,7.7043,7.6347,8.1485,8.4659,8.5663,8.696,8.7096,8.595,7.9902,7.6333,0.0,0.0,0.0,0.0,0.0,0.0,0.0,0.0,0.0,0.0,0.0,0.0,0.0,0.0,0.0,0.0,8.1853,8.4705,8.9092,8.852,8.7514,8.7194,8.8362,8.8651,8.7277,8.7033,8.6253,8.4534,8.4129,8.3657,8.2835,0.0,0.0,0.0,0.0,8.1658,8.1658,8.2211,8.2487,8.2535,8.3428,8.3817,8.3855,8.4219,8.5115,8.643,8.6645,8.7215,8.796,8.6077,8.4844,8.4113,8.3688,8.3556,8.3467,8.278,8.2256,8.1914,8.1828,0.0,0.0,8.3582,8.419,8.4838,8.4862,8.4899,8.5131,8.6379,8.6006,8.5501,8.687,8.5627,8.3959,8.3959,8.3097,8.2224,8.2224,8.1083,7.9619,7.8168,7.5456,7.2938,7.1385,6.91,6.5255,5.8658,6.0333,6.0097,5.3888,5.6397,5.7796,5.5244,0.0,0.0,5.7635,5.3425,5.3343,5.9412,5.6547,5.6485,6.0535,6.6055,6.7724,6.5072,6.9265,7.3733,7.8343,8.0674,8.1386,8.0403,7.3041,7.0564,0.0,0.0,0.0,0.0,0.0,0.0,0.0,0.0,0.0,0.0,0.0,0.0,0.0,0.0,0.0,0.0,7.7922,8.1425,8.468,8.3868,8.3651,8.5512,8.6248,8.6348,8.57,8.5527,8.5067,8.4278,8.3292,8.2552,8.2172,8.1219,8.0577,8.0289,8.0201,8.0193,8.0282,8.0355,8.045,8.0597,8.1748,8.2285,8.2322,8.334,8.4125,8.476,8.476,8.4988,8.5354,8.4646,8.4182,0.0,0.0,0.0,0.0,0.0,8.1625,8.1379,8.0979,8.1727,8.2757,8.2076,8.2101,8.2333,8.195,8.186,8.2146,8.3732,8.3819,8.3808,8.5366,8.4597,8.3221,8.2542,8.1521,8.0478,7.9866,7.9264,7.8404,7.6877,7.4922,0.0,7.0518,6.7799,6.4755,6.1339,6.2046,6.1404,5.7156,5.7617,5.6924,5.3095,5.1998,5.1996,5.3077,5.0532,0.0,0.0,0.0,5.5383,5.7957,6.0964,0.0,0.0,0.0,0.0,0.0,0.0,0.0,0.0,6.6574,6.5017,0.0,0.0,0.0,0.0,0.0,0.0,0.0,0.0,0.0,0.0,0.0,0.0,0.0,0.0,0.0,0.0,7.41,7.649,7.8265,7.8823,7.9926,8.2292,8.3865,8.4409,8.3556,8.3668,8.3621,8.3116,8.1946,8.1205,8.1152,7.9984,7.9307,7.9307,7.9221,7.898,7.8657,7.8794,7.8758,7.8541,8.0011,8.0727,8.0765,8.2003,8.2829,8.3242,8.3242,8.3504,8.3903,8.339,8.3203,8.3053,8.1847,8.0618,7.9607,8.0312,8.0573,8.0489,8.0025,8.0769,8.1817,8.0974,8.0763,8.0786,8.0287,8.0036,8.0148,8.1254,8.1575,8.1841,8.2982,8.2481,8.1482,8.0774,7.9715,7.8686,7.8076,7.7644,7.7054,7.5898,7.387,7.1498,6.8783,6.5952,6.3305,6.1108,6.1263,0.0,5.6486,5.6383,5.4893,5.0246,4.891,4.8652,4.9459,4.817,4.9039,5.3132,5.3144,5.4016,5.6282,5.6506,5.832,6.1993,6.2496,6.3563,0.0,0.0,0.0,0.0,0.0,0.0,0.0,0.0,0.0,0.0,0.0,0.0,0.0,0.0,0.0,0.0,0.0,0.0,0.0,0.0,0.0,0.0,0.0,0.0,6.9077,7.3335,7.6418,7.6643,8.1436,8.3567,8.0525,8.1588,8.1731,7.9957,7.9798,7.967,7.939,7.9345,7.9307,7.9307,7.93,7.8573,7.7057,7.8532,7.8528,7.7045,7.8641,7.936,7.936,7.9435,8.0339,8.188,8.188,8.2821,8.4194,8.2444,8.1683,8.1683,8.1645,8.1613,8.1314,7.9487,7.8793,7.8786,7.8778,7.9471,8.0327,8.0334,8.0557,8.087,8.0856,8.0407,7.9934,7.9954,7.997,7.997,8.0041,7.9175,7.8438,7.8881,7.8113,7.7356,7.7853,7.6863,7.5852,7.5804,7.2405,6.8689,6.6063,6.3243,5.9169,5.2705,5.3454,0.0,4.5167,4.7896,4.9266,4.62,4.7483,4.87,4.899,4.6538,4.6522,5.0101,4.8177,4.9038,5.3761,5.193,5.1612,5.341,5.4959,5.7605,6.1422,0.0,0.0,0.0,0.0,0.0,0.0,0.0,0.0,0.0,0.0,0.0,0.0,0.0,0.0,0.0,0.0,0.0,0.0,0.0,0.0,0.0,0.0,0.0,0.0,6.8987,7.1333,7.5159,7.6156,7.6586,7.6728,7.6115,7.5509,7.4975,7.596,7.6561,7.6465,7.6464,7.6464,7.6464,7.6327,7.6057,7.5704,7.5965,7.5866,7.5443,7.5863,7.6066,7.6066,7.6066,7.7015,7.8607,7.8607,7.9519,8.1069,8.1555,8.1108,8.0193,8.1216,8.0224,7.8218,7.8576,7.7365,7.5495,7.5495,7.5526,7.5558,7.5815,7.5983,7.6199,7.6928,7.6986,7.7223,7.9312,7.9149,7.8808,8.0913,7.9844,7.8144,7.76,7.664,7.5736,7.5246,7.4734,7.4406,7.4406,7.0218,6.5857,6.3255,6.1929,5.9629,5.4974,5.4591,5.3711,5.0593,4.9036,4.7853,4.6834,4.6064,4.5927,4.6746,4.5332,4.5737,4.8951,4.8384,4.927,5.215,5.3634,5.4696,5.5258,5.7879,5.7408,5.364,0.0,0.0,0.0,0.0,0.0,0.0,0.0,0.0,0.0,0.0,0.0,0.0,0.0,0.0,0.0,0.0,0.0,0.0,0.0,0.0,0.0,0.0,0.0,0.0,0.0,0.0,7.0593,7.1181,0.0,7.1299,7.1331,7.0906,6.9814,7.1294,7.2284,7.2325,7.2894,7.3501,7.4109,7.455,7.4548,7.4147,7.4504,7.4395,7.3885,7.4393,7.4658,7.4658,7.4658,7.5226,7.633,7.6901,7.7737,7.868,7.8426,7.7658,7.6773,7.7732,7.6716,7.4882,7.6229,7.5001,7.2837,7.3795,7.367,7.3145,7.3448,7.2455,7.1243,7.1586,7.1702,7.2137,7.4227,7.5031,7.577,7.7832,7.754,7.6448,7.5589,7.4864,7.4248,7.3771,7.3288,7.2614,7.1586,6.8083,6.4178,6.065,5.9577,5.8009,5.4434,5.3403,5.2458,5.0888,4.8098,4.5836,4.4779,4.3702,4.3099,4.3173,4.3768,4.497,4.7008,4.8052,4.9737,5.2233,5.4939,5.6436,5.6574,5.8319,5.657,0.0,0.0,0.0,0.0,0.0,0.0,0.0,0.0,0.0,0.0,0.0,0.0,0.0,0.0,0.0,0.0,0.0,0.0,0.0,0.0,0.0,0.0,0.0,0.0,0.0,0.0,0.0,6.3552,6.6781,0.0,0.0,0.0,0.0,6.4588,6.5943,6.6947,6.7047,6.8604,7.0274,7.2059,7.3691,7.3843,7.24,7.3995,7.3957,7.24,7.3995,7.4792,7.4792,7.4792,7.483,7.4982,7.6615,7.7298,7.7031,7.3383,7.1859,7.1822,7.179,7.1641,7.153,7.2434,7.1634,7.0456,7.3153,7.3366,7.2489,7.2612,6.9822,6.6231,6.5338,6.5102,0.0,0.0,6.8071,7.0833,7.1043,7.2155,7.3115,7.2681,7.2569,7.2737,7.3221,7.2334,7.0508,0.0,6.5722,6.317,5.8008,0.0,5.4169,5.0759,4.9606,4.8293,4.5915,4.4738,4.3044,4.0129,4.0483,4.026,3.8669,4.1769,4.4008,4.4453,4.6883,4.9886,5.3414,5.5194,5.6258,5.6539,5.579,0.0,0.0,0.0,0.0,0.0,0.0,0.0,0.0,0.0,0.0,0.0,0.0,0.0,0.0,0.0,0.0,0.0,0.0,0.0,0.0,0.0,0.0,0.0,0.0,0.0,0.0,6.1202,6.2841,6.4314,6.4116,6.3545,0.0,0.0,0.0,0.0,0.0,0.0,6.1825,6.2205,6.3762,6.6648,6.7235,6.8528,7.0616,7.1034,7.1034,7.0654,7.1072,7.1299,7.1299,7.1299,7.1945,7.316,7.3521,7.3659,7.3547,7.2059,7.114,7.0773,7.2288,7.0655,6.746,6.798,6.6169,6.374,6.5592,6.5198,6.3837,6.4005,6.3383,6.2491,6.1645,0.0,0.0,0.0,0.0,6.5764,6.7551,6.7735,6.7561,6.8012,6.8358,6.8587,6.8717,6.9309,6.8063,0.0,5.9439,5.6635,5.2102,0.0,0.0,4.6962,4.6235,4.5706,4.4643,4.1215,3.8405,3.7132,3.7029,3.6902,3.6661,3.8223,4.0643,4.4008,4.4232,4.5875,4.9511,5.1273,5.1847,5.1043,0.0,0.0,0.0,0.0,0.0,0.0,0.0,0.0,0.0,0.0,0.0,0.0,0.0,0.0,0.0,0.0,0.0,0.0,0.0,0.0,0.0,0.0,0.0,0.0,0.0,0.0,0.0,5.7127,5.8547,6.0137,5.9341,5.8402,0.0,0.0,0.0,0.0,0.0,0.0,0.0,0.0,0.0,6.1492,6.2376,6.4009,6.6545,6.6583,6.6917,6.7578,6.7578,6.7578,6.7578,6.7578,6.8109,6.902,6.9008,6.8538,6.7771,6.7604,6.7398,6.722,0.0,0.0,0.0,0.0,6.2282,5.961,6.1646,6.1184,5.963,5.9119,0.0,0.0,0.0,0.0,0.0,0.0,0.0,0.0,0.0,0.0,6.5811,6.5808,6.5553,6.5346,6.5346,6.4411,6.2151,0.0,5.5357,5.2913,4.7823,0.0,0.0,0.0,0.0,4.1441,4.0368,3.7738,3.5647,3.4682,3.4189,3.3948,3.4002,3.5453,3.7909,4.1586,4.2421,4.451,4.839,4.947,4.9514,0.0,0.0,0.0,0.0,0.0,0.0,0.0,0.0,0.0,0.0,0.0,0.0,0.0,0.0,0.0,0.0,0.0,0.0,0.0,0.0,0.0,0.0,0.0,0.0,0.0,0.0,0.0,0.0,0.0,5.2582,5.4395,0.0,0.0,0.0,0.0,0.0,0.0,0.0,0.0,0.0,0.0,0.0,0.0,0.0,6.0391,6.2514,6.2099,6.2557,6.3902,6.3902,6.3902,6.3902,6.3902,6.3948,6.3925,6.3338,0.0,6.1543,6.1777,0.0,0.0,0.0,0.0,0.0,0.0,0.0,0.0,0.0,0.0,0.0,0.0,0.0,0.0,0.0,0.0,0.0,0.0,0.0,0.0,0.0,0.0,6.4835,6.3662,6.2974,6.2355,0.0,5.8196,5.4693,5.2553,5.1928,0.0,0.0,0.0,0.0,0.0,0.0,0.0,3.5209,3.4601,3.3796,3.2342,3.1658,3.1253,3.1032,3.3154,3.5666,3.8464,4.0854,4.3932,4.7881,4.8174,0.0,0.0,0.0,0.0,0.0,0.0,0.0,0.0,0.0,0.0,0.0,0.0,0.0,0.0,0.0,0.0,0.0,0.0,0.0,0.0,0.0,0.0,0.0,0.0,0.0,0.0,0.0,0.0,0.0,0.0,0.0,0.0,0.0,0.0,0.0,0.0,0.0,0.0,0.0,0.0,0.0,0.0,0.0,0.0,0.0,0.0,0.0,0.0,0.0,0.0,6.0686,6.0686,6.0686,6.0686,6.0749,6.0616,5.6195,5.6083,5.893,5.8343,0.0,0.0,0.0,0.0,0.0,0.0,0.0,0.0,0.0,0.0,0.0,0.0,0.0,0.0,0.0,0.0,0.0,0.0,0.0,0.0,0.0,0.0,0.0,0.0,5.7447,5.8067,5.3414,0.0,0.0,0.0,0.0,0.0,0.0,0.0,0.0,0.0,0.0,0.0,3.4271,3.2825,3.1237,2.9056,2.8555,2.8408,2.859,3.1114,3.4039,3.7075,3.8403,4.0269,0.0,0.0,0.0,0.0,0.0,0.0,0.0,0.0,0.0,0.0,0.0,0.0,0.0,0.0,0.0,0.0,0.0,0.0,0.0,0.0,0.0,0.0,0.0,0.0,0.0,0.0,0.0,0.0,0.0,0.0,0.0,0.0,0.0,0.0,0.0,0.0,0.0,0.0,0.0,0.0,0.0,0.0,0.0,0.0,0.0,0.0,0.0,0.0,0.0,0.0,0.0,0.0,0.0,0.0,0.0,0.0,0.0,0.0,0.0,5.4052,0.0,0.0,0.0,0.0,0.0,0.0,0.0,0.0,0.0,0.0,0.0,0.0,0.0,0.0,0.0,0.0,0.0,0.0,0.0,0.0,0.0,0.0,0.0,0.0,0.0,0.0,0.0,0.0,0.0,0.0,0.0,0.0,0.0,0.0,0.0,0.0,0.0,0.0,0.0,0.0,3.1264,3.06,2.9448,2.6654,2.5988,2.5883,2.6346,2.8707,3.1261,3.3829,3.5823,0.0,0.0,0.0,0.0,0.0,0.0,0.0,0.0,0.0,0.0,0.0,0.0,0.0,0.0,0.0,0.0,0.0,0.0,0.0,0.0,0.0,0.0,0.0,0.0,0.0,0.0,0.0,0.0,0.0,0.0,0.0,0.0,0.0,0.0,0.0,0.0,0.0,0.0,0.0,0.0,0.0,0.0,0.0,0.0,0.0,0.0,0.0,0.0,0.0,0.0,0.0,0.0,0.0,0.0,0.0,0.0,0.0,0.0,0.0,5.2981,0.0,0.0,0.0,0.0,0.0,0.0,0.0,0.0,0.0,0.0,0.0,0.0,0.0,0.0,0.0,0.0,0.0,0.0,0.0,0.0,0.0,0.0,0.0,0.0,0.0,0.0,0.0,0.0,0.0,0.0,0.0,0.0,0.0,0.0,0.0,0.0,0.0,0.0,0.0,0.0,0.0,2.8753,2.8899,2.8287,2.5006,2.3852,2.3654,2.4591,2.6141,2.8081,3.0392,3.3165,0.0,0.0,0.0,0.0,0.0,0.0,0.0,0.0,0.0,0.0,0.0,0.0,0.0,0.0,0.0,0.0,0.0,0.0,0.0,0.0,0.0,0.0,0.0,0.0,0.0,0.0,0.0,0.0,0.0,0.0,0.0,0.0,0.0,0.0,0.0,0.0,0.0,0.0,0.0,0.0,0.0,0.0,0.0,0.0,0.0,0.0,0.0,0.0,0.0,0.0,0.0,0.0,0.0,0.0,0.0,0.0,0.0,0.0,0.0,0.0,0.0,0.0,0.0,0.0,0.0,0.0,0.0,0.0,0.0,0.0,0.0,0.0,0.0,0.0,0.0,0.0,0.0,0.0,0.0,0.0,0.0,0.0,0.0,0.0,0.0,0.0,0.0,0.0,0.0,0.0,0.0,0.0,0.0,0.0,0.0,0.0,0.0,0.0,0.0,0.0,0.0,2.8753,2.8899,2.8139,2.4401,2.2359,2.2009,2.3839,2.3648,2.4765,2.79,0.0,0.0,0.0,0.0,0.0,0.0,0.0,0.0,0.0,0.0,0.0,0.0,0.0,0.0,0.0,0.0,0.0,0.0,0.0,0.0,0.0,0.0,0.0,0.0,0.0,0.0,0.0,0.0,0.0,0.0,0.0,0.0,0.0,0.0,0.0,0.0,0.0,0.0,0.0,0.0,0.0,0.0,0.0,0.0,0.0,0.0,0.0,0.0,0.0,0.0,0.0,0.0,0.0,0.0,0.0,0.0,0.0,0.0,0.0,0.0,0.0,0.0,0.0,0.0,0.0,0.0,0.0,0.0,0.0,0.0,0.0,0.0,0.0,0.0,0.0,0.0,0.0,0.0,0.0,0.0,0.0,0.0,0.0,0.0,0.0,0.0,0.0,0.0,0.0,0.0,0.0,0.0,0.0,0.0,0.0,0.0,0.0,0.0,0.0,0.0,0.0,0.0,2.8224,2.795,2.6465,2.1823,2.0648,2.0082,1.9862,2.1085,2.2731,2.4753,0.0,0.0,0.0,0.0,0.0,0.0,0.0,0.0,0.0,0.0,0.0,0.0,0.0,0.0,0.0,0.0,0.0,0.0,0.0,0.0,0.0,0.0,0.0,0.0,0.0,0.0,0.0,0.0,0.0,0.0,0.0,0.0,0.0,0.0,0.0,0.0,0.0,0.0,0.0,0.0,0.0,0.0,0.0,0.0,0.0,0.0,0.0,0.0,0.0,0.0,0.0,0.0,0.0,0.0,0.0,0.0,0.0,0.0,0.0,0.0,0.0,0.0,0.0,0.0,0.0,0.0,0.0,0.0,0.0,0.0,0.0,0.0,0.0,0.0,0.0,0.0,0.0,0.0,0.0,0.0,0.0,0.0,0.0,0.0,0.0,0.0,0.0,0.0,0.0,0.0,0.0,0.0,0.0,0.0,0.0,0.0,0.0,0.0,0.0,0.0,0.0,0.0,2.792,2.7332,2.5408,2.0206,1.9128,1.8338,1.7187,1.85,2.0227,2.2236,0.0,0.0,0.0,0.0,0.0,0.0,0.0,0.0,0.0,0.0,0.0,0.0,0.0,0.0,0.0,0.0,0.0,0.0,0.0,0.0,0.0,0.0,0.0,0.0,0.0,0.0,0.0,0.0,0.0,0.0,0.0,0.0,0.0,0.0,0.0,0.0,0.0,0.0,0.0,0.0,0.0,0.0,0.0,0.0,0.0,0.0,0.0,0.0,0.0,0.0,0.0,0.0,0.0,0.0,0.0,0.0,0.0,0.0,0.0,0.0,0.0,0.0,0.0,0.0,0.0,0.0,0.0,0.0,0.0,0.0,0.0,0.0,0.0,0.0,0.0,0.0,0.0,0.0,0.0,0.0,0.0,0.0,0.0,0.0,0.0,0.0,0.0,0.0,0.0,0.0,0.0,0.0,0.0,0.0,0.0,0.0,0.0,0.0,0.0,0.0,0.0,0.0,2.792,2.7332,2.5408,2.0206,1.7897,1.6866,1.7094,1.5847,1.6735,0.0,0.0,0.0,0.0,0.0,0.0,0.0,0.0,0.0,0.0,0.0,0.0,0.0,0.0,0.0,0.0,0.0,0.0,0.0,0.0,0.0,0.0,0.0,0.0,0.0,0.0,0.0,0.0,0.0,0.0,0.0,0.0,0.0,0.0,0.0,0.0,0.0,0.0,0.0,0.0,0.0,0.0,0.0,0.0,0.0,0.0,0.0,0.0,0.0,0.0,0.0,0.0,0.0,0.0,0.0,0.0,0.0,0.0,0.0,0.0,0.0,0.0,0.0,0.0,0.0,0.0,0.0,0.0,0.0,0.0,0.0,0.0,0.0,0.0,0.0,0.0,0.0,0.0,0.0,0.0,0.0,0.0,0.0,0.0,0.0,0.0,0.0,0.0,0.0,0.0,0.0,0.0,0.0,0.0,0.0,0.0,0.0,0.0,0.0,0.0,0.0,0.0,0.0,2.8243,2.6867,2.3903,1.7531,1.6309,1.5005,1.2772,1.4293,1.6329,1.8584,0.0,0.0,0.0,0.0,0.0,0.0,0.0,0.0,0.0,0.0,0.0,0.0,0.0,0.0,0.0,0.0,0.0,0.0,0.0,0.0,0.0,0.0,0.0,0.0,0.0,0.0,0.0,0.0,0.0,0.0,0.0,0.0,0.0,0.0,0.0,0.0,0.0,0.0,0.0,0.0,0.0,0.0,0.0,0.0,0.0,0.0,0.0,0.0,0.0,0.0,0.0,0.0,0.0,0.0,0.0,0.0,0.0,0.0,0.0,0.0,0.0,0.0,0.0,0.0,0.0,0.0,0.0,0.0,0.0,0.0,0.0,0.0,0.0,0.0,0.0,0.0,0.0,0.0,0.0,0.0,0.0,0.0,0.0,0.0,0.0,0.0,0.0,0.0,0.0,0.0,0.0,0.0,0.0,0.0,0.0,0.0,0.0,0.0,0.0,0.0,0.0,0.0,0.0,2.6919,2.3252,1.7092,1.5897,1.4434,1.1688,1.3763,1.6175,1.8496,0.0,0.0,0.0,0.0,0.0,0.0,0.0,0.0,0.0,0.0,0.0,0.0,0.0,0.0,0.0,0.0,0.0,0.0,0.0,0.0,0.0,0.0,0.0,0.0,0.0,0.0,0.0,0.0,0.0,0.0,0.0,0.0,0.0,0.0,0.0,0.0,0.0,0.0,0.0,0.0,0.0,0.0,0.0,0.0,0.0,0.0,0.0,0.0,0.0,0.0,0.0,0.0,0.0,0.0,0.0,0.0,0.0,0.0,0.0,0.0,0.0,0.0,0.0,0.0,0.0,0.0,0.0,0.0,0.0,0.0,0.0,0.0,0.0,0.0,0.0,0.0,0.0,0.0,0.0,0.0,0.0,0.0,0.0,0.0,0.0,0.0,0.0,0.0,0.0,0.0,0.0,0.0,0.0,0.0,0.0,0.0,0.0,0.0,0.0,0.0,0.0,0.0,0.0,2.7519,2.3514,1.8418,1.6492,1.4867,1.3157,1.4015,1.6281,2.0105,2.2409,0.0,0.0,0.0,0.0,0.0,0.0,0.0,0.0,0.0,0.0,0.0,0.0,0.0,0.0,0.0,0.0,0.0,0.0,0.0,0.0,0.0,0.0,0.0,0.0,0.0,0.0,0.0,0.0,0.0,0.0,0.0,0.0,0.0,0.0,0.0,0.0,0.0,0.0,0.0,0.0,0.0,0.0,0.0,0.0,0.0,0.0,0.0,0.0,0.0,0.0,0.0,0.0,0.0,0.0,0.0,0.0,0.0,0.0,0.0,0.0,0.0,0.0,0.0,0.0,0.0,0.0,0.0,0.0,0.0,0.0,0.0,0.0,0.0,0.0,0.0,0.0,0.0,0.0,0.0,0.0,0.0,0.0,0.0,0.0,0.0,0.0,0.0,0.0,0.0,0.0,0.0,0.0,0.0,0.0,0.0,0.0,0.0,0.0,0.0,0.0,0.0,0.0,2.9023,2.4925,1.8573,1.6492,1.4867,1.3157,1.4428,1.7109,2.1277,2.2457,0.0,0.0,0.0,0.0,0.0,0.0,0.0,0.0,0.0,0.0,0.0,0.0,0.0,0.0,0.0,0.0,0.0,0.0,0.0,0.0,0.0,0.0,0.0,0.0,0.0,0.0,0.0,0.0,0.0,0.0,0.0,0.0,0.0,0.0,0.0,0.0,0.0,0.0,0.0,0.0,0.0,0.0,0.0,0.0,0.0,0.0,0.0,0.0,0.0,0.0,0.0,0.0,0.0,0.0,0.0,0.0,0.0,0.0,0.0,0.0,0.0,0.0,0.0,0.0,0.0,0.0,0.0,0.0,0.0,0.0,0.0,0.0,0.0,0.0,0.0,0.0,0.0,0.0,0.0,0.0,0.0,0.0,0.0,0.0,0.0,0.0,0.0,0.0,0.0,0.0,0.0,0.0,0.0,0.0,0.0,0.0,0.0,0.0,0.0,0.0,0.0,0.0,3.1749,2.8086,2.0892,1.8067,1.6336,1.5413,1.6826,1.9066,2.2117,2.3261,0.0,0.0,0.0,0.0,0.0,0.0,0.0,0.0,0.0,0.0,0.0,0.0,0.0,0.0,0.0,0.0,0.0,0.0,0.0,0.0,0.0,0.0,0.0,0.0,0.0,0.0,0.0,0.0,0.0,0.0,0.0,0.0,0.0,0.0,0.0,0.0,0.0,0.0,0.0,0.0,0.0,0.0,0.0,0.0,0.0,0.0,0.0,0.0,0.0,0.0,0.0,0.0,0.0,0.0,0.0,0.0,0.0,0.0,0.0,0.0,0.0,0.0,0.0,0.0,0.0,0.0,0.0,0.0,0.0,0.0,0.0,0.0,0.0,0.0,0.0,0.0,0.0,0.0,0.0,0.0,0.0,0.0,0.0,0.0,0.0,0.0,0.0,0.0,0.0,0.0,0.0,0.0,0.0,0.0,0.0,0.0,0.0,0.0,0.0,0.0,0.0,0.0,0.0,3.1598,2.4809,2.0805,1.847,1.812,1.9504,2.1155,2.2886,0.0,0.0,0.0,0.0,0.0,0.0,0.0,0.0,0.0,0.0,0.0,0.0,0.0,0.0,0.0,0.0,0.0,0.0,0.0,0.0,0.0,0.0,0.0,0.0,0.0,0.0,0.0,0.0,0.0,0.0,0.0,0.0,0.0,0.0,0.0,0.0,0.0,0.0,0.0,0.0,0.0,0.0,0.0,0.0,0.0,0.0,0.0,0.0,0.0,0.0,0.0,0.0,0.0,0.0,0.0,0.0,0.0,0.0,0.0,0.0,0.0,0.0,0.0,0.0,0.0,0.0,0.0,0.0,0.0,0.0,0.0,0.0,0.0,0.0,0.0,0.0,0.0,0.0,0.0,0.0,0.0,0.0,0.0,0.0,0.0,0.0,0.0,0.0,0.0,0.0,0.0,0.0,0.0,0.0,0.0,0.0,0.0,0.0,0.0,0.0,0.0,0.0,0.0,0.0,3.318,3.0434,2.4689,2.024,1.8237,1.9504,2.1511,2.4073,0.0,0.0,0.0,0.0,0.0,0.0,0.0,0.0,0.0,0.0,0.0,0.0,0.0,0.0]}]]]